<?xml version='1.0' encoding='UTF-8'?><gpx version="1.1" creator="JPX - https://github.com/jenetics/jpx" xmlns="http://www.topografix.com/GPX/1/1"><trk><trkseg><trkpt lat="44.539976764848134" lon="10.745896493988857"><ele>209.00000000000003</ele><time>2026-04-04T13:26:06.001Z</time></trkpt><trkpt lat="44.53992921960038" lon="10.745988244312025"><ele>209.0</ele><time>2026-04-04T13:26:10.001Z</time></trkpt><trkpt lat="44.53989587853519" lon="10.746082708719893"><ele>209.0</ele><time>2026-04-04T13:26:13.001Z</time></trkpt><trkpt lat="44.53980459664043" lon="10.746068069028215"><ele>209.0</ele><time>2026-04-04T13:26:16.001Z</time></trkpt><trkpt lat="44.53974556306366" lon="10.745986928867627"><ele>209.00000000000003</ele><time>2026-04-04T13:26:18.001Z</time></trkpt><trkpt lat="44.539683616207" lon="10.745898041766896"><ele>209.0</ele><time>2026-04-04T13:26:20.001Z</time></trkpt><trkpt lat="44.53962815340642" lon="10.745821140153046"><ele>209.00000000000003</ele><time>2026-04-04T13:26:22.001Z</time></trkpt><trkpt lat="44.539572695439354" lon="10.745743126601857"><ele>209.0</ele><time>2026-04-04T13:26:24.001Z</time></trkpt><trkpt lat="44.53951472800387" lon="10.745671121358825"><ele>209.0</ele><time>2026-04-04T13:26:26.001Z</time></trkpt><trkpt lat="44.53945639077051" lon="10.745597416389487"><ele>209.0</ele><time>2026-04-04T13:26:28.001Z</time></trkpt><trkpt lat="44.53939617338669" lon="10.745514461545833"><ele>209.00000000000003</ele><time>2026-04-04T13:26:30.001Z</time></trkpt><trkpt lat="44.53934260101429" lon="10.745450405641538"><ele>209.0</ele><time>2026-04-04T13:26:32.001Z</time></trkpt><trkpt lat="44.53928982891469" lon="10.745364738739733"><ele>208.83333333333334</ele><time>2026-04-04T13:26:34.001Z</time></trkpt><trkpt lat="44.5392297201432" lon="10.745280423490641"><ele>208.66666666666669</ele><time>2026-04-04T13:26:36.001Z</time></trkpt><trkpt lat="44.53916634839044" lon="10.745196576679788"><ele>208.5</ele><time>2026-04-04T13:26:38.001Z</time></trkpt><trkpt lat="44.53910420529943" lon="10.745113011863566"><ele>208.33333333333331</ele><time>2026-04-04T13:26:40.001Z</time></trkpt><trkpt lat="44.539040897211144" lon="10.745026859751855"><ele>208.16666666666666</ele><time>2026-04-04T13:26:42.001Z</time></trkpt><trkpt lat="44.5389740433467" lon="10.744945671642675"><ele>208.0</ele><time>2026-04-04T13:26:44.001Z</time></trkpt><trkpt lat="44.53890569755348" lon="10.744852398138779"><ele>208.2</ele><time>2026-04-04T13:26:46.001Z</time></trkpt><trkpt lat="44.538829709981286" lon="10.744760327892648"><ele>208.4</ele><time>2026-04-04T13:26:48.001Z</time></trkpt><trkpt lat="44.538759950967524" lon="10.744664042778522"><ele>208.6</ele><time>2026-04-04T13:26:50.001Z</time></trkpt><trkpt lat="44.538692935564" lon="10.744572190813814"><ele>208.79999999999998</ele><time>2026-04-04T13:26:52.001Z</time></trkpt><trkpt lat="44.53862839968379" lon="10.744488446339814"><ele>209.0</ele><time>2026-04-04T13:26:54.001Z</time></trkpt><trkpt lat="44.53856819537191" lon="10.744401687450635"><ele>209.16666666666669</ele><time>2026-04-04T13:26:56.001Z</time></trkpt><trkpt lat="44.53850384111823" lon="10.744313503605063"><ele>209.33333333333334</ele><time>2026-04-04T13:26:58.001Z</time></trkpt><trkpt lat="44.53843846588616" lon="10.744228595048636"><ele>209.5</ele><time>2026-04-04T13:27:00.001Z</time></trkpt><trkpt lat="44.538373677835835" lon="10.744143895115448"><ele>209.66666666666669</ele><time>2026-04-04T13:27:02.001Z</time></trkpt><trkpt lat="44.538308129369156" lon="10.744066185939904"><ele>209.83333333333334</ele><time>2026-04-04T13:27:04.001Z</time></trkpt><trkpt lat="44.53824916565472" lon="10.743974255250768"><ele>210.0</ele><time>2026-04-04T13:27:06.001Z</time></trkpt><trkpt lat="44.53818548990744" lon="10.743889814515745"><ele>210.0</ele><time>2026-04-04T13:27:08.001Z</time></trkpt><trkpt lat="44.538122132140664" lon="10.743801163055378"><ele>210.0</ele><time>2026-04-04T13:27:10.001Z</time></trkpt><trkpt lat="44.53805711172608" lon="10.743715595233713"><ele>210.0</ele><time>2026-04-04T13:27:12.001Z</time></trkpt><trkpt lat="44.53799152582628" lon="10.743630021540149"><ele>210.0</ele><time>2026-04-04T13:27:14.001Z</time></trkpt><trkpt lat="44.53792497901905" lon="10.743547754043604"><ele>210.0</ele><time>2026-04-04T13:27:16.001Z</time></trkpt><trkpt lat="44.53786069442695" lon="10.743474777915367"><ele>210.0</ele><time>2026-04-04T13:27:18.001Z</time></trkpt><trkpt lat="44.53780213595219" lon="10.743398182428992"><ele>210.33333333333334</ele><time>2026-04-04T13:27:20.001Z</time></trkpt><trkpt lat="44.53773905803546" lon="10.743327761291344"><ele>210.66666666666669</ele><time>2026-04-04T13:27:22.001Z</time></trkpt><trkpt lat="44.53766826204506" lon="10.743249745207788"><ele>211.0</ele><time>2026-04-04T13:27:24.001Z</time></trkpt><trkpt lat="44.53759110813633" lon="10.743172712872934"><ele>211.33333333333334</ele><time>2026-04-04T13:27:26.001Z</time></trkpt><trkpt lat="44.537515628009565" lon="10.743102065665603"><ele>211.66666666666669</ele><time>2026-04-04T13:27:28.001Z</time></trkpt><trkpt lat="44.53744002016214" lon="10.743032394896941"><ele>212.0</ele><time>2026-04-04T13:27:30.001Z</time></trkpt><trkpt lat="44.53736516333437" lon="10.742963983501603"><ele>212.0</ele><time>2026-04-04T13:27:32.001Z</time></trkpt><trkpt lat="44.53728967691832" lon="10.742895570208178"><ele>212.0</ele><time>2026-04-04T13:27:34.001Z</time></trkpt><trkpt lat="44.53721174416289" lon="10.742822205864119"><ele>212.0</ele><time>2026-04-04T13:27:36.001Z</time></trkpt><trkpt lat="44.53713491130042" lon="10.742746888201474"><ele>212.0</ele><time>2026-04-04T13:27:38.001Z</time></trkpt><trkpt lat="44.53705587596544" lon="10.742679111149345"><ele>212.0</ele><time>2026-04-04T13:27:40.001Z</time></trkpt><trkpt lat="44.53697951014138" lon="10.742610918861983"><ele>212.8</ele><time>2026-04-04T13:27:42.001Z</time></trkpt><trkpt lat="44.536901545159665" lon="10.742535418684744"><ele>213.6</ele><time>2026-04-04T13:27:44.001Z</time></trkpt><trkpt lat="44.536818583494366" lon="10.74246281088261"><ele>214.40000000000003</ele><time>2026-04-04T13:27:46.001Z</time></trkpt><trkpt lat="44.5367326104609" lon="10.74238565182468"><ele>215.20000000000002</ele><time>2026-04-04T13:27:48.001Z</time></trkpt><trkpt lat="44.536647829861245" lon="10.742311130188838"><ele>216.0</ele><time>2026-04-04T13:27:50.001Z</time></trkpt><trkpt lat="44.5365634279511" lon="10.742240038607953"><ele>216.0</ele><time>2026-04-04T13:27:52.001Z</time></trkpt><trkpt lat="44.536486191870985" lon="10.742178692407956"><ele>216.00000000000003</ele><time>2026-04-04T13:27:54.001Z</time></trkpt><trkpt lat="44.53641038727092" lon="10.742115001668418"><ele>216.00000000000003</ele><time>2026-04-04T13:27:56.001Z</time></trkpt><trkpt lat="44.536328650899925" lon="10.74204807459301"><ele>216.0</ele><time>2026-04-04T13:27:58.001Z</time></trkpt><trkpt lat="44.5362411120808" lon="10.74198594036143"><ele>216.0</ele><time>2026-04-04T13:28:00.001Z</time></trkpt><trkpt lat="44.53616000527489" lon="10.741923849047662"><ele>216.16666666666666</ele><time>2026-04-04T13:28:02.001Z</time></trkpt><trkpt lat="44.536074945042536" lon="10.74186613627276"><ele>216.33333333333331</ele><time>2026-04-04T13:28:04.001Z</time></trkpt><trkpt lat="44.53599238168343" lon="10.741816240740318"><ele>216.5</ele><time>2026-04-04T13:28:06.001Z</time></trkpt><trkpt lat="44.535913389484634" lon="10.741761965793627"><ele>216.66666666666666</ele><time>2026-04-04T13:28:08.001Z</time></trkpt><trkpt lat="44.53583994270269" lon="10.741694586085634"><ele>216.83333333333331</ele><time>2026-04-04T13:28:10.001Z</time></trkpt><trkpt lat="44.535765592445685" lon="10.741638341904755"><ele>217.0</ele><time>2026-04-04T13:28:12.002Z</time></trkpt><trkpt lat="44.5356958895963" lon="10.74156620966349"><ele>217.0</ele><time>2026-04-04T13:28:14.002Z</time></trkpt><trkpt lat="44.53561806490477" lon="10.741491451450258"><ele>217.0</ele><time>2026-04-04T13:28:16.002Z</time></trkpt><trkpt lat="44.53553216722624" lon="10.741433946715823"><ele>217.0</ele><time>2026-04-04T13:28:18.001Z</time></trkpt><trkpt lat="44.53545017809647" lon="10.741367731293453"><ele>217.0</ele><time>2026-04-04T13:28:20.001Z</time></trkpt><trkpt lat="44.53537252121641" lon="10.741314252910236"><ele>217.0</ele><time>2026-04-04T13:28:22.001Z</time></trkpt><trkpt lat="44.53529890503998" lon="10.741253996092716"><ele>216.99999999999997</ele><time>2026-04-04T13:28:24.001Z</time></trkpt><trkpt lat="44.53522644885033" lon="10.741194359398863"><ele>217.0</ele><time>2026-04-04T13:28:26.001Z</time></trkpt><trkpt lat="44.535159975364635" lon="10.741143484550108"><ele>217.0</ele><time>2026-04-04T13:28:28.001Z</time></trkpt><trkpt lat="44.53509084476839" lon="10.741091702679313"><ele>217.0</ele><time>2026-04-04T13:28:30.001Z</time></trkpt><trkpt lat="44.53502104478615" lon="10.741038537419685"><ele>216.99999999999997</ele><time>2026-04-04T13:28:32.001Z</time></trkpt><trkpt lat="44.53495326932466" lon="10.740985633195688"><ele>217.0</ele><time>2026-04-04T13:28:34.001Z</time></trkpt><trkpt lat="44.53488386209471" lon="10.740927332176817"><ele>217.16666666666666</ele><time>2026-04-04T13:28:36.001Z</time></trkpt><trkpt lat="44.53481636169048" lon="10.74086728011885"><ele>217.33333333333331</ele><time>2026-04-04T13:28:38.001Z</time></trkpt><trkpt lat="44.53474848766948" lon="10.740814353798541"><ele>217.5</ele><time>2026-04-04T13:28:40.001Z</time></trkpt><trkpt lat="44.53471374325687" lon="10.740737943363277"><ele>217.66666666666669</ele><time>2026-04-04T13:28:42.001Z</time></trkpt><trkpt lat="44.53476152906425" lon="10.740632861152513"><ele>217.83333333333334</ele><time>2026-04-04T13:28:45.001Z</time></trkpt><trkpt lat="44.53480879681289" lon="10.74055968119699"><ele>218.0</ele><time>2026-04-04T13:28:47.001Z</time></trkpt><trkpt lat="44.53484797841824" lon="10.74047521674506"><ele>218.0</ele><time>2026-04-04T13:28:49.001Z</time></trkpt><trkpt lat="44.53488899345824" lon="10.740385264286957"><ele>218.0</ele><time>2026-04-04T13:28:51.001Z</time></trkpt><trkpt lat="44.53492650577344" lon="10.740303433977259"><ele>218.0</ele><time>2026-04-04T13:28:53.001Z</time></trkpt><trkpt lat="44.53496439992635" lon="10.740218049117779"><ele>218.0</ele><time>2026-04-04T13:28:55.001Z</time></trkpt><trkpt lat="44.535001383740365" lon="10.74013594455494"><ele>218.0</ele><time>2026-04-04T13:28:57.001Z</time></trkpt><trkpt lat="44.53504035705532" lon="10.740056018561807"><ele>218.0</ele><time>2026-04-04T13:28:59.001Z</time></trkpt><trkpt lat="44.535076162172984" lon="10.739971329822701"><ele>218.0</ele><time>2026-04-04T13:29:01.001Z</time></trkpt><trkpt lat="44.535117635841175" lon="10.73988308664243"><ele>218.42857142857144</ele><time>2026-04-04T13:29:03.001Z</time></trkpt><trkpt lat="44.53516030107016" lon="10.739793840400974"><ele>218.85714285714286</ele><time>2026-04-04T13:29:05.001Z</time></trkpt><trkpt lat="44.53520042518013" lon="10.739707464720016"><ele>219.28571428571428</ele><time>2026-04-04T13:29:07.001Z</time></trkpt><trkpt lat="44.535242766454886" lon="10.739619614816199"><ele>219.71428571428572</ele><time>2026-04-04T13:29:09.001Z</time></trkpt><trkpt lat="44.53528446127947" lon="10.739529674417279"><ele>220.14285714285714</ele><time>2026-04-04T13:29:11.001Z</time></trkpt><trkpt lat="44.53532251481571" lon="10.739444865946124"><ele>220.57142857142858</ele><time>2026-04-04T13:29:13.001Z</time></trkpt><trkpt lat="44.535363938455056" lon="10.73935893033975"><ele>221.0</ele><time>2026-04-04T13:29:15.001Z</time></trkpt><trkpt lat="44.53540525166667" lon="10.739272946285547"><ele>221.16666666666669</ele><time>2026-04-04T13:29:17.001Z</time></trkpt><trkpt lat="44.535446165872166" lon="10.739179210802277"><ele>221.33333333333334</ele><time>2026-04-04T13:29:19.001Z</time></trkpt><trkpt lat="44.5354798787648" lon="10.73908156110677"><ele>221.5</ele><time>2026-04-04T13:29:21.001Z</time></trkpt><trkpt lat="44.53552543999123" lon="10.738987365486045"><ele>221.66666666666669</ele><time>2026-04-04T13:29:23.001Z</time></trkpt><trkpt lat="44.53557166161296" lon="10.73889861913129"><ele>221.83333333333334</ele><time>2026-04-04T13:29:25.001Z</time></trkpt><trkpt lat="44.53561579908172" lon="10.738807052395016"><ele>222.0</ele><time>2026-04-04T13:29:27.001Z</time></trkpt><trkpt lat="44.53565556495893" lon="10.738715899007529"><ele>222.0</ele><time>2026-04-04T13:29:29.001Z</time></trkpt><trkpt lat="44.53570005976413" lon="10.738630327227321"><ele>222.0</ele><time>2026-04-04T13:29:31.001Z</time></trkpt><trkpt lat="44.53574014571097" lon="10.738546916033016"><ele>222.0</ele><time>2026-04-04T13:29:33.001Z</time></trkpt><trkpt lat="44.535777516762586" lon="10.738467004879409"><ele>222.0</ele><time>2026-04-04T13:29:35.001Z</time></trkpt><trkpt lat="44.535827543264055" lon="10.738398525026115"><ele>222.0</ele><time>2026-04-04T13:29:37.001Z</time></trkpt><trkpt lat="44.53588053983543" lon="10.738332474885958"><ele>222.0</ele><time>2026-04-04T13:29:39.001Z</time></trkpt><trkpt lat="44.53592045068955" lon="10.738247304508691"><ele>222.0</ele><time>2026-04-04T13:29:41.001Z</time></trkpt><trkpt lat="44.5359396657905" lon="10.738154644384643"><ele>222.0</ele><time>2026-04-04T13:29:43.001Z</time></trkpt><trkpt lat="44.53589873929666" lon="10.738064791131652"><ele>222.0</ele><time>2026-04-04T13:29:45.001Z</time></trkpt><trkpt lat="44.535828523345074" lon="10.738015056973449"><ele>222.0</ele><time>2026-04-04T13:29:47.001Z</time></trkpt><trkpt lat="44.53576759819187" lon="10.73795185636213"><ele>222.0</ele><time>2026-04-04T13:29:49.001Z</time></trkpt><trkpt lat="44.535711532378485" lon="10.737883376379417"><ele>222.0</ele><time>2026-04-04T13:29:51.001Z</time></trkpt><trkpt lat="44.53565653211307" lon="10.737813617388255"><ele>222.0</ele><time>2026-04-04T13:29:53.001Z</time></trkpt><trkpt lat="44.53560393882584" lon="10.737747101702048"><ele>222.57142857142856</ele><time>2026-04-04T13:29:55.001Z</time></trkpt><trkpt lat="44.53555833113793" lon="10.737668687728712"><ele>223.14285714285717</ele><time>2026-04-04T13:29:57.001Z</time></trkpt><trkpt lat="44.53551644635888" lon="10.737579933298976"><ele>223.71428571428572</ele><time>2026-04-04T13:29:59.001Z</time></trkpt><trkpt lat="44.535478784531065" lon="10.737496312967275"><ele>224.28571428571428</ele><time>2026-04-04T13:30:01.001Z</time></trkpt><trkpt lat="44.53544029533513" lon="10.737407271455899"><ele>224.85714285714283</ele><time>2026-04-04T13:30:03.001Z</time></trkpt><trkpt lat="44.53539649293155" lon="10.737317307414918"><ele>225.42857142857144</ele><time>2026-04-04T13:30:05.001Z</time></trkpt><trkpt lat="44.53534759997698" lon="10.737232903169152"><ele>226.0</ele><time>2026-04-04T13:30:07.001Z</time></trkpt><trkpt lat="44.535308561700255" lon="10.73714796391448"><ele>225.99999999999997</ele><time>2026-04-04T13:30:09.001Z</time></trkpt><trkpt lat="44.53527167626353" lon="10.737060039719935"><ele>226.0</ele><time>2026-04-04T13:30:11.001Z</time></trkpt><trkpt lat="44.535240181535904" lon="10.73696323927191"><ele>226.0</ele><time>2026-04-04T13:30:13.001Z</time></trkpt><trkpt lat="44.5352135667763" lon="10.736861756528917"><ele>226.0</ele><time>2026-04-04T13:30:15.001Z</time></trkpt><trkpt lat="44.535180090409604" lon="10.736761326005428"><ele>225.99999999999997</ele><time>2026-04-04T13:30:17.001Z</time></trkpt><trkpt lat="44.53514257641928" lon="10.736669743152952"><ele>226.0</ele><time>2026-04-04T13:30:19.001Z</time></trkpt><trkpt lat="44.53509849437286" lon="10.736580544268099"><ele>226.0</ele><time>2026-04-04T13:30:21.001Z</time></trkpt><trkpt lat="44.53505475058309" lon="10.736495298403804"><ele>226.0</ele><time>2026-04-04T13:30:23.001Z</time></trkpt><trkpt lat="44.53501141640936" lon="10.736418136489702"><ele>226.0</ele><time>2026-04-04T13:30:25.001Z</time></trkpt><trkpt lat="44.534967824143884" lon="10.736335825821557"><ele>226.0</ele><time>2026-04-04T13:30:27.001Z</time></trkpt><trkpt lat="44.534919887566595" lon="10.736258645414969"><ele>226.0</ele><time>2026-04-04T13:30:29.001Z</time></trkpt><trkpt lat="44.534880619462" lon="10.736175172204"><ele>226.0</ele><time>2026-04-04T13:30:31.001Z</time></trkpt><trkpt lat="44.53483727362837" lon="10.73609339990679"><ele>226.0</ele><time>2026-04-04T13:30:33.001Z</time></trkpt><trkpt lat="44.5347953575455" lon="10.735986268715122"><ele>225.66666666666666</ele><time>2026-04-04T13:30:36.001Z</time></trkpt><trkpt lat="44.534763797616606" lon="10.73587322073826"><ele>225.33333333333331</ele><time>2026-04-04T13:30:39.001Z</time></trkpt><trkpt lat="44.53474026119319" lon="10.735746982984539"><ele>225.0</ele><time>2026-04-04T13:30:42.001Z</time></trkpt><trkpt lat="44.53472589725196" lon="10.735654312829128"><ele>224.66666666666669</ele><time>2026-04-04T13:30:44.001Z</time></trkpt><trkpt lat="44.534711622809816" lon="10.735529360037836"><ele>224.33333333333334</ele><time>2026-04-04T13:30:47.001Z</time></trkpt><trkpt lat="44.53469849214568" lon="10.735424325448038"><ele>224.0</ele><time>2026-04-04T13:30:50.001Z</time></trkpt><trkpt lat="44.53467630605134" lon="10.735310227507666"><ele>223.16666666666669</ele><time>2026-04-04T13:30:53.001Z</time></trkpt><trkpt lat="44.53465410273011" lon="10.735204664773805"><ele>222.33333333333334</ele><time>2026-04-04T13:30:56.001Z</time></trkpt><trkpt lat="44.534624638230255" lon="10.735102655403585"><ele>221.5</ele><time>2026-04-04T13:30:59.001Z</time></trkpt><trkpt lat="44.53459556704993" lon="10.735007402768908"><ele>220.66666666666669</ele><time>2026-04-04T13:31:02.001Z</time></trkpt><trkpt lat="44.534546393533645" lon="10.734926924242506"><ele>219.83333333333334</ele><time>2026-04-04T13:31:05.001Z</time></trkpt><trkpt lat="44.5345008902889" lon="10.734841692580956"><ele>219.0</ele><time>2026-04-04T13:31:08.001Z</time></trkpt><trkpt lat="44.53446193425995" lon="10.734755177967935"><ele>221.71428571428572</ele><time>2026-04-04T13:31:11.001Z</time></trkpt><trkpt lat="44.534420963804614" lon="10.734658944515086"><ele>224.42857142857142</ele><time>2026-04-04T13:31:14.001Z</time></trkpt><trkpt lat="44.53439388919806" lon="10.734561154108443"><ele>227.14285714285714</ele><time>2026-04-04T13:31:17.001Z</time></trkpt><trkpt lat="44.53435700746892" lon="10.734475110413198"><ele>229.85714285714286</ele><time>2026-04-04T13:31:20.001Z</time></trkpt><trkpt lat="44.53433087512717" lon="10.734393346960243"><ele>232.57142857142856</ele><time>2026-04-04T13:31:23.001Z</time></trkpt><trkpt lat="44.53430541090299" lon="10.73430645158576"><ele>235.28571428571428</ele><time>2026-04-04T13:31:26.001Z</time></trkpt><trkpt lat="44.53427377099385" lon="10.734215699301991"><ele>238.0</ele><time>2026-04-04T13:31:29.001Z</time></trkpt><trkpt lat="44.53424950010673" lon="10.734122023276607"><ele>238.85714285714286</ele><time>2026-04-04T13:31:32.001Z</time></trkpt><trkpt lat="44.534221953334885" lon="10.734025472607344"><ele>239.71428571428572</ele><time>2026-04-04T13:31:35.001Z</time></trkpt><trkpt lat="44.53420057758152" lon="10.733927495965622"><ele>240.57142857142856</ele><time>2026-04-04T13:31:38.001Z</time></trkpt><trkpt lat="44.534182375789676" lon="10.733839954894336"><ele>241.42857142857142</ele><time>2026-04-04T13:31:41.001Z</time></trkpt><trkpt lat="44.53415532605124" lon="10.733753825970593"><ele>242.28571428571428</ele><time>2026-04-04T13:31:44.001Z</time></trkpt><trkpt lat="44.53411740508653" lon="10.733653951385978"><ele>243.1428571428571</ele><time>2026-04-04T13:31:47.001Z</time></trkpt><trkpt lat="44.534088352926624" lon="10.73353967793139"><ele>243.99999999999997</ele><time>2026-04-04T13:31:50.001Z</time></trkpt><trkpt lat="44.534055222910105" lon="10.733424730983346"><ele>244.33333333333331</ele><time>2026-04-04T13:31:53.001Z</time></trkpt><trkpt lat="44.534012590831196" lon="10.733324085825355"><ele>244.66666666666666</ele><time>2026-04-04T13:31:56.001Z</time></trkpt><trkpt lat="44.533967182952836" lon="10.733229541990793"><ele>245.0</ele><time>2026-04-04T13:31:59.001Z</time></trkpt><trkpt lat="44.533914037526394" lon="10.733136954561656"><ele>245.33333333333331</ele><time>2026-04-04T13:32:02.001Z</time></trkpt><trkpt lat="44.53386708074124" lon="10.733051097849566"><ele>245.66666666666666</ele><time>2026-04-04T13:32:05.001Z</time></trkpt><trkpt lat="44.53379886298352" lon="10.732976360040478"><ele>246.0</ele><time>2026-04-04T13:32:08.001Z</time></trkpt><trkpt lat="44.53371713694147" lon="10.732908736539075"><ele>246.83333333333334</ele><time>2026-04-04T13:32:11.001Z</time></trkpt><trkpt lat="44.53365811342067" lon="10.732860723924231"><ele>247.66666666666669</ele><time>2026-04-04T13:32:13.001Z</time></trkpt><trkpt lat="44.53359718979261" lon="10.732808340815074"><ele>248.5</ele><time>2026-04-04T13:32:15.001Z</time></trkpt><trkpt lat="44.533541351596654" lon="10.732743860518282"><ele>249.33333333333334</ele><time>2026-04-04T13:32:17.001Z</time></trkpt><trkpt lat="44.53348565905857" lon="10.732655950252619"><ele>250.16666666666669</ele><time>2026-04-04T13:32:19.001Z</time></trkpt><trkpt lat="44.53346226901659" lon="10.732541643614029"><ele>251.0</ele><time>2026-04-04T13:32:21.001Z</time></trkpt><trkpt lat="44.53344606555204" lon="10.732440077133912"><ele>252.33333333333334</ele><time>2026-04-04T13:32:23.001Z</time></trkpt><trkpt lat="44.533435086565845" lon="10.732352669448662"><ele>253.66666666666669</ele><time>2026-04-04T13:32:25.001Z</time></trkpt><trkpt lat="44.53341773338557" lon="10.732239478139592"><ele>255.0</ele><time>2026-04-04T13:32:28.001Z</time></trkpt><trkpt lat="44.533388621985104" lon="10.732129041032497"><ele>256.3333333333333</ele><time>2026-04-04T13:32:31.001Z</time></trkpt><trkpt lat="44.53336629033458" lon="10.732015938283629"><ele>257.66666666666663</ele><time>2026-04-04T13:32:34.001Z</time></trkpt><trkpt lat="44.533342372370996" lon="10.731911827433311"><ele>259.0</ele><time>2026-04-04T13:32:37.001Z</time></trkpt><trkpt lat="44.53332669485132" lon="10.731795703399118"><ele>260.16666666666663</ele><time>2026-04-04T13:32:40.001Z</time></trkpt><trkpt lat="44.53330756195456" lon="10.731691137800029"><ele>261.3333333333333</ele><time>2026-04-04T13:32:43.001Z</time></trkpt><trkpt lat="44.533289527037624" lon="10.731574944206761"><ele>262.5</ele><time>2026-04-04T13:32:46.001Z</time></trkpt><trkpt lat="44.53326890282215" lon="10.731483688067213"><ele>263.6666666666667</ele><time>2026-04-04T13:32:48.001Z</time></trkpt><trkpt lat="44.53323566655025" lon="10.731370410226578"><ele>264.83333333333337</ele><time>2026-04-04T13:32:51.001Z</time></trkpt><trkpt lat="44.533204429860426" lon="10.731279166428882"><ele>266.0</ele><time>2026-04-04T13:32:54.001Z</time></trkpt><trkpt lat="44.53316710895203" lon="10.731182597778481"><ele>266.0</ele><time>2026-04-04T13:32:57.001Z</time></trkpt><trkpt lat="44.533140428937834" lon="10.731102501218036"><ele>266.0</ele><time>2026-04-04T13:32:59.001Z</time></trkpt><trkpt lat="44.53309985884473" lon="10.73100348630737"><ele>266.0</ele><time>2026-04-04T13:33:02.001Z</time></trkpt><trkpt lat="44.533062268787056" lon="10.730904984729136"><ele>266.0</ele><time>2026-04-04T13:33:05Z</time></trkpt><trkpt lat="44.533028311630915" lon="10.730806837429956"><ele>266.0</ele><time>2026-04-04T13:33:08Z</time></trkpt><trkpt lat="44.53298852043275" lon="10.730735625177395"><ele>266.0</ele><time>2026-04-04T13:33:10Z</time></trkpt><trkpt lat="44.532960967442065" lon="10.73065190825147"><ele>266.0</ele><time>2026-04-04T13:33:12Z</time></trkpt><trkpt lat="44.532941916778526" lon="10.730565245345057"><ele>265.85714285714283</ele><time>2026-04-04T13:33:14Z</time></trkpt><trkpt lat="44.53289748993378" lon="10.730458111920075"><ele>265.7142857142857</ele><time>2026-04-04T13:33:17Z</time></trkpt><trkpt lat="44.5328509483577" lon="10.730385701993384"><ele>265.57142857142856</ele><time>2026-04-04T13:33:19Z</time></trkpt><trkpt lat="44.532812163544826" lon="10.730310747315107"><ele>265.42857142857144</ele><time>2026-04-04T13:33:21Z</time></trkpt><trkpt lat="44.53278279089064" lon="10.73020951924692"><ele>265.2857142857143</ele><time>2026-04-04T13:33:23Z</time></trkpt><trkpt lat="44.53277234442069" lon="10.73010422711166"><ele>265.1428571428571</ele><time>2026-04-04T13:33:25Z</time></trkpt><trkpt lat="44.532766008368995" lon="10.73000703174665"><ele>265.0</ele><time>2026-04-04T13:33:27Z</time></trkpt><trkpt lat="44.53275300821242" lon="10.729909782893744"><ele>266.66666666666663</ele><time>2026-04-04T13:33:29Z</time></trkpt><trkpt lat="44.53274492217736" lon="10.729821727691663"><ele>268.3333333333333</ele><time>2026-04-04T13:33:31Z</time></trkpt><trkpt lat="44.532726973908666" lon="10.729691782649184"><ele>270.0</ele><time>2026-04-04T13:33:34Z</time></trkpt><trkpt lat="44.53268070966243" lon="10.729582812389204"><ele>271.6666666666667</ele><time>2026-04-04T13:33:37Z</time></trkpt><trkpt lat="44.532639936261155" lon="10.729489433110448"><ele>273.33333333333337</ele><time>2026-04-04T13:33:39Z</time></trkpt><trkpt lat="44.53260453169184" lon="10.729381814578336"><ele>275.0</ele><time>2026-04-04T13:33:41Z</time></trkpt><trkpt lat="44.53256915072848" lon="10.729279367716176"><ele>275.0</ele><time>2026-04-04T13:33:43Z</time></trkpt><trkpt lat="44.53253530006639" lon="10.729190450329654"><ele>275.0</ele><time>2026-04-04T13:33:45Z</time></trkpt><trkpt lat="44.532496008612526" lon="10.729097561421142"><ele>275.0</ele><time>2026-04-04T13:33:47Z</time></trkpt><trkpt lat="44.53245089907946" lon="10.729013358814884"><ele>275.0</ele><time>2026-04-04T13:33:49Z</time></trkpt><trkpt lat="44.53240014590715" lon="10.728940266584608"><ele>275.0</ele><time>2026-04-04T13:33:51Z</time></trkpt><trkpt lat="44.53233910937572" lon="10.728864393221968"><ele>275.0</ele><time>2026-04-04T13:33:53Z</time></trkpt><trkpt lat="44.5322681011873" lon="10.728792028877093"><ele>275.0</ele><time>2026-04-04T13:33:55Z</time></trkpt><trkpt lat="44.53220074688572" lon="10.72873087522507"><ele>275.0</ele><time>2026-04-04T13:33:56.999Z</time></trkpt><trkpt lat="44.532136914706285" lon="10.728675045732814"><ele>275.0</ele><time>2026-04-04T13:33:58.999Z</time></trkpt><trkpt lat="44.53207077580843" lon="10.728621864031616"><ele>275.0</ele><time>2026-04-04T13:34:00.999Z</time></trkpt><trkpt lat="44.53200270049944" lon="10.728590213840876"><ele>275.0</ele><time>2026-04-04T13:34:02.999Z</time></trkpt><trkpt lat="44.53193662722807" lon="10.728554091704963"><ele>275.0</ele><time>2026-04-04T13:34:04.999Z</time></trkpt><trkpt lat="44.53183987982264" lon="10.728522087345747"><ele>275.0</ele><time>2026-04-04T13:34:07.999Z</time></trkpt><trkpt lat="44.53176076942138" lon="10.728476310599534"><ele>275.0</ele><time>2026-04-04T13:34:09.999Z</time></trkpt><trkpt lat="44.53169241742279" lon="10.728406025284729"><ele>275.0</ele><time>2026-04-04T13:34:11.999Z</time></trkpt><trkpt lat="44.53163745156012" lon="10.72834376287772"><ele>275.0</ele><time>2026-04-04T13:34:13.999Z</time></trkpt><trkpt lat="44.53158532742309" lon="10.728275612912604"><ele>275.0</ele><time>2026-04-04T13:34:15.999Z</time></trkpt><trkpt lat="44.531526579100785" lon="10.728217461270873"><ele>275.0</ele><time>2026-04-04T13:34:17.999Z</time></trkpt><trkpt lat="44.53145731418725" lon="10.728143645418106"><ele>275.0</ele><time>2026-04-04T13:34:19.999Z</time></trkpt><trkpt lat="44.531378810994454" lon="10.728073999758394"><ele>275.0</ele><time>2026-04-04T13:34:21.999Z</time></trkpt><trkpt lat="44.53131243020766" lon="10.728026052337572"><ele>275.0</ele><time>2026-04-04T13:34:23.999Z</time></trkpt><trkpt lat="44.53123949931027" lon="10.727965229000455"><ele>275.0</ele><time>2026-04-04T13:34:25.999Z</time></trkpt><trkpt lat="44.53116200606086" lon="10.727916248631898"><ele>275.0</ele><time>2026-04-04T13:34:27.999Z</time></trkpt><trkpt lat="44.53109197443299" lon="10.727864196385434"><ele>275.0</ele><time>2026-04-04T13:34:30Z</time></trkpt><trkpt lat="44.53104245029237" lon="10.727787510486369"><ele>275.83333333333337</ele><time>2026-04-04T13:34:32Z</time></trkpt><trkpt lat="44.53100912522569" lon="10.727681206087642"><ele>276.6666666666667</ele><time>2026-04-04T13:34:34Z</time></trkpt><trkpt lat="44.530976243779" lon="10.727573850570238"><ele>277.5</ele><time>2026-04-04T13:34:36Z</time></trkpt><trkpt lat="44.5309403306207" lon="10.72748976885566"><ele>278.3333333333333</ele><time>2026-04-04T13:34:38Z</time></trkpt><trkpt lat="44.53089938082593" lon="10.727413077592741"><ele>279.16666666666663</ele><time>2026-04-04T13:34:40Z</time></trkpt><trkpt lat="44.53084879096148" lon="10.7273450589001"><ele>280.0</ele><time>2026-04-04T13:34:42Z</time></trkpt><trkpt lat="44.530795471879884" lon="10.727269583740407"><ele>280.0</ele><time>2026-04-04T13:34:44Z</time></trkpt><trkpt lat="44.53074199006895" lon="10.7271649879971"><ele>280.0</ele><time>2026-04-04T13:34:46Z</time></trkpt><trkpt lat="44.5306920402585" lon="10.72705374334291"><ele>280.0</ele><time>2026-04-04T13:34:48Z</time></trkpt><trkpt lat="44.530629562613974" lon="10.72694304401011"><ele>280.0</ele><time>2026-04-04T13:34:50Z</time></trkpt><trkpt lat="44.53056086973447" lon="10.726824327457063"><ele>280.0</ele><time>2026-04-04T13:34:52Z</time></trkpt><trkpt lat="44.53049793724493" lon="10.726720666137709"><ele>280.4</ele><time>2026-04-04T13:34:54Z</time></trkpt><trkpt lat="44.5304369042033" lon="10.726605318974645"><ele>280.8</ele><time>2026-04-04T13:34:56Z</time></trkpt><trkpt lat="44.530376609829716" lon="10.72648994208222"><ele>281.2</ele><time>2026-04-04T13:34:58Z</time></trkpt><trkpt lat="44.53032231071875" lon="10.726379894619482"><ele>281.6</ele><time>2026-04-04T13:35:00Z</time></trkpt><trkpt lat="44.5302706428811" lon="10.726270890338041"><ele>282.0</ele><time>2026-04-04T13:35:02Z</time></trkpt><trkpt lat="44.53021555660484" lon="10.726171013198845"><ele>282.0</ele><time>2026-04-04T13:35:04Z</time></trkpt><trkpt lat="44.53015182749068" lon="10.726074985923354"><ele>282.0</ele><time>2026-04-04T13:35:06Z</time></trkpt><trkpt lat="44.5301023880389" lon="10.725971679068254"><ele>282.0</ele><time>2026-04-04T13:35:08Z</time></trkpt><trkpt lat="44.530057510682795" lon="10.725905440005436"><ele>282.0</ele><time>2026-04-04T13:35:10Z</time></trkpt><trkpt lat="44.53000936762495" lon="10.72582254757875"><ele>282.0</ele><time>2026-04-04T13:35:12Z</time></trkpt><trkpt lat="44.529943455314346" lon="10.725729202107564"><ele>282.0</ele><time>2026-04-04T13:35:14Z</time></trkpt><trkpt lat="44.529885702725956" lon="10.725604637034014"><ele>281.5</ele><time>2026-04-04T13:35:16Z</time></trkpt><trkpt lat="44.5298272401744" lon="10.725492875252577"><ele>281.0</ele><time>2026-04-04T13:35:18Z</time></trkpt><trkpt lat="44.52977428836253" lon="10.725396473276142"><ele>280.5</ele><time>2026-04-04T13:35:20Z</time></trkpt><trkpt lat="44.52971824586458" lon="10.72529435545565"><ele>280.0</ele><time>2026-04-04T13:35:22Z</time></trkpt><trkpt lat="44.529674267427495" lon="10.725198411553855"><ele>279.5</ele><time>2026-04-04T13:35:24Z</time></trkpt><trkpt lat="44.52963004604926" lon="10.72510918010282"><ele>279.0</ele><time>2026-04-04T13:35:26Z</time></trkpt><trkpt lat="44.52958361760414" lon="10.724989278848067"><ele>280.3333333333333</ele><time>2026-04-04T13:35:28Z</time></trkpt><trkpt lat="44.5295337645152" lon="10.724875847005599"><ele>281.6666666666667</ele><time>2026-04-04T13:35:30Z</time></trkpt><trkpt lat="44.52947751306529" lon="10.724763089003746"><ele>283.0</ele><time>2026-04-04T13:35:32Z</time></trkpt><trkpt lat="44.52945499247458" lon="10.724652985614464"><ele>284.33333333333337</ele><time>2026-04-04T13:35:34Z</time></trkpt><trkpt lat="44.529431382875735" lon="10.724559196882904"><ele>285.6666666666667</ele><time>2026-04-04T13:35:36Z</time></trkpt><trkpt lat="44.52938714415659" lon="10.724442884787997"><ele>287.0</ele><time>2026-04-04T13:35:38Z</time></trkpt><trkpt lat="44.529329051589265" lon="10.724337402790278"><ele>287.0</ele><time>2026-04-04T13:35:40Z</time></trkpt><trkpt lat="44.5292816479787" lon="10.724244035701837"><ele>287.0</ele><time>2026-04-04T13:35:42Z</time></trkpt><trkpt lat="44.52923036748628" lon="10.724132414145549"><ele>287.0</ele><time>2026-04-04T13:35:44Z</time></trkpt><trkpt lat="44.529196935515365" lon="10.724021002122864"><ele>287.0</ele><time>2026-04-04T13:35:46Z</time></trkpt><trkpt lat="44.52916250173346" lon="10.723885325417717"><ele>287.0</ele><time>2026-04-04T13:35:48Z</time></trkpt><trkpt lat="44.52913626711815" lon="10.723739252427627"><ele>287.0</ele><time>2026-04-04T13:35:50Z</time></trkpt><trkpt lat="44.52910676560783" lon="10.723607627815529"><ele>287.0</ele><time>2026-04-04T13:35:52Z</time></trkpt><trkpt lat="44.52906710764221" lon="10.723502814859986"><ele>287.0</ele><time>2026-04-04T13:35:54Z</time></trkpt><trkpt lat="44.52903626824233" lon="10.723406646596729"><ele>287.0</ele><time>2026-04-04T13:35:56Z</time></trkpt><trkpt lat="44.52900752000464" lon="10.723273542227512"><ele>287.0</ele><time>2026-04-04T13:35:58Z</time></trkpt><trkpt lat="44.52898704523831" lon="10.723186942151765"><ele>287.0</ele><time>2026-04-04T13:35:59Z</time></trkpt><trkpt lat="44.528965587834996" lon="10.72310357612549"><ele>285.6666666666667</ele><time>2026-04-04T13:36:00Z</time></trkpt><trkpt lat="44.5288896954793" lon="10.722998105126212"><ele>284.33333333333337</ele><time>2026-04-04T13:36:02Z</time></trkpt><trkpt lat="44.52882487332931" lon="10.722925571369382"><ele>283.0</ele><time>2026-04-04T13:36:04Z</time></trkpt><trkpt lat="44.52877154414365" lon="10.722833120303225"><ele>281.6666666666667</ele><time>2026-04-04T13:36:06Z</time></trkpt><trkpt lat="44.52874803290209" lon="10.722723248883993"><ele>280.3333333333333</ele><time>2026-04-04T13:36:08.999Z</time></trkpt><trkpt lat="44.52870422802347" lon="10.722640215479654"><ele>279.0</ele><time>2026-04-04T13:36:10.999Z</time></trkpt><trkpt lat="44.528665728498716" lon="10.722569740996793"><ele>282.0</ele><time>2026-04-04T13:36:12.999Z</time></trkpt><trkpt lat="44.528625031626376" lon="10.7225009174777"><ele>285.0</ele><time>2026-04-04T13:36:14.999Z</time></trkpt><trkpt lat="44.528569355762485" lon="10.722401787982593"><ele>288.0</ele><time>2026-04-04T13:36:17.999Z</time></trkpt><trkpt lat="44.52851169988876" lon="10.72230620249213"><ele>291.0</ele><time>2026-04-04T13:36:20.999Z</time></trkpt><trkpt lat="44.52846170088405" lon="10.722246240439315"><ele>294.0</ele><time>2026-04-04T13:36:22.999Z</time></trkpt><trkpt lat="44.52840227314085" lon="10.722137796078304"><ele>297.0</ele><time>2026-04-04T13:36:25.999Z</time></trkpt><trkpt lat="44.52836496283059" lon="10.722028987707175"><ele>297.0</ele><time>2026-04-04T13:36:28.999Z</time></trkpt><trkpt lat="44.52830669001877" lon="10.721920954773333"><ele>297.0</ele><time>2026-04-04T13:36:31.999Z</time></trkpt><trkpt lat="44.52825506889782" lon="10.72184732632303"><ele>297.0</ele><time>2026-04-04T13:36:33.999Z</time></trkpt><trkpt lat="44.52819220153485" lon="10.721748370309388"><ele>297.0</ele><time>2026-04-04T13:36:36Z</time></trkpt><trkpt lat="44.52814162974101" lon="10.721669808567611"><ele>297.0</ele><time>2026-04-04T13:36:38Z</time></trkpt><trkpt lat="44.528088181452006" lon="10.721589672507097"><ele>297.0</ele><time>2026-04-04T13:36:40Z</time></trkpt><trkpt lat="44.52804829963139" lon="10.721501873021023"><ele>296.6666666666667</ele><time>2026-04-04T13:36:42Z</time></trkpt><trkpt lat="44.528020980874004" lon="10.721411050950618"><ele>296.3333333333333</ele><time>2026-04-04T13:36:44Z</time></trkpt><trkpt lat="44.527966378262946" lon="10.72130190025648"><ele>296.0</ele><time>2026-04-04T13:36:47Z</time></trkpt><trkpt lat="44.527926265400254" lon="10.72119271383078"><ele>295.66666666666663</ele><time>2026-04-04T13:36:50Z</time></trkpt><trkpt lat="44.52787291075279" lon="10.721108514201651"><ele>295.3333333333333</ele><time>2026-04-04T13:36:54Z</time></trkpt><trkpt lat="44.527824474351426" lon="10.721020896610977"><ele>295.0</ele><time>2026-04-04T13:36:57Z</time></trkpt><trkpt lat="44.52776414002922" lon="10.720937187588365"><ele>295.0</ele><time>2026-04-04T13:37:00Z</time></trkpt><trkpt lat="44.527688106495475" lon="10.720863416682153"><ele>295.0</ele><time>2026-04-04T13:37:03Z</time></trkpt><trkpt lat="44.52763177645988" lon="10.720794481952032"><ele>295.0</ele><time>2026-04-04T13:37:05Z</time></trkpt><trkpt lat="44.527563976641694" lon="10.720737563076492"><ele>295.0</ele><time>2026-04-04T13:37:07Z</time></trkpt><trkpt lat="44.527498036556054" lon="10.720693906293308"><ele>295.0</ele><time>2026-04-04T13:37:09Z</time></trkpt><trkpt lat="44.52743442568839" lon="10.720622238322763"><ele>295.0</ele><time>2026-04-04T13:37:12Z</time></trkpt><trkpt lat="44.527358431241574" lon="10.720556253775738"><ele>295.0</ele><time>2026-04-04T13:37:15Z</time></trkpt><trkpt lat="44.527299000062456" lon="10.720480311139399"><ele>295.0</ele><time>2026-04-04T13:37:18Z</time></trkpt><trkpt lat="44.52725460879552" lon="10.72037460940428"><ele>295.0</ele><time>2026-04-04T13:37:21Z</time></trkpt><trkpt lat="44.52723317128767" lon="10.720264203352286"><ele>295.0</ele><time>2026-04-04T13:37:24Z</time></trkpt><trkpt lat="44.52721667976475" lon="10.720154655484581"><ele>295.0</ele><time>2026-04-04T13:37:27Z</time></trkpt><trkpt lat="44.527191672317954" lon="10.72004935563692"><ele>295.0</ele><time>2026-04-04T13:37:30Z</time></trkpt><trkpt lat="44.527175985200174" lon="10.719952964063268"><ele>294.66666666666663</ele><time>2026-04-04T13:37:33Z</time></trkpt><trkpt lat="44.52714999300621" lon="10.719857896715919"><ele>294.3333333333333</ele><time>2026-04-04T13:37:36Z</time></trkpt><trkpt lat="44.52712805460847" lon="10.719757444273727"><ele>294.0</ele><time>2026-04-04T13:37:39Z</time></trkpt><trkpt lat="44.52711549983798" lon="10.719661048451027"><ele>293.6666666666667</ele><time>2026-04-04T13:37:42Z</time></trkpt><trkpt lat="44.52709528459774" lon="10.719568066603788"><ele>293.33333333333337</ele><time>2026-04-04T13:37:45Z</time></trkpt><trkpt lat="44.52705188249523" lon="10.719447726193241"><ele>293.0</ele><time>2026-04-04T13:37:48Z</time></trkpt><trkpt lat="44.526997869569236" lon="10.719346633519068"><ele>295.0</ele><time>2026-04-04T13:37:51Z</time></trkpt><trkpt lat="44.52692804965235" lon="10.719276113079475"><ele>297.0</ele><time>2026-04-04T13:37:54Z</time></trkpt><trkpt lat="44.526877833118704" lon="10.71920174157848"><ele>299.0</ele><time>2026-04-04T13:37:57Z</time></trkpt><trkpt lat="44.52683368925665" lon="10.719115956326347"><ele>301.0</ele><time>2026-04-04T13:38:00Z</time></trkpt><trkpt lat="44.52679124602588" lon="10.719034809534696"><ele>303.0</ele><time>2026-04-04T13:38:03Z</time></trkpt><trkpt lat="44.52676188253694" lon="10.71892460443314"><ele>305.0</ele><time>2026-04-04T13:38:06Z</time></trkpt><trkpt lat="44.52672860367725" lon="10.71881960672199"><ele>305.0</ele><time>2026-04-04T13:38:09Z</time></trkpt><trkpt lat="44.526689883385885" lon="10.718709749312689"><ele>305.0</ele><time>2026-04-04T13:38:12Z</time></trkpt><trkpt lat="44.52666415179612" lon="10.718601660291107"><ele>305.0</ele><time>2026-04-04T13:38:15Z</time></trkpt><trkpt lat="44.526626978958035" lon="10.71851179071994"><ele>305.0</ele><time>2026-04-04T13:38:17.999Z</time></trkpt><trkpt lat="44.52659448776034" lon="10.718410749454286"><ele>305.0</ele><time>2026-04-04T13:38:20.999Z</time></trkpt><trkpt lat="44.5265834811439" lon="10.718304095360006"><ele>305.0</ele><time>2026-04-04T13:38:23.999Z</time></trkpt><trkpt lat="44.526567180551424" lon="10.718199307417581"><ele>306.7142857142857</ele><time>2026-04-04T13:38:27.999Z</time></trkpt><trkpt lat="44.52654558397937" lon="10.718099721191464"><ele>308.4285714285714</ele><time>2026-04-04T13:38:30.999Z</time></trkpt><trkpt lat="44.52652622057003" lon="10.717983572968134"><ele>310.1428571428571</ele><time>2026-04-04T13:38:33.999Z</time></trkpt><trkpt lat="44.526498410110214" lon="10.717889160161212"><ele>311.8571428571429</ele><time>2026-04-04T13:38:35.999Z</time></trkpt><trkpt lat="44.5264736250124" lon="10.71779545189622"><ele>313.57142857142856</ele><time>2026-04-04T13:38:37.999Z</time></trkpt><trkpt lat="44.52645681177589" lon="10.717710046136038"><ele>315.2857142857143</ele><time>2026-04-04T13:38:39.999Z</time></trkpt><trkpt lat="44.52643088373916" lon="10.717601194277343"><ele>317.0</ele><time>2026-04-04T13:38:43Z</time></trkpt><trkpt lat="44.526411479057074" lon="10.717490558419069"><ele>317.0</ele><time>2026-04-04T13:38:46Z</time></trkpt><trkpt lat="44.52638966173054" lon="10.717371407118515"><ele>317.0</ele><time>2026-04-04T13:38:49Z</time></trkpt><trkpt lat="44.52636496209686" lon="10.71724151321067"><ele>317.0</ele><time>2026-04-04T13:38:52Z</time></trkpt><trkpt lat="44.52635262627717" lon="10.71713640703449"><ele>317.0</ele><time>2026-04-04T13:38:54Z</time></trkpt><trkpt lat="44.52634060529791" lon="10.717035934869962"><ele>317.0</ele><time>2026-04-04T13:38:56Z</time></trkpt><trkpt lat="44.5263253638165" lon="10.716926384645653"><ele>317.0</ele><time>2026-04-04T13:38:58Z</time></trkpt><trkpt lat="44.52630494811454" lon="10.7168141371378"><ele>317.0</ele><time>2026-04-04T13:39:00Z</time></trkpt><trkpt lat="44.52627517367857" lon="10.716690083583465"><ele>317.0</ele><time>2026-04-04T13:39:02Z</time></trkpt><trkpt lat="44.526255711059584" lon="10.716543141555817"><ele>317.0</ele><time>2026-04-04T13:39:04Z</time></trkpt><trkpt lat="44.52623136691312" lon="10.716400081376324"><ele>317.0</ele><time>2026-04-04T13:39:06Z</time></trkpt><trkpt lat="44.52621007626773" lon="10.716262751225482"><ele>317.0</ele><time>2026-04-04T13:39:08Z</time></trkpt><trkpt lat="44.526185545059704" lon="10.7161332549046"><ele>316.6</ele><time>2026-04-04T13:39:10Z</time></trkpt><trkpt lat="44.52617461949463" lon="10.716002304828855"><ele>316.2</ele><time>2026-04-04T13:39:12Z</time></trkpt><trkpt lat="44.52616541751842" lon="10.71586336212526"><ele>315.8</ele><time>2026-04-04T13:39:14Z</time></trkpt><trkpt lat="44.52615860487395" lon="10.71573085209728"><ele>315.4</ele><time>2026-04-04T13:39:16Z</time></trkpt><trkpt lat="44.52616713687228" lon="10.715605638392374"><ele>315.0</ele><time>2026-04-04T13:39:18Z</time></trkpt><trkpt lat="44.5261882576449" lon="10.71548037716881"><ele>315.0</ele><time>2026-04-04T13:39:20Z</time></trkpt><trkpt lat="44.52621880066997" lon="10.715349644030237"><ele>315.0</ele><time>2026-04-04T13:39:22Z</time></trkpt><trkpt lat="44.526254123742255" lon="10.715233098521404"><ele>315.0</ele><time>2026-04-04T13:39:24Z</time></trkpt><trkpt lat="44.52629809672456" lon="10.715121281355305"><ele>315.0</ele><time>2026-04-04T13:39:26Z</time></trkpt><trkpt lat="44.526339980697074" lon="10.714988052966909"><ele>315.0</ele><time>2026-04-04T13:39:28Z</time></trkpt><trkpt lat="44.526391360801576" lon="10.71483391537629"><ele>315.0</ele><time>2026-04-04T13:39:30Z</time></trkpt><trkpt lat="44.52641991701051" lon="10.714746565441665"><ele>315.0</ele><time>2026-04-04T13:39:31Z</time></trkpt><trkpt lat="44.526448851737506" lon="10.714653317096293"><ele>315.0</ele><time>2026-04-04T13:39:32Z</time></trkpt><trkpt lat="44.52647545547787" lon="10.714552665989556"><ele>315.0</ele><time>2026-04-04T13:39:33Z</time></trkpt><trkpt lat="44.52650475997559" lon="10.714446170793124"><ele>315.0</ele><time>2026-04-04T13:39:34Z</time></trkpt><trkpt lat="44.52653513197957" lon="10.71432960779213"><ele>315.0</ele><time>2026-04-04T13:39:35Z</time></trkpt><trkpt lat="44.52656618901258" lon="10.714203203069555"><ele>314.4</ele><time>2026-04-04T13:39:36Z</time></trkpt><trkpt lat="44.52659471128094" lon="10.714067129111339"><ele>313.8</ele><time>2026-04-04T13:39:37Z</time></trkpt><trkpt lat="44.52662264368029" lon="10.713926826604192"><ele>313.2</ele><time>2026-04-04T13:39:38Z</time></trkpt><trkpt lat="44.5266572081702" lon="10.713788567553387"><ele>312.6</ele><time>2026-04-04T13:39:39Z</time></trkpt><trkpt lat="44.52669020925214" lon="10.713649540575886"><ele>312.0</ele><time>2026-04-04T13:39:40Z</time></trkpt><trkpt lat="44.52672277856124" lon="10.713508838432853"><ele>310.8</ele><time>2026-04-04T13:39:41Z</time></trkpt><trkpt lat="44.52676128872475" lon="10.713372801478629"><ele>309.6</ele><time>2026-04-04T13:39:42Z</time></trkpt><trkpt lat="44.526802859751896" lon="10.71324018354485"><ele>308.40000000000003</ele><time>2026-04-04T13:39:43Z</time></trkpt><trkpt lat="44.52684694707845" lon="10.713109075623517"><ele>307.2</ele><time>2026-04-04T13:39:44Z</time></trkpt><trkpt lat="44.526891993941426" lon="10.712978927900018"><ele>306.0</ele><time>2026-04-04T13:39:45Z</time></trkpt><trkpt lat="44.52692464550869" lon="10.7128413175439"><ele>305.0</ele><time>2026-04-04T13:39:46Z</time></trkpt><trkpt lat="44.52694327671035" lon="10.712698705983023"><ele>304.0</ele><time>2026-04-04T13:39:47Z</time></trkpt><trkpt lat="44.52695619669473" lon="10.712553212752388"><ele>303.0</ele><time>2026-04-04T13:39:48Z</time></trkpt><trkpt lat="44.526965507667875" lon="10.712408931895151"><ele>302.0</ele><time>2026-04-04T13:39:49Z</time></trkpt><trkpt lat="44.526977170835444" lon="10.712265938404212"><ele>301.0</ele><time>2026-04-04T13:39:50Z</time></trkpt><trkpt lat="44.52698902066396" lon="10.712124431505265"><ele>301.0</ele><time>2026-04-04T13:39:51Z</time></trkpt><trkpt lat="44.52699997868132" lon="10.71198424748913"><ele>301.0</ele><time>2026-04-04T13:39:52Z</time></trkpt><trkpt lat="44.527011945388246" lon="10.71184628132391"><ele>301.0</ele><time>2026-04-04T13:39:53Z</time></trkpt><trkpt lat="44.52702862953987" lon="10.711707259151899"><ele>301.0</ele><time>2026-04-04T13:39:54Z</time></trkpt><trkpt lat="44.52704750378631" lon="10.711571037570106"><ele>301.0</ele><time>2026-04-04T13:39:55Z</time></trkpt><trkpt lat="44.52706458386515" lon="10.711437094210748"><ele>301.2</ele><time>2026-04-04T13:39:56Z</time></trkpt><trkpt lat="44.52708120334568" lon="10.7113021171282"><ele>301.40000000000003</ele><time>2026-04-04T13:39:57Z</time></trkpt><trkpt lat="44.52709635327407" lon="10.711169859190006"><ele>301.6</ele><time>2026-04-04T13:39:58Z</time></trkpt><trkpt lat="44.52710098406642" lon="10.711035246815195"><ele>301.8</ele><time>2026-04-04T13:39:59Z</time></trkpt><trkpt lat="44.527099174422915" lon="10.710910764437557"><ele>302.0</ele><time>2026-04-04T13:40:00Z</time></trkpt><trkpt lat="44.5270987759449" lon="10.710801394609064"><ele>302.4</ele><time>2026-04-04T13:40:01Z</time></trkpt><trkpt lat="44.527108102101465" lon="10.710706050840994"><ele>302.79999999999995</ele><time>2026-04-04T13:40:02Z</time></trkpt><trkpt lat="44.52711787457889" lon="10.710615539521816"><ele>303.2</ele><time>2026-04-04T13:40:03Z</time></trkpt><trkpt lat="44.52709962862261" lon="10.710465359195748"><ele>303.59999999999997</ele><time>2026-04-04T13:40:05Z</time></trkpt><trkpt lat="44.52707336495249" lon="10.710314974579264"><ele>304.0</ele><time>2026-04-04T13:40:07Z</time></trkpt><trkpt lat="44.52704692539499" lon="10.710156193313033"><ele>302.57142857142856</ele><time>2026-04-04T13:40:09Z</time></trkpt><trkpt lat="44.52702954291149" lon="10.7100693369786"><ele>301.14285714285717</ele><time>2026-04-04T13:40:10Z</time></trkpt><trkpt lat="44.527004603749695" lon="10.709985622459708"><ele>299.7142857142857</ele><time>2026-04-04T13:40:11Z</time></trkpt><trkpt lat="44.52697878151911" lon="10.709903016202157"><ele>298.2857142857143</ele><time>2026-04-04T13:40:12Z</time></trkpt><trkpt lat="44.52696037189617" lon="10.709817104370353"><ele>296.8571428571429</ele><time>2026-04-04T13:40:13Z</time></trkpt><trkpt lat="44.52694093875655" lon="10.709726102569144"><ele>295.42857142857144</ele><time>2026-04-04T13:40:14Z</time></trkpt><trkpt lat="44.52692389304851" lon="10.709640622804894"><ele>294.0</ele><time>2026-04-04T13:40:15Z</time></trkpt><trkpt lat="44.5269115679276" lon="10.709552027213089"><ele>294.0</ele><time>2026-04-04T13:40:16Z</time></trkpt><trkpt lat="44.52690256358568" lon="10.709462634355312"><ele>294.0</ele><time>2026-04-04T13:40:17Z</time></trkpt><trkpt lat="44.52689338744126" lon="10.709371917200077"><ele>294.0</ele><time>2026-04-04T13:40:18Z</time></trkpt><trkpt lat="44.52688054646657" lon="10.709282189381247"><ele>294.0</ele><time>2026-04-04T13:40:19Z</time></trkpt><trkpt lat="44.52686043240766" lon="10.709192475135259"><ele>294.0</ele><time>2026-04-04T13:40:20Z</time></trkpt><trkpt lat="44.52683483364988" lon="10.70910861690734"><ele>294.0</ele><time>2026-04-04T13:40:21Z</time></trkpt><trkpt lat="44.526806700182924" lon="10.709026621135996"><ele>294.0</ele><time>2026-04-04T13:40:22Z</time></trkpt><trkpt lat="44.5267771618637" lon="10.708941866818405"><ele>294.57142857142856</ele><time>2026-04-04T13:40:23Z</time></trkpt><trkpt lat="44.52674801948893" lon="10.708858779415998"><ele>295.1428571428571</ele><time>2026-04-04T13:40:24Z</time></trkpt><trkpt lat="44.52671985409527" lon="10.708774191763979"><ele>295.7142857142857</ele><time>2026-04-04T13:40:25Z</time></trkpt><trkpt lat="44.52669596225383" lon="10.708685422165546"><ele>296.2857142857143</ele><time>2026-04-04T13:40:26Z</time></trkpt><trkpt lat="44.526677153816685" lon="10.708592959525152"><ele>296.85714285714283</ele><time>2026-04-04T13:40:27Z</time></trkpt><trkpt lat="44.52666464173971" lon="10.7084983628007"><ele>297.42857142857144</ele><time>2026-04-04T13:40:28Z</time></trkpt><trkpt lat="44.526658334608705" lon="10.708402706101497"><ele>298.0</ele><time>2026-04-04T13:40:29Z</time></trkpt><trkpt lat="44.526659625237926" lon="10.708307497263727"><ele>298.85714285714283</ele><time>2026-04-04T13:40:30Z</time></trkpt><trkpt lat="44.526661625811975" lon="10.708213048020893"><ele>299.71428571428567</ele><time>2026-04-04T13:40:31Z</time></trkpt><trkpt lat="44.52666555048004" lon="10.708118498058457"><ele>300.57142857142856</ele><time>2026-04-04T13:40:32Z</time></trkpt><trkpt lat="44.52666682383768" lon="10.708023748748257"><ele>301.42857142857144</ele><time>2026-04-04T13:40:33Z</time></trkpt><trkpt lat="44.52666548001432" lon="10.707931081027425"><ele>302.28571428571433</ele><time>2026-04-04T13:40:34Z</time></trkpt><trkpt lat="44.52665852513577" lon="10.70783817965401"><ele>303.1428571428571</ele><time>2026-04-04T13:40:35Z</time></trkpt><trkpt lat="44.52663886984625" lon="10.707751040305421"><ele>304.0</ele><time>2026-04-04T13:40:36Z</time></trkpt><trkpt lat="44.52661315439214" lon="10.70766851594265"><ele>304.0</ele><time>2026-04-04T13:40:37Z</time></trkpt><trkpt lat="44.52657907021139" lon="10.707589954861424"><ele>304.0</ele><time>2026-04-04T13:40:38Z</time></trkpt><trkpt lat="44.52655093490461" lon="10.707507735703267"><ele>304.0</ele><time>2026-04-04T13:40:39Z</time></trkpt><trkpt lat="44.526526823429286" lon="10.707419872015288"><ele>304.0</ele><time>2026-04-04T13:40:40Z</time></trkpt><trkpt lat="44.526511933430065" lon="10.707329021390366"><ele>304.0</ele><time>2026-04-04T13:40:41Z</time></trkpt><trkpt lat="44.52651211090955" lon="10.707234515235632"><ele>304.0</ele><time>2026-04-04T13:40:42Z</time></trkpt><trkpt lat="44.5265188344507" lon="10.70714205239427"><ele>304.0</ele><time>2026-04-04T13:40:43Z</time></trkpt><trkpt lat="44.52652623070799" lon="10.70705191171241"><ele>304.0</ele><time>2026-04-04T13:40:44Z</time></trkpt><trkpt lat="44.526535466896824" lon="10.706959508107094"><ele>304.0</ele><time>2026-04-04T13:40:45Z</time></trkpt><trkpt lat="44.52654507330889" lon="10.706867939626457"><ele>304.0</ele><time>2026-04-04T13:40:46Z</time></trkpt><trkpt lat="44.5265557581474" lon="10.706777510092918"><ele>304.0</ele><time>2026-04-04T13:40:47Z</time></trkpt><trkpt lat="44.52657085156237" lon="10.706689291410228"><ele>304.0</ele><time>2026-04-04T13:40:48Z</time></trkpt><trkpt lat="44.526599341547026" lon="10.70652098188047"><ele>304.0</ele><time>2026-04-04T13:40:50Z</time></trkpt><trkpt lat="44.526615075148854" lon="10.706359664372682"><ele>304.2</ele><time>2026-04-04T13:40:52Z</time></trkpt><trkpt lat="44.52662260251481" lon="10.706204109215662"><ele>304.4</ele><time>2026-04-04T13:40:54Z</time></trkpt><trkpt lat="44.52660639953498" lon="10.706066665030653"><ele>304.6</ele><time>2026-04-04T13:40:56Z</time></trkpt><trkpt lat="44.526578215691" lon="10.705932676138366"><ele>304.8</ele><time>2026-04-04T13:40:58Z</time></trkpt><trkpt lat="44.52652103796822" lon="10.705802318153127"><ele>305.0</ele><time>2026-04-04T13:41:00Z</time></trkpt><trkpt lat="44.52644602402792" lon="10.70567634142009"><ele>306.5</ele><time>2026-04-04T13:41:02Z</time></trkpt><trkpt lat="44.52635667802605" lon="10.705565393243138"><ele>308.0</ele><time>2026-04-04T13:41:04Z</time></trkpt><trkpt lat="44.526265164326574" lon="10.705468302266725"><ele>309.5</ele><time>2026-04-04T13:41:06Z</time></trkpt><trkpt lat="44.52617948304104" lon="10.70536659105185"><ele>311.0</ele><time>2026-04-04T13:41:08Z</time></trkpt><trkpt lat="44.52610685422982" lon="10.705257142072812"><ele>308.2</ele><time>2026-04-04T13:41:10Z</time></trkpt><trkpt lat="44.5260584337022" lon="10.705121722147803"><ele>305.40000000000003</ele><time>2026-04-04T13:41:12Z</time></trkpt><trkpt lat="44.526026905812266" lon="10.704972562880645"><ele>302.6</ele><time>2026-04-04T13:41:14Z</time></trkpt><trkpt lat="44.52602419803275" lon="10.704815444148428"><ele>299.8</ele><time>2026-04-04T13:41:16Z</time></trkpt><trkpt lat="44.52604490414335" lon="10.704659718173303"><ele>297.0</ele><time>2026-04-04T13:41:18Z</time></trkpt><trkpt lat="44.5260863875719" lon="10.704514334318342"><ele>296.8</ele><time>2026-04-04T13:41:20Z</time></trkpt><trkpt lat="44.52613820448272" lon="10.704383271369602"><ele>296.6</ele><time>2026-04-04T13:41:22Z</time></trkpt><trkpt lat="44.526194358904306" lon="10.704259746424462"><ele>296.40000000000003</ele><time>2026-04-04T13:41:24Z</time></trkpt><trkpt lat="44.526243822314" lon="10.704124648954494"><ele>296.2</ele><time>2026-04-04T13:41:26Z</time></trkpt><trkpt lat="44.52628773602318" lon="10.703975029697487"><ele>296.0</ele><time>2026-04-04T13:41:28Z</time></trkpt><trkpt lat="44.52632773731897" lon="10.703824736710395"><ele>299.0</ele><time>2026-04-04T13:41:30Z</time></trkpt><trkpt lat="44.526364301724904" lon="10.70367038370314"><ele>302.0</ele><time>2026-04-04T13:41:32Z</time></trkpt><trkpt lat="44.526409022117285" lon="10.703531767606487"><ele>305.0</ele><time>2026-04-04T13:41:34Z</time></trkpt><trkpt lat="44.52646366291584" lon="10.703396419059604"><ele>308.0</ele><time>2026-04-04T13:41:36Z</time></trkpt><trkpt lat="44.52647391222793" lon="10.703235542564242"><ele>308.0</ele><time>2026-04-04T13:41:38Z</time></trkpt><trkpt lat="44.52641658789434" lon="10.703075270091054"><ele>308.0</ele><time>2026-04-04T13:41:40Z</time></trkpt><trkpt lat="44.52637329974856" lon="10.703000094918089"><ele>308.0</ele><time>2026-04-04T13:41:41Z</time></trkpt><trkpt lat="44.526326961544584" lon="10.702923480178638"><ele>308.0</ele><time>2026-04-04T13:41:42Z</time></trkpt><trkpt lat="44.52627662955712" lon="10.702841776250716"><ele>308.0</ele><time>2026-04-04T13:41:43Z</time></trkpt><trkpt lat="44.526223853520314" lon="10.702760879833393"><ele>308.0</ele><time>2026-04-04T13:41:44Z</time></trkpt><trkpt lat="44.52616718389263" lon="10.70268207220736"><ele>307.0</ele><time>2026-04-04T13:41:45Z</time></trkpt><trkpt lat="44.52611377521921" lon="10.702597976831512"><ele>306.0</ele><time>2026-04-04T13:41:46Z</time></trkpt><trkpt lat="44.52606090599722" lon="10.702508827279404"><ele>305.0</ele><time>2026-04-04T13:41:47Z</time></trkpt><trkpt lat="44.52600892080998" lon="10.702426654509852"><ele>304.0</ele><time>2026-04-04T13:41:48Z</time></trkpt><trkpt lat="44.5259582428004" lon="10.702338345247744"><ele>303.0</ele><time>2026-04-04T13:41:49Z</time></trkpt><trkpt lat="44.52591022700355" lon="10.702250749788474"><ele>302.0</ele><time>2026-04-04T13:41:50Z</time></trkpt><trkpt lat="44.52586361879223" lon="10.702164427980307"><ele>302.0</ele><time>2026-04-04T13:41:51Z</time></trkpt><trkpt lat="44.5258171917562" lon="10.702085444890708"><ele>302.0</ele><time>2026-04-04T13:41:52Z</time></trkpt><trkpt lat="44.52577140747341" lon="10.70200771150521"><ele>302.0</ele><time>2026-04-04T13:41:53Z</time></trkpt><trkpt lat="44.52572510755157" lon="10.70193912084205"><ele>302.0</ele><time>2026-04-04T13:41:54Z</time></trkpt><trkpt lat="44.525670354776935" lon="10.701888990111799"><ele>302.0</ele><time>2026-04-04T13:41:55Z</time></trkpt><trkpt lat="44.52556856296185" lon="10.701791161064195"><ele>302.0</ele><time>2026-04-04T13:41:57Z</time></trkpt><trkpt lat="44.52546854776659" lon="10.7016956711378"><ele>302.5</ele><time>2026-04-04T13:41:59Z</time></trkpt><trkpt lat="44.52536113098689" lon="10.70161008981163"><ele>303.0</ele><time>2026-04-04T13:42:01Z</time></trkpt><trkpt lat="44.52526232390114" lon="10.701515107248367"><ele>303.5</ele><time>2026-04-04T13:42:03Z</time></trkpt><trkpt lat="44.525166654480024" lon="10.701427085851611"><ele>304.0</ele><time>2026-04-04T13:42:05Z</time></trkpt><trkpt lat="44.5250652021349" lon="10.701344936761322"><ele>304.0</ele><time>2026-04-04T13:42:07Z</time></trkpt><trkpt lat="44.52496835798098" lon="10.70125306838455"><ele>304.0</ele><time>2026-04-04T13:42:09Z</time></trkpt><trkpt lat="44.524885353715064" lon="10.70114776015329"><ele>304.0</ele><time>2026-04-04T13:42:11Z</time></trkpt><trkpt lat="44.5248320404534" lon="10.701066197616559"><ele>304.0</ele><time>2026-04-04T13:42:13Z</time></trkpt><trkpt lat="44.52475581193487" lon="10.70095246322091"><ele>304.0</ele><time>2026-04-04T13:42:15Z</time></trkpt><trkpt lat="44.52467919653157" lon="10.700845133384238"><ele>303.59999999999997</ele><time>2026-04-04T13:42:17Z</time></trkpt><trkpt lat="44.52461237657097" lon="10.70072745807666"><ele>303.2</ele><time>2026-04-04T13:42:19Z</time></trkpt><trkpt lat="44.52454256236183" lon="10.700610153198287"><ele>302.79999999999995</ele><time>2026-04-04T13:42:21Z</time></trkpt><trkpt lat="44.52447559536954" lon="10.700500480253583"><ele>302.4</ele><time>2026-04-04T13:42:23Z</time></trkpt><trkpt lat="44.52441031349989" lon="10.700388918632218"><ele>302.0</ele><time>2026-04-04T13:42:25Z</time></trkpt><trkpt lat="44.52433776175598" lon="10.700273967362913"><ele>302.75</ele><time>2026-04-04T13:42:27Z</time></trkpt><trkpt lat="44.524268635931165" lon="10.700158863520619"><ele>303.5</ele><time>2026-04-04T13:42:29Z</time></trkpt><trkpt lat="44.52420981540616" lon="10.700026907728773"><ele>304.25</ele><time>2026-04-04T13:42:31Z</time></trkpt><trkpt lat="44.52416074882819" lon="10.69987749455138"><ele>305.0</ele><time>2026-04-04T13:42:33Z</time></trkpt><trkpt lat="44.52409988364219" lon="10.699734294462836"><ele>305.0</ele><time>2026-04-04T13:42:35Z</time></trkpt><trkpt lat="44.52403589953794" lon="10.699586549418997"><ele>305.0</ele><time>2026-04-04T13:42:37Z</time></trkpt><trkpt lat="44.52394879647281" lon="10.699471815641306"><ele>305.0</ele><time>2026-04-04T13:42:39Z</time></trkpt><trkpt lat="44.52384284815913" lon="10.699427905315586"><ele>305.0</ele><time>2026-04-04T13:42:41Z</time></trkpt><trkpt lat="44.523745489628155" lon="10.69941082128456"><ele>304.6</ele><time>2026-04-04T13:42:43Z</time></trkpt><trkpt lat="44.523641754375596" lon="10.699409470312734"><ele>304.2</ele><time>2026-04-04T13:42:45Z</time></trkpt><trkpt lat="44.52353809945695" lon="10.699418228614368"><ele>303.8</ele><time>2026-04-04T13:42:47Z</time></trkpt><trkpt lat="44.52343694103541" lon="10.699382391136428"><ele>303.4</ele><time>2026-04-04T13:42:49Z</time></trkpt><trkpt lat="44.523334732262015" lon="10.699327790426452"><ele>303.0</ele><time>2026-04-04T13:42:51Z</time></trkpt><trkpt lat="44.52322231482984" lon="10.69927347478492"><ele>303.0</ele><time>2026-04-04T13:42:53Z</time></trkpt><trkpt lat="44.52311083361852" lon="10.699218674944511"><ele>303.0</ele><time>2026-04-04T13:42:55Z</time></trkpt><trkpt lat="44.52300170722761" lon="10.699169067194855"><ele>303.0</ele><time>2026-04-04T13:42:57Z</time></trkpt><trkpt lat="44.522887733609636" lon="10.699108083814684"><ele>303.0</ele><time>2026-04-04T13:42:59Z</time></trkpt><trkpt lat="44.52277856091314" lon="10.699056658423936"><ele>302.75</ele><time>2026-04-04T13:43:01Z</time></trkpt><trkpt lat="44.5226689443612" lon="10.699005760816574"><ele>302.5</ele><time>2026-04-04T13:43:03Z</time></trkpt><trkpt lat="44.52255986503404" lon="10.698940798425065"><ele>302.25</ele><time>2026-04-04T13:43:05Z</time></trkpt><trkpt lat="44.52245271165992" lon="10.698890540030915"><ele>302.0</ele><time>2026-04-04T13:43:07Z</time></trkpt><trkpt lat="44.522345794689485" lon="10.69882703973453"><ele>302.0</ele><time>2026-04-04T13:43:09Z</time></trkpt><trkpt lat="44.52222824902498" lon="10.698767021293007"><ele>302.0</ele><time>2026-04-04T13:43:11Z</time></trkpt><trkpt lat="44.5221683309237" lon="10.698735203385192"><ele>302.0</ele><time>2026-04-04T13:43:12Z</time></trkpt><trkpt lat="44.522106976791946" lon="10.698710768262837"><ele>302.0</ele><time>2026-04-04T13:43:13Z</time></trkpt><trkpt lat="44.522043991193414" lon="10.69867918919251"><ele>302.0</ele><time>2026-04-04T13:43:14Z</time></trkpt><trkpt lat="44.521983041689424" lon="10.698643527435145"><ele>302.0</ele><time>2026-04-04T13:43:15Z</time></trkpt><trkpt lat="44.521919043874256" lon="10.69861129218847"><ele>302.00000000000006</ele><time>2026-04-04T13:43:16Z</time></trkpt><trkpt lat="44.52185766976847" lon="10.698580473729752"><ele>302.0</ele><time>2026-04-04T13:43:17Z</time></trkpt><trkpt lat="44.52174156401944" lon="10.698519175681522"><ele>302.0</ele><time>2026-04-04T13:43:19Z</time></trkpt><trkpt lat="44.521681565996296" lon="10.698480542241674"><ele>302.0</ele><time>2026-04-04T13:43:20Z</time></trkpt><trkpt lat="44.52162246269227" lon="10.698445667093145"><ele>302.0</ele><time>2026-04-04T13:43:21Z</time></trkpt><trkpt lat="44.521561272054505" lon="10.698423928228163"><ele>302.00000000000006</ele><time>2026-04-04T13:43:22Z</time></trkpt><trkpt lat="44.52150001956576" lon="10.69839386748042"><ele>302.0</ele><time>2026-04-04T13:43:23Z</time></trkpt><trkpt lat="44.52138897454041" lon="10.698334526260336"><ele>302.0</ele><time>2026-04-04T13:43:25Z</time></trkpt><trkpt lat="44.52128945025621" lon="10.698279983165111"><ele>302.0</ele><time>2026-04-04T13:43:27Z</time></trkpt><trkpt lat="44.521203437496474" lon="10.698234058912247"><ele>302.0</ele><time>2026-04-04T13:43:29Z</time></trkpt><trkpt lat="44.52112017975217" lon="10.698190354443767"><ele>302.0</ele><time>2026-04-04T13:43:31Z</time></trkpt><trkpt lat="44.521060189486114" lon="10.6981533388255"><ele>302.0</ele><time>2026-04-04T13:43:33Z</time></trkpt><trkpt lat="44.52099164278502" lon="10.698119702202277"><ele>302.0</ele><time>2026-04-04T13:43:35Z</time></trkpt><trkpt lat="44.520923366817726" lon="10.69809661203463"><ele>303.14285714285717</ele><time>2026-04-04T13:43:37Z</time></trkpt><trkpt lat="44.520854822725" lon="10.69808339264283"><ele>304.2857142857143</ele><time>2026-04-04T13:43:39Z</time></trkpt><trkpt lat="44.52078169439175" lon="10.698080720557527"><ele>305.42857142857144</ele><time>2026-04-04T13:43:41Z</time></trkpt><trkpt lat="44.52071130708703" lon="10.69809546250036"><ele>306.57142857142856</ele><time>2026-04-04T13:43:43Z</time></trkpt><trkpt lat="44.52065411830189" lon="10.698132463154387"><ele>307.7142857142857</ele><time>2026-04-04T13:43:45Z</time></trkpt><trkpt lat="44.52059011961962" lon="10.698176286315798"><ele>308.8571428571429</ele><time>2026-04-04T13:43:47Z</time></trkpt><trkpt lat="44.520527785099375" lon="10.6982232380813"><ele>310.0</ele><time>2026-04-04T13:43:49Z</time></trkpt><trkpt lat="44.52046653608424" lon="10.698275664152815"><ele>310.0</ele><time>2026-04-04T13:43:51Z</time></trkpt><trkpt lat="44.52040523200716" lon="10.698329245703485"><ele>310.0</ele><time>2026-04-04T13:43:53Z</time></trkpt><trkpt lat="44.52033976894041" lon="10.698372642985941"><ele>310.0</ele><time>2026-04-04T13:43:55Z</time></trkpt><trkpt lat="44.52027901905072" lon="10.69841770486664"><ele>310.0</ele><time>2026-04-04T13:43:57Z</time></trkpt><trkpt lat="44.520218539640155" lon="10.698462687983657"><ele>310.0</ele><time>2026-04-04T13:43:59Z</time></trkpt><trkpt lat="44.52015254098229" lon="10.698497121199422"><ele>310.0</ele><time>2026-04-04T13:44:01Z</time></trkpt><trkpt lat="44.52008409531209" lon="10.698520321846619"><ele>310.0</ele><time>2026-04-04T13:44:03Z</time></trkpt><trkpt lat="44.52001626112216" lon="10.698529547913779"><ele>310.66666666666663</ele><time>2026-04-04T13:44:05Z</time></trkpt><trkpt lat="44.51994661929314" lon="10.698540321713613"><ele>311.3333333333333</ele><time>2026-04-04T13:44:07Z</time></trkpt><trkpt lat="44.519878265408025" lon="10.69855058987319"><ele>312.0</ele><time>2026-04-04T13:44:09Z</time></trkpt><trkpt lat="44.51978935435545" lon="10.69855413498123"><ele>312.6666666666667</ele><time>2026-04-04T13:44:12Z</time></trkpt><trkpt lat="44.519697482286304" lon="10.698576171086156"><ele>313.33333333333337</ele><time>2026-04-04T13:44:15Z</time></trkpt><trkpt lat="44.519634369874204" lon="10.698594724583984"><ele>314.0</ele><time>2026-04-04T13:44:17Z</time></trkpt><trkpt lat="44.519568827649955" lon="10.698619569694625"><ele>316.1428571428571</ele><time>2026-04-04T13:44:19Z</time></trkpt><trkpt lat="44.51950420435987" lon="10.698647551396117"><ele>318.2857142857143</ele><time>2026-04-04T13:44:21Z</time></trkpt><trkpt lat="44.51944290563665" lon="10.698682739108287"><ele>320.42857142857144</ele><time>2026-04-04T13:44:23Z</time></trkpt><trkpt lat="44.51938177677481" lon="10.698725361235763"><ele>322.57142857142856</ele><time>2026-04-04T13:44:25Z</time></trkpt><trkpt lat="44.519319651357186" lon="10.69877386176813"><ele>324.7142857142857</ele><time>2026-04-04T13:44:27Z</time></trkpt><trkpt lat="44.51925842690415" lon="10.698825094365553"><ele>326.85714285714283</ele><time>2026-04-04T13:44:29Z</time></trkpt><trkpt lat="44.51919895457853" lon="10.698883117272846"><ele>329.0</ele><time>2026-04-04T13:44:31Z</time></trkpt><trkpt lat="44.51914174182558" lon="10.698931446509798"><ele>329.0</ele><time>2026-04-04T13:44:33Z</time></trkpt><trkpt lat="44.51909006855312" lon="10.698982055044075"><ele>329.0</ele><time>2026-04-04T13:44:35Z</time></trkpt><trkpt lat="44.51903852067646" lon="10.699043068743393"><ele>329.0</ele><time>2026-04-04T13:44:37Z</time></trkpt><trkpt lat="44.51899711280899" lon="10.699111806037354"><ele>329.0</ele><time>2026-04-04T13:44:39Z</time></trkpt><trkpt lat="44.51895757369325" lon="10.699183453228343"><ele>329.0</ele><time>2026-04-04T13:44:41Z</time></trkpt><trkpt lat="44.51891044311374" lon="10.699246193559581"><ele>329.0</ele><time>2026-04-04T13:44:43Z</time></trkpt><trkpt lat="44.51887321403572" lon="10.699328935208637"><ele>329.0</ele><time>2026-04-04T13:44:45Z</time></trkpt><trkpt lat="44.518829909169405" lon="10.699413558002103"><ele>328.14285714285717</ele><time>2026-04-04T13:44:47Z</time></trkpt><trkpt lat="44.51878655098453" lon="10.699485657807168"><ele>327.2857142857143</ele><time>2026-04-04T13:44:49Z</time></trkpt><trkpt lat="44.518741056138325" lon="10.699564731271794"><ele>326.42857142857144</ele><time>2026-04-04T13:44:51Z</time></trkpt><trkpt lat="44.518696981802954" lon="10.699632872045058"><ele>325.57142857142856</ele><time>2026-04-04T13:44:53Z</time></trkpt><trkpt lat="44.51865342713223" lon="10.699698348569267"><ele>324.7142857142857</ele><time>2026-04-04T13:44:55Z</time></trkpt><trkpt lat="44.51861426130527" lon="10.699779368132791"><ele>323.8571428571429</ele><time>2026-04-04T13:44:57Z</time></trkpt><trkpt lat="44.51857191548273" lon="10.699856351103053"><ele>323.0</ele><time>2026-04-04T13:44:59Z</time></trkpt><trkpt lat="44.51853098425371" lon="10.69992546686491"><ele>325.5714285714286</ele><time>2026-04-04T13:45:01Z</time></trkpt><trkpt lat="44.51848864548008" lon="10.699996070406204"><ele>328.14285714285717</ele><time>2026-04-04T13:45:03Z</time></trkpt><trkpt lat="44.51844543827359" lon="10.700072661029859"><ele>330.7142857142857</ele><time>2026-04-04T13:45:05Z</time></trkpt><trkpt lat="44.51839044911063" lon="10.70014147471252"><ele>333.28571428571433</ele><time>2026-04-04T13:45:07Z</time></trkpt><trkpt lat="44.518329015455336" lon="10.700188714714761"><ele>335.8571428571429</ele><time>2026-04-04T13:45:09Z</time></trkpt><trkpt lat="44.51825818944693" lon="10.70018723605431"><ele>338.42857142857144</ele><time>2026-04-04T13:45:11Z</time></trkpt><trkpt lat="44.5181992424844" lon="10.700153158269314"><ele>341.0</ele><time>2026-04-04T13:45:13Z</time></trkpt><trkpt lat="44.51813824448251" lon="10.70009311276324"><ele>341.0</ele><time>2026-04-04T13:45:15Z</time></trkpt><trkpt lat="44.51809510685956" lon="10.700014511982443"><ele>341.0</ele><time>2026-04-04T13:45:17Z</time></trkpt><trkpt lat="44.51805182754113" lon="10.699934808879847"><ele>341.0</ele><time>2026-04-04T13:45:19Z</time></trkpt><trkpt lat="44.51800855175313" lon="10.699849804849213"><ele>341.0</ele><time>2026-04-04T13:45:21Z</time></trkpt><trkpt lat="44.517966484811566" lon="10.69976454582247"><ele>341.0</ele><time>2026-04-04T13:45:23Z</time></trkpt><trkpt lat="44.51791491860415" lon="10.69968869805772"><ele>341.0</ele><time>2026-04-04T13:45:25Z</time></trkpt><trkpt lat="44.51786321461262" lon="10.699628240110716"><ele>341.0</ele><time>2026-04-04T13:45:27Z</time></trkpt><trkpt lat="44.517802480048566" lon="10.699571315822276"><ele>341.7142857142857</ele><time>2026-04-04T13:45:29Z</time></trkpt><trkpt lat="44.517736507251705" lon="10.699531082348217"><ele>342.42857142857144</ele><time>2026-04-04T13:45:31Z</time></trkpt><trkpt lat="44.51767044616856" lon="10.699503071730147"><ele>343.1428571428571</ele><time>2026-04-04T13:45:33Z</time></trkpt><trkpt lat="44.51760518795641" lon="10.699495111231428"><ele>343.8571428571429</ele><time>2026-04-04T13:45:35Z</time></trkpt><trkpt lat="44.51753818961132" lon="10.69950242959918"><ele>344.5714285714286</ele><time>2026-04-04T13:45:37Z</time></trkpt><trkpt lat="44.51747290406812" lon="10.69951404322418"><ele>345.2857142857143</ele><time>2026-04-04T13:45:39Z</time></trkpt><trkpt lat="44.51740671361066" lon="10.699526482932601"><ele>346.0</ele><time>2026-04-04T13:45:41Z</time></trkpt><trkpt lat="44.51734290554091" lon="10.699554479826174"><ele>346.0</ele><time>2026-04-04T13:45:43Z</time></trkpt><trkpt lat="44.51725475954126" lon="10.699570522868232"><ele>346.0</ele><time>2026-04-04T13:45:46Z</time></trkpt><trkpt lat="44.51716542698236" lon="10.69958867594945"><ele>346.0</ele><time>2026-04-04T13:45:49Z</time></trkpt><trkpt lat="44.517074141637345" lon="10.699612940189787"><ele>346.0</ele><time>2026-04-04T13:45:52Z</time></trkpt><trkpt lat="44.51701027698036" lon="10.699639121227085"><ele>346.0</ele><time>2026-04-04T13:45:54Z</time></trkpt><trkpt lat="44.51694501635805" lon="10.699660667587718"><ele>346.0</ele><time>2026-04-04T13:45:56Z</time></trkpt><trkpt lat="44.516885814697936" lon="10.69969140438765"><ele>346.66666666666663</ele><time>2026-04-04T13:45:58Z</time></trkpt><trkpt lat="44.516824432922256" lon="10.699714471572772"><ele>347.3333333333333</ele><time>2026-04-04T13:46:00Z</time></trkpt><trkpt lat="44.5167352700817" lon="10.699731805792801"><ele>348.0</ele><time>2026-04-04T13:46:03Z</time></trkpt><trkpt lat="44.51666190331285" lon="10.699745824457612"><ele>348.6666666666667</ele><time>2026-04-04T13:46:05Z</time></trkpt><trkpt lat="44.51656620378262" lon="10.69975066801837"><ele>349.33333333333337</ele><time>2026-04-04T13:46:07Z</time></trkpt><trkpt lat="44.51646806801874" lon="10.699731838566745"><ele>350.0</ele><time>2026-04-04T13:46:09Z</time></trkpt><trkpt lat="44.51637244100408" lon="10.699672904416902"><ele>350.0</ele><time>2026-04-04T13:46:11Z</time></trkpt><trkpt lat="44.51628480618515" lon="10.699609102480078"><ele>350.0</ele><time>2026-04-04T13:46:13Z</time></trkpt><trkpt lat="44.516203806463324" lon="10.69954202843675"><ele>350.0</ele><time>2026-04-04T13:46:15Z</time></trkpt><trkpt lat="44.51612183246983" lon="10.699468353855767"><ele>350.0</ele><time>2026-04-04T13:46:17Z</time></trkpt><trkpt lat="44.51604568036176" lon="10.69936496323068"><ele>350.0</ele><time>2026-04-04T13:46:19Z</time></trkpt><trkpt lat="44.515965834031746" lon="10.699250684891565"><ele>350.0</ele><time>2026-04-04T13:46:21Z</time></trkpt><trkpt lat="44.51588164738023" lon="10.699134839886533"><ele>350.0</ele><time>2026-04-04T13:46:23Z</time></trkpt><trkpt lat="44.515799358816096" lon="10.699014901626853"><ele>350.0</ele><time>2026-04-04T13:46:25Z</time></trkpt><trkpt lat="44.51571422706566" lon="10.69889239763615"><ele>350.0</ele><time>2026-04-04T13:46:27Z</time></trkpt><trkpt lat="44.51566508782132" lon="10.69883671778883"><ele>350.0</ele><time>2026-04-04T13:46:28Z</time></trkpt><trkpt lat="44.5155622008332" lon="10.698741700931677"><ele>350.0</ele><time>2026-04-04T13:46:30Z</time></trkpt><trkpt lat="44.5154544307525" lon="10.698677359223005"><ele>350.0</ele><time>2026-04-04T13:46:32Z</time></trkpt><trkpt lat="44.51535054388025" lon="10.698630203673192"><ele>350.0</ele><time>2026-04-04T13:46:34Z</time></trkpt><trkpt lat="44.515253324626265" lon="10.698573022050123"><ele>350.0</ele><time>2026-04-04T13:46:36Z</time></trkpt><trkpt lat="44.51515626249607" lon="10.698494135439146"><ele>350.0</ele><time>2026-04-04T13:46:38Z</time></trkpt><trkpt lat="44.515100989571835" lon="10.698444393543562"><ele>350.2857142857143</ele><time>2026-04-04T13:46:39Z</time></trkpt><trkpt lat="44.515044861586816" lon="10.69839047934912"><ele>350.57142857142856</ele><time>2026-04-04T13:46:40Z</time></trkpt><trkpt lat="44.5149873799971" lon="10.698338015036507"><ele>350.8571428571429</ele><time>2026-04-04T13:46:41Z</time></trkpt><trkpt lat="44.51492681414949" lon="10.69829280662078"><ele>351.1428571428571</ele><time>2026-04-04T13:46:42Z</time></trkpt><trkpt lat="44.51486674506399" lon="10.698244225941405"><ele>351.42857142857144</ele><time>2026-04-04T13:46:43Z</time></trkpt><trkpt lat="44.5148103572489" lon="10.698192750850096"><ele>351.7142857142857</ele><time>2026-04-04T13:46:44Z</time></trkpt><trkpt lat="44.51475712545992" lon="10.698129439311804"><ele>352.0</ele><time>2026-04-04T13:46:45Z</time></trkpt><trkpt lat="44.51470994194495" lon="10.698067791951564"><ele>352.0</ele><time>2026-04-04T13:46:46Z</time></trkpt><trkpt lat="44.51466298032963" lon="10.697998645841947"><ele>352.0</ele><time>2026-04-04T13:46:47Z</time></trkpt><trkpt lat="44.514616447102675" lon="10.697928789510842"><ele>352.0</ele><time>2026-04-04T13:46:48Z</time></trkpt><trkpt lat="44.51457600150078" lon="10.697845427982449"><ele>352.0</ele><time>2026-04-04T13:46:49Z</time></trkpt><trkpt lat="44.51454179240539" lon="10.697751505574454"><ele>352.0</ele><time>2026-04-04T13:46:50Z</time></trkpt><trkpt lat="44.51450552155015" lon="10.697671463317727"><ele>352.0</ele><time>2026-04-04T13:46:51Z</time></trkpt><trkpt lat="44.51445820838864" lon="10.697604314205318"><ele>352.0</ele><time>2026-04-04T13:46:52Z</time></trkpt><trkpt lat="44.51440409772345" lon="10.697545156460476"><ele>350.25</ele><time>2026-04-04T13:46:53Z</time></trkpt><trkpt lat="44.514302722756085" lon="10.697456415231619"><ele>348.5</ele><time>2026-04-04T13:46:55Z</time></trkpt><trkpt lat="44.514206257526865" lon="10.697372898415269"><ele>346.75</ele><time>2026-04-04T13:46:57Z</time></trkpt><trkpt lat="44.51410323030702" lon="10.697293933876733"><ele>345.0</ele><time>2026-04-04T13:46:59Z</time></trkpt><trkpt lat="44.51398806534903" lon="10.697227868641939"><ele>345.0</ele><time>2026-04-04T13:47:01Z</time></trkpt><trkpt lat="44.51392548598247" lon="10.697205556983926"><ele>345.0</ele><time>2026-04-04T13:47:02Z</time></trkpt><trkpt lat="44.513858198631745" lon="10.697190128345355"><ele>345.0</ele><time>2026-04-04T13:47:03Z</time></trkpt><trkpt lat="44.513790461185" lon="10.697182521312401"><ele>345.0</ele><time>2026-04-04T13:47:04Z</time></trkpt><trkpt lat="44.513724034800575" lon="10.697178381962487"><ele>345.0</ele><time>2026-04-04T13:47:05Z</time></trkpt><trkpt lat="44.51366074641446" lon="10.697166552313053"><ele>345.0</ele><time>2026-04-04T13:47:06Z</time></trkpt><trkpt lat="44.51359771080964" lon="10.697156510049714"><ele>345.0</ele><time>2026-04-04T13:47:07Z</time></trkpt><trkpt lat="44.51347837731889" lon="10.697107411441566"><ele>344.0</ele><time>2026-04-04T13:47:09Z</time></trkpt><trkpt lat="44.513360062865566" lon="10.697052890116414"><ele>343.0</ele><time>2026-04-04T13:47:11Z</time></trkpt><trkpt lat="44.513300207508316" lon="10.697024436169091"><ele>342.0</ele><time>2026-04-04T13:47:12Z</time></trkpt><trkpt lat="44.51317889415598" lon="10.696984750873181"><ele>341.0</ele><time>2026-04-04T13:47:14Z</time></trkpt><trkpt lat="44.51305836937064" lon="10.696958015928777"><ele>340.0</ele><time>2026-04-04T13:47:16Z</time></trkpt><trkpt lat="44.51299425330132" lon="10.696948999367706"><ele>340.0</ele><time>2026-04-04T13:47:17Z</time></trkpt><trkpt lat="44.51292934059695" lon="10.696945582420815"><ele>340.0</ele><time>2026-04-04T13:47:18Z</time></trkpt><trkpt lat="44.51286509379771" lon="10.696944056846549"><ele>340.0</ele><time>2026-04-04T13:47:19Z</time></trkpt><trkpt lat="44.51280099407637" lon="10.696946894557962"><ele>340.0</ele><time>2026-04-04T13:47:20Z</time></trkpt><trkpt lat="44.51268337951058" lon="10.696960489576796"><ele>340.0</ele><time>2026-04-04T13:47:22Z</time></trkpt><trkpt lat="44.51257130317297" lon="10.6969611821912"><ele>340.0</ele><time>2026-04-04T13:47:24Z</time></trkpt><trkpt lat="44.51246282641708" lon="10.696958585067184"><ele>339.5</ele><time>2026-04-04T13:47:26Z</time></trkpt><trkpt lat="44.512355125560205" lon="10.696938147353144"><ele>339.0</ele><time>2026-04-04T13:47:28Z</time></trkpt><trkpt lat="44.51223653486749" lon="10.696906797735048"><ele>338.5</ele><time>2026-04-04T13:47:30Z</time></trkpt><trkpt lat="44.51212495318064" lon="10.696868309258342"><ele>338.0</ele><time>2026-04-04T13:47:32Z</time></trkpt><trkpt lat="44.51203058867103" lon="10.696801361184885"><ele>339.59999999999997</ele><time>2026-04-04T13:47:34Z</time></trkpt><trkpt lat="44.51193168468408" lon="10.696712038389766"><ele>341.2</ele><time>2026-04-04T13:47:36Z</time></trkpt><trkpt lat="44.51187810404995" lon="10.696659391598706"><ele>342.8</ele><time>2026-04-04T13:47:37Z</time></trkpt><trkpt lat="44.5118230670146" lon="10.696610631012437"><ele>344.4</ele><time>2026-04-04T13:47:38Z</time></trkpt><trkpt lat="44.51171748028708" lon="10.696518992891834"><ele>346.0</ele><time>2026-04-04T13:47:40Z</time></trkpt><trkpt lat="44.511613360983596" lon="10.696446317041724"><ele>346.0</ele><time>2026-04-04T13:47:42Z</time></trkpt><trkpt lat="44.51150850489864" lon="10.696394555498665"><ele>346.0</ele><time>2026-04-04T13:47:44Z</time></trkpt><trkpt lat="44.5114013602435" lon="10.696355221654075"><ele>346.0</ele><time>2026-04-04T13:47:46Z</time></trkpt><trkpt lat="44.511302007324396" lon="10.696324014876566"><ele>346.0</ele><time>2026-04-04T13:47:48Z</time></trkpt><trkpt lat="44.51121049142167" lon="10.696281903223966"><ele>346.0</ele><time>2026-04-04T13:47:50Z</time></trkpt><trkpt lat="44.51112190914118" lon="10.696232304725202"><ele>345.0</ele><time>2026-04-04T13:47:52Z</time></trkpt><trkpt lat="44.51103453744788" lon="10.696192389493907"><ele>344.0</ele><time>2026-04-04T13:47:54Z</time></trkpt><trkpt lat="44.51096525276925" lon="10.696141429372233"><ele>343.0</ele><time>2026-04-04T13:47:56Z</time></trkpt><trkpt lat="44.51090814135466" lon="10.69608948761414"><ele>342.0</ele><time>2026-04-04T13:47:58Z</time></trkpt><trkpt lat="44.51085218431968" lon="10.696037281412993"><ele>341.0</ele><time>2026-04-04T13:48:00Z</time></trkpt><trkpt lat="44.51079109098718" lon="10.695944306322932"><ele>340.0</ele><time>2026-04-04T13:48:03Z</time></trkpt><trkpt lat="44.510748231669325" lon="10.695869585884756"><ele>342.4</ele><time>2026-04-04T13:48:05Z</time></trkpt><trkpt lat="44.51068761274386" lon="10.695788512137504"><ele>344.8</ele><time>2026-04-04T13:48:07Z</time></trkpt><trkpt lat="44.510619562551916" lon="10.695716079882201"><ele>347.20000000000005</ele><time>2026-04-04T13:48:09Z</time></trkpt><trkpt lat="44.510546539791" lon="10.695637366857355"><ele>349.6</ele><time>2026-04-04T13:48:11Z</time></trkpt><trkpt lat="44.510469172309854" lon="10.69555385580012"><ele>352.0</ele><time>2026-04-04T13:48:13Z</time></trkpt><trkpt lat="44.5103913527033" lon="10.69547046327265"><ele>352.0</ele><time>2026-04-04T13:48:15Z</time></trkpt><trkpt lat="44.510311781365196" lon="10.695389915590166"><ele>352.0</ele><time>2026-04-04T13:48:17Z</time></trkpt><trkpt lat="44.510233424604195" lon="10.695305637099644"><ele>352.0</ele><time>2026-04-04T13:48:19Z</time></trkpt><trkpt lat="44.510155173220305" lon="10.69522788802332"><ele>352.0</ele><time>2026-04-04T13:48:21Z</time></trkpt><trkpt lat="44.51007656788822" lon="10.695157374522118"><ele>352.0</ele><time>2026-04-04T13:48:23Z</time></trkpt><trkpt lat="44.51001090252731" lon="10.695087764104933"><ele>353.2857142857143</ele><time>2026-04-04T13:48:25Z</time></trkpt><trkpt lat="44.509948058001314" lon="10.695026383062606"><ele>354.57142857142856</ele><time>2026-04-04T13:48:27Z</time></trkpt><trkpt lat="44.509901923718665" lon="10.694951993061954"><ele>355.8571428571429</ele><time>2026-04-04T13:48:29Z</time></trkpt><trkpt lat="44.50987777516782" lon="10.694863450336978"><ele>357.1428571428571</ele><time>2026-04-04T13:48:31Z</time></trkpt><trkpt lat="44.509876580415664" lon="10.694773310186621"><ele>358.4285714285714</ele><time>2026-04-04T13:48:33Z</time></trkpt><trkpt lat="44.50989253333626" lon="10.694658661353374"><ele>359.7142857142857</ele><time>2026-04-04T13:48:36Z</time></trkpt><trkpt lat="44.50990982797664" lon="10.694548194256148"><ele>361.0</ele><time>2026-04-04T13:48:39Z</time></trkpt><trkpt lat="44.509900976357734" lon="10.694420825751086"><ele>361.3333333333333</ele><time>2026-04-04T13:48:42Z</time></trkpt><trkpt lat="44.5098911424586" lon="10.694305194400922"><ele>361.66666666666663</ele><time>2026-04-04T13:48:45Z</time></trkpt><trkpt lat="44.509847480952544" lon="10.69421138995548"><ele>362.0</ele><time>2026-04-04T13:48:48Z</time></trkpt><trkpt lat="44.509762628238065" lon="10.694198496847255"><ele>362.3333333333333</ele><time>2026-04-04T13:48:51Z</time></trkpt><trkpt lat="44.50968983496534" lon="10.694272064704553"><ele>362.6666666666667</ele><time>2026-04-04T13:48:54Z</time></trkpt><trkpt lat="44.50962545652088" lon="10.694350073146099"><ele>363.0</ele><time>2026-04-04T13:48:57Z</time></trkpt><trkpt lat="44.50956949688247" lon="10.694452753923546"><ele>366.0</ele><time>2026-04-04T13:49:00Z</time></trkpt><trkpt lat="44.50953008507097" lon="10.694523505936207"><ele>369.0</ele><time>2026-04-04T13:49:02Z</time></trkpt><trkpt lat="44.509474013186086" lon="10.694617727312686"><ele>372.0</ele><time>2026-04-04T13:49:05Z</time></trkpt><trkpt lat="44.50943376560011" lon="10.694726840831642"><ele>375.0</ele><time>2026-04-04T13:49:08Z</time></trkpt><trkpt lat="44.50939494268997" lon="10.694842785499615"><ele>378.0</ele><time>2026-04-04T13:49:11Z</time></trkpt><trkpt lat="44.50936069102789" lon="10.694964352182716"><ele>381.0</ele><time>2026-04-04T13:49:14Z</time></trkpt><trkpt lat="44.50931678283722" lon="10.695078007124767"><ele>381.0</ele><time>2026-04-04T13:49:17Z</time></trkpt><trkpt lat="44.50925324207356" lon="10.695169393088284"><ele>381.0</ele><time>2026-04-04T13:49:20Z</time></trkpt><trkpt lat="44.50916917459066" lon="10.695184400796865"><ele>381.0</ele><time>2026-04-04T13:49:23Z</time></trkpt><trkpt lat="44.509108107354706" lon="10.695120365656768"><ele>381.0</ele><time>2026-04-04T13:49:26Z</time></trkpt><trkpt lat="44.50905403337433" lon="10.695035054083398"><ele>381.0</ele><time>2026-04-04T13:49:29Z</time></trkpt><trkpt lat="44.50898621298229" lon="10.694968138997458"><ele>381.0</ele><time>2026-04-04T13:49:32Z</time></trkpt><trkpt lat="44.50890191537103" lon="10.69494190978705"><ele>381.0</ele><time>2026-04-04T13:49:35Z</time></trkpt><trkpt lat="44.508821961875" lon="10.694924298479238"><ele>381.0</ele><time>2026-04-04T13:49:38Z</time></trkpt><trkpt lat="44.508743171736896" lon="10.694907562371776"><ele>381.0</ele><time>2026-04-04T13:49:41Z</time></trkpt><trkpt lat="44.50866674218032" lon="10.694869623965616"><ele>381.0</ele><time>2026-04-04T13:49:44Z</time></trkpt><trkpt lat="44.50858640958413" lon="10.69482407573559"><ele>381.0</ele><time>2026-04-04T13:49:47Z</time></trkpt><trkpt lat="44.508508050195" lon="10.694790627460147"><ele>381.0</ele><time>2026-04-04T13:49:50Z</time></trkpt><trkpt lat="44.50842674442375" lon="10.694772682397446"><ele>382.8333333333333</ele><time>2026-04-04T13:49:53Z</time></trkpt><trkpt lat="44.508339737151466" lon="10.694773589662166"><ele>384.66666666666663</ele><time>2026-04-04T13:49:56Z</time></trkpt><trkpt lat="44.508252109450225" lon="10.694790856382463"><ele>386.5</ele><time>2026-04-04T13:49:59Z</time></trkpt><trkpt lat="44.50816845983638" lon="10.694799897220495"><ele>388.3333333333333</ele><time>2026-04-04T13:50:02Z</time></trkpt><trkpt lat="44.5080831206357" lon="10.694795326611363"><ele>390.16666666666663</ele><time>2026-04-04T13:50:05Z</time></trkpt><trkpt lat="44.50800963063166" lon="10.694753623234865"><ele>392.0</ele><time>2026-04-04T13:50:08Z</time></trkpt><trkpt lat="44.50794623461514" lon="10.694678444763131"><ele>392.16666666666663</ele><time>2026-04-04T13:50:11Z</time></trkpt><trkpt lat="44.507896915864414" lon="10.694585253721261"><ele>392.3333333333333</ele><time>2026-04-04T13:50:14Z</time></trkpt><trkpt lat="44.50784822899149" lon="10.69449327847453"><ele>392.5</ele><time>2026-04-04T13:50:17Z</time></trkpt><trkpt lat="44.507784603943946" lon="10.694409692270785"><ele>392.66666666666663</ele><time>2026-04-04T13:50:20Z</time></trkpt><trkpt lat="44.50772570180925" lon="10.69436936103286"><ele>392.8333333333333</ele><time>2026-04-04T13:50:22Z</time></trkpt><trkpt lat="44.50766462891928" lon="10.69432511935496"><ele>393.0</ele><time>2026-04-04T13:50:24Z</time></trkpt><trkpt lat="44.507592052131" lon="10.694288279480029"><ele>394.6666666666667</ele><time>2026-04-04T13:50:26Z</time></trkpt><trkpt lat="44.50752228712004" lon="10.694278518841633"><ele>396.33333333333337</ele><time>2026-04-04T13:50:28Z</time></trkpt><trkpt lat="44.5074506388064" lon="10.694282207829332"><ele>398.0</ele><time>2026-04-04T13:50:30Z</time></trkpt><trkpt lat="44.50738076801359" lon="10.69429447716563"><ele>399.6666666666667</ele><time>2026-04-04T13:50:32Z</time></trkpt><trkpt lat="44.507318858466185" lon="10.69431616446818"><ele>401.33333333333337</ele><time>2026-04-04T13:50:34Z</time></trkpt><trkpt lat="44.5072291597939" lon="10.694339926706983"><ele>403.0</ele><time>2026-04-04T13:50:37Z</time></trkpt><trkpt lat="44.507137812730704" lon="10.694339110610013"><ele>403.14285714285717</ele><time>2026-04-04T13:50:40Z</time></trkpt><trkpt lat="44.507070051020136" lon="10.694317511547029"><ele>403.2857142857143</ele><time>2026-04-04T13:50:42Z</time></trkpt><trkpt lat="44.50700819744295" lon="10.694293735848252"><ele>403.42857142857144</ele><time>2026-04-04T13:50:44Z</time></trkpt><trkpt lat="44.50691726323653" lon="10.694284811179143"><ele>403.57142857142856</ele><time>2026-04-04T13:50:47Z</time></trkpt><trkpt lat="44.506849786931234" lon="10.6943078201393"><ele>403.71428571428567</ele><time>2026-04-04T13:50:49Z</time></trkpt><trkpt lat="44.50678850830846" lon="10.694342713975468"><ele>403.85714285714283</ele><time>2026-04-04T13:50:51Z</time></trkpt><trkpt lat="44.50671058023715" lon="10.694397996494496"><ele>404.0</ele><time>2026-04-04T13:50:54Z</time></trkpt><trkpt lat="44.50663350786534" lon="10.694450907083809"><ele>403.99999999999994</ele><time>2026-04-04T13:50:57Z</time></trkpt><trkpt lat="44.506562413994274" lon="10.694509420247378"><ele>404.0</ele><time>2026-04-04T13:51:00Z</time></trkpt><trkpt lat="44.50650021403245" lon="10.694597781393279"><ele>404.0</ele><time>2026-04-04T13:51:03Z</time></trkpt><trkpt lat="44.50642722123916" lon="10.69465101519315"><ele>404.0</ele><time>2026-04-04T13:51:06Z</time></trkpt><trkpt lat="44.50635870525738" lon="10.694681717856488"><ele>403.99999999999994</ele><time>2026-04-04T13:51:09Z</time></trkpt><trkpt lat="44.50628761874765" lon="10.694691563547384"><ele>404.0</ele><time>2026-04-04T13:51:13Z</time></trkpt><trkpt lat="44.50626974241711" lon="10.694806184944174"><ele>403.99999999999994</ele><time>2026-04-04T13:51:18Z</time></trkpt><trkpt lat="44.5062830358112" lon="10.69492442407688"><ele>404.0</ele><time>2026-04-04T13:51:20Z</time></trkpt><trkpt lat="44.50627879262867" lon="10.695042822380863"><ele>404.0</ele><time>2026-04-04T13:51:22Z</time></trkpt><trkpt lat="44.50626917651094" lon="10.695154925429705"><ele>404.0</ele><time>2026-04-04T13:51:24Z</time></trkpt><trkpt lat="44.50626806023333" lon="10.69525524940937"><ele>403.99999999999994</ele><time>2026-04-04T13:51:26Z</time></trkpt><trkpt lat="44.50626572820051" lon="10.695382199832316"><ele>404.0</ele><time>2026-04-04T13:51:29Z</time></trkpt><trkpt lat="44.50625480076005" lon="10.695473436717219"><ele>400.99999999999994</ele><time>2026-04-04T13:51:31Z</time></trkpt><trkpt lat="44.50623855796716" lon="10.695576283399335"><ele>398.0</ele><time>2026-04-04T13:51:33Z</time></trkpt><trkpt lat="44.50620790598951" lon="10.695670905145532"><ele>395.0</ele><time>2026-04-04T13:51:35Z</time></trkpt><trkpt lat="44.50618732486691" lon="10.695784836221426"><ele>392.0</ele><time>2026-04-04T13:51:37Z</time></trkpt><trkpt lat="44.50617110213153" lon="10.695904510528054"><ele>388.99999999999994</ele><time>2026-04-04T13:51:39Z</time></trkpt><trkpt lat="44.50615808837584" lon="10.696049204833178"><ele>386.0</ele><time>2026-04-04T13:51:41Z</time></trkpt><trkpt lat="44.50614313631262" lon="10.696190406233093"><ele>385.49999999999994</ele><time>2026-04-04T13:51:43Z</time></trkpt><trkpt lat="44.506145552229256" lon="10.696333009713044"><ele>385.0</ele><time>2026-04-04T13:51:45Z</time></trkpt><trkpt lat="44.50614841050799" lon="10.69642359424547"><ele>384.5</ele><time>2026-04-04T13:51:46Z</time></trkpt><trkpt lat="44.50616316827644" lon="10.69652430676601"><ele>384.0</ele><time>2026-04-04T13:51:47Z</time></trkpt><trkpt lat="44.506162801210735" lon="10.696624523628428"><ele>383.5</ele><time>2026-04-04T13:51:48Z</time></trkpt><trkpt lat="44.50615200289759" lon="10.696726598476305"><ele>383.0</ele><time>2026-04-04T13:51:49Z</time></trkpt><trkpt lat="44.506143255738884" lon="10.69682434315612"><ele>383.6666666666667</ele><time>2026-04-04T13:51:50Z</time></trkpt><trkpt lat="44.50614358854793" lon="10.696925032523287"><ele>384.33333333333337</ele><time>2026-04-04T13:51:51Z</time></trkpt><trkpt lat="44.506148220698854" lon="10.697019727806275"><ele>385.0</ele><time>2026-04-04T13:51:52Z</time></trkpt><trkpt lat="44.50614870627564" lon="10.697116464352186"><ele>385.6666666666667</ele><time>2026-04-04T13:51:53Z</time></trkpt><trkpt lat="44.50614949274104" lon="10.697211002107478"><ele>386.3333333333333</ele><time>2026-04-04T13:51:54Z</time></trkpt><trkpt lat="44.50617478437002" lon="10.69737158743412"><ele>387.0</ele><time>2026-04-04T13:51:56Z</time></trkpt><trkpt lat="44.50618458627692" lon="10.697503351442128"><ele>387.0</ele><time>2026-04-04T13:51:58Z</time></trkpt><trkpt lat="44.50616654460593" lon="10.697615986013895"><ele>387.0</ele><time>2026-04-04T13:52:00Z</time></trkpt><trkpt lat="44.50615007630978" lon="10.697737750582206"><ele>387.0</ele><time>2026-04-04T13:52:02Z</time></trkpt><trkpt lat="44.50612924483569" lon="10.697843741343283"><ele>387.0</ele><time>2026-04-04T13:52:04Z</time></trkpt><trkpt lat="44.506100645375916" lon="10.697961945391222"><ele>387.0</ele><time>2026-04-04T13:52:06Z</time></trkpt><trkpt lat="44.5060727815387" lon="10.698070312500063"><ele>387.0</ele><time>2026-04-04T13:52:08Z</time></trkpt><trkpt lat="44.506046712184215" lon="10.6981680799668"><ele>388.2857142857143</ele><time>2026-04-04T13:52:10Z</time></trkpt><trkpt lat="44.506019154268515" lon="10.698249914702885"><ele>389.57142857142856</ele><time>2026-04-04T13:52:12Z</time></trkpt><trkpt lat="44.50599135288766" lon="10.698357012169904"><ele>390.8571428571429</ele><time>2026-04-04T13:52:15Z</time></trkpt><trkpt lat="44.5059636762703" lon="10.698464123615613"><ele>392.1428571428571</ele><time>2026-04-04T13:52:18Z</time></trkpt><trkpt lat="44.50593710855064" lon="10.698552918321269"><ele>393.4285714285714</ele><time>2026-04-04T13:52:21Z</time></trkpt><trkpt lat="44.505913742263054" lon="10.698661578552098"><ele>394.7142857142857</ele><time>2026-04-04T13:52:24Z</time></trkpt><trkpt lat="44.50588940055969" lon="10.698748383550665"><ele>396.0</ele><time>2026-04-04T13:52:26Z</time></trkpt><trkpt lat="44.505858336342804" lon="10.698860732319856"><ele>396.0</ele><time>2026-04-04T13:52:28Z</time></trkpt><trkpt lat="44.505815949388506" lon="10.699021674372261"><ele>396.0</ele><time>2026-04-04T13:52:30Z</time></trkpt><trkpt lat="44.50578105978294" lon="10.69911244045095"><ele>396.0</ele><time>2026-04-04T13:52:31Z</time></trkpt><trkpt lat="44.505749761987424" lon="10.699196440427269"><ele>396.0</ele><time>2026-04-04T13:52:32Z</time></trkpt><trkpt lat="44.50571101168237" lon="10.69928203214005"><ele>396.0</ele><time>2026-04-04T13:52:33Z</time></trkpt><trkpt lat="44.50567668434511" lon="10.69935683090224"><ele>396.0</ele><time>2026-04-04T13:52:34Z</time></trkpt><trkpt lat="44.50561946751516" lon="10.699484078931551"><ele>396.8333333333333</ele><time>2026-04-04T13:52:36Z</time></trkpt><trkpt lat="44.50557038311356" lon="10.699591838462915"><ele>397.66666666666663</ele><time>2026-04-04T13:52:38Z</time></trkpt><trkpt lat="44.50552501921458" lon="10.699708154797401"><ele>398.5</ele><time>2026-04-04T13:52:40Z</time></trkpt><trkpt lat="44.505488464427124" lon="10.69981087693218"><ele>399.3333333333333</ele><time>2026-04-04T13:52:42Z</time></trkpt><trkpt lat="44.5054627830769" lon="10.699912727455317"><ele>400.16666666666663</ele><time>2026-04-04T13:52:44Z</time></trkpt><trkpt lat="44.50546429910492" lon="10.700026562407585"><ele>401.0</ele><time>2026-04-04T13:52:48Z</time></trkpt><trkpt lat="44.505475680708464" lon="10.70013004388287"><ele>400.99999999999994</ele><time>2026-04-04T13:52:50Z</time></trkpt><trkpt lat="44.505484788750096" lon="10.700220277503062"><ele>401.0</ele><time>2026-04-04T13:52:51Z</time></trkpt><trkpt lat="44.50548911190735" lon="10.70031764166413"><ele>401.0</ele><time>2026-04-04T13:52:52Z</time></trkpt><trkpt lat="44.50551772988444" lon="10.700460789213247"><ele>401.0</ele><time>2026-04-04T13:52:54Z</time></trkpt><trkpt lat="44.505546072726915" lon="10.700545400005328"><ele>400.99999999999994</ele><time>2026-04-04T13:52:55Z</time></trkpt><trkpt lat="44.50558600237092" lon="10.700704192716788"><ele>401.0</ele><time>2026-04-04T13:52:57Z</time></trkpt><trkpt lat="44.50562740432268" lon="10.700802930449049"><ele>400.66666666666663</ele><time>2026-04-04T13:52:59Z</time></trkpt><trkpt lat="44.50569065797129" lon="10.70088801762248"><ele>400.3333333333333</ele><time>2026-04-04T13:53:02Z</time></trkpt><trkpt lat="44.505788388347064" lon="10.70092333378622"><ele>400.0</ele><time>2026-04-04T13:53:04Z</time></trkpt><trkpt lat="44.50585642275242" lon="10.700945422974781"><ele>399.66666666666663</ele><time>2026-04-04T13:53:05Z</time></trkpt><trkpt lat="44.50591492691454" lon="10.701013607722945"><ele>399.3333333333333</ele><time>2026-04-04T13:53:06Z</time></trkpt><trkpt lat="44.50594195430411" lon="10.701096157323498"><ele>399.0</ele><time>2026-04-04T13:53:07Z</time></trkpt><trkpt lat="44.50595620913724" lon="10.70118498271398"><ele>396.5</ele><time>2026-04-04T13:53:08Z</time></trkpt><trkpt lat="44.50598421456399" lon="10.701295793047898"><ele>394.0</ele><time>2026-04-04T13:53:09Z</time></trkpt><trkpt lat="44.505997428146884" lon="10.701390577035333"><ele>391.5</ele><time>2026-04-04T13:53:10Z</time></trkpt><trkpt lat="44.506019287453974" lon="10.701475813130646"><ele>389.0</ele><time>2026-04-04T13:53:11Z</time></trkpt><trkpt lat="44.506021960150164" lon="10.701584162952054"><ele>386.5</ele><time>2026-04-04T13:53:12Z</time></trkpt><trkpt lat="44.50602333119156" lon="10.701691473972131"><ele>384.0</ele><time>2026-04-04T13:53:13Z</time></trkpt><trkpt lat="44.50601003375392" lon="10.701851291853712"><ele>383.1666666666667</ele><time>2026-04-04T13:53:15Z</time></trkpt><trkpt lat="44.505994177379506" lon="10.701993913975299"><ele>382.3333333333333</ele><time>2026-04-04T13:53:17Z</time></trkpt><trkpt lat="44.50600792098362" lon="10.702108525137488"><ele>381.5</ele><time>2026-04-04T13:53:19Z</time></trkpt><trkpt lat="44.5060335898706" lon="10.70220387510763"><ele>380.66666666666663</ele><time>2026-04-04T13:53:21Z</time></trkpt><trkpt lat="44.50605941880756" lon="10.702308283252504"><ele>379.8333333333333</ele><time>2026-04-04T13:53:23Z</time></trkpt><trkpt lat="44.50607647391998" lon="10.702426030065435"><ele>379.0</ele><time>2026-04-04T13:53:25Z</time></trkpt><trkpt lat="44.506084478496135" lon="10.702536927048971"><ele>379.0</ele><time>2026-04-04T13:53:27Z</time></trkpt><trkpt lat="44.506103677692025" lon="10.702641447518102"><ele>379.0</ele><time>2026-04-04T13:53:29Z</time></trkpt><trkpt lat="44.50611795346363" lon="10.70273978125723"><ele>379.0</ele><time>2026-04-04T13:53:31Z</time></trkpt><trkpt lat="44.50612925747999" lon="10.702842929763168"><ele>379.0</ele><time>2026-04-04T13:53:33Z</time></trkpt><trkpt lat="44.506155805145234" lon="10.702974959994329"><ele>379.0</ele><time>2026-04-04T13:53:36Z</time></trkpt><trkpt lat="44.50616881582376" lon="10.70308608713693"><ele>379.0</ele><time>2026-04-04T13:53:39Z</time></trkpt><trkpt lat="44.506188625949875" lon="10.703196959232473"><ele>379.5</ele><time>2026-04-04T13:53:42Z</time></trkpt><trkpt lat="44.50620124041376" lon="10.703308212660861"><ele>380.0</ele><time>2026-04-04T13:53:45Z</time></trkpt><trkpt lat="44.50621953792694" lon="10.703400061112063"><ele>380.5</ele><time>2026-04-04T13:53:48Z</time></trkpt><trkpt lat="44.506231169478205" lon="10.703511046301996"><ele>381.0</ele><time>2026-04-04T13:53:51Z</time></trkpt><trkpt lat="44.506244654548986" lon="10.70360805109013"><ele>381.5</ele><time>2026-04-04T13:53:54Z</time></trkpt><trkpt lat="44.50623615074632" lon="10.703714420929787"><ele>382.0</ele><time>2026-04-04T13:53:58Z</time></trkpt><trkpt lat="44.50621242300174" lon="10.703825680386561"><ele>382.66666666666663</ele><time>2026-04-04T13:54:01Z</time></trkpt><trkpt lat="44.50618808862743" lon="10.703948461107744"><ele>383.3333333333333</ele><time>2026-04-04T13:54:04Z</time></trkpt><trkpt lat="44.50616846952907" lon="10.70407186780687"><ele>384.0</ele><time>2026-04-04T13:54:07Z</time></trkpt><trkpt lat="44.50614937207442" lon="10.704171896572987"><ele>384.66666666666663</ele><time>2026-04-04T13:54:10Z</time></trkpt><trkpt lat="44.50616308240519" lon="10.704274478874162"><ele>385.3333333333333</ele><time>2026-04-04T13:54:14Z</time></trkpt><trkpt lat="44.5062128209688" lon="10.70434114364319"><ele>386.0</ele><time>2026-04-04T13:54:17Z</time></trkpt><trkpt lat="44.50629142874727" lon="10.7043835691983"><ele>384.8</ele><time>2026-04-04T13:54:20Z</time></trkpt><trkpt lat="44.50636835019497" lon="10.704448593499547"><ele>383.6</ele><time>2026-04-04T13:54:22Z</time></trkpt><trkpt lat="44.50644457542416" lon="10.704509220127589"><ele>382.4</ele><time>2026-04-04T13:54:24Z</time></trkpt><trkpt lat="44.50651853558414" lon="10.704560805816232"><ele>381.2</ele><time>2026-04-04T13:54:26Z</time></trkpt><trkpt lat="44.506614807842325" lon="10.704637553490908"><ele>380.0</ele><time>2026-04-04T13:54:28Z</time></trkpt><trkpt lat="44.506712973136" lon="10.704709651921716"><ele>380.0</ele><time>2026-04-04T13:54:30Z</time></trkpt><trkpt lat="44.50679680389518" lon="10.704777853098028"><ele>380.0</ele><time>2026-04-04T13:54:32Z</time></trkpt><trkpt lat="44.506882257724676" lon="10.704841804747169"><ele>380.0</ele><time>2026-04-04T13:54:34Z</time></trkpt><trkpt lat="44.5069900888502" lon="10.704896025097348"><ele>380.0</ele><time>2026-04-04T13:54:36Z</time></trkpt><trkpt lat="44.50707711177158" lon="10.704933948794903"><ele>380.0</ele><time>2026-04-04T13:54:38Z</time></trkpt><trkpt lat="44.50715473270246" lon="10.70496279508799"><ele>377.6666666666667</ele><time>2026-04-04T13:54:40Z</time></trkpt><trkpt lat="44.507233364592246" lon="10.704975869903874"><ele>375.33333333333337</ele><time>2026-04-04T13:54:42Z</time></trkpt><trkpt lat="44.507317106209584" lon="10.704980041321843"><ele>373.0</ele><time>2026-04-04T13:54:44Z</time></trkpt><trkpt lat="44.50738932674489" lon="10.704980113027895"><ele>370.6666666666667</ele><time>2026-04-04T13:54:46Z</time></trkpt><trkpt lat="44.50745375518048" lon="10.704968842424647"><ele>368.3333333333333</ele><time>2026-04-04T13:54:48Z</time></trkpt><trkpt lat="44.50754125197535" lon="10.704940454308264"><ele>366.0</ele><time>2026-04-04T13:54:51Z</time></trkpt><trkpt lat="44.50760534278628" lon="10.704960904217762"><ele>366.0</ele><time>2026-04-04T13:54:53Z</time></trkpt><trkpt lat="44.50767150077383" lon="10.705010414454176"><ele>366.0</ele><time>2026-04-04T13:54:55Z</time></trkpt><trkpt lat="44.507717854029806" lon="10.70509264881993"><ele>366.0</ele><time>2026-04-04T13:54:57Z</time></trkpt><trkpt lat="44.50775213709063" lon="10.705217321872555"><ele>366.0</ele><time>2026-04-04T13:55:00Z</time></trkpt><trkpt lat="44.50778344243202" lon="10.70530652385889"><ele>366.0</ele><time>2026-04-04T13:55:02Z</time></trkpt><trkpt lat="44.50783607217185" lon="10.705429436882737"><ele>366.0</ele><time>2026-04-04T13:55:04Z</time></trkpt><trkpt lat="44.50788800481132" lon="10.705532213391557"><ele>362.6666666666667</ele><time>2026-04-04T13:55:06Z</time></trkpt><trkpt lat="44.50792990588279" lon="10.705637705755338"><ele>359.3333333333333</ele><time>2026-04-04T13:55:08Z</time></trkpt><trkpt lat="44.50798181878165" lon="10.705766647412116"><ele>356.0</ele><time>2026-04-04T13:55:10Z</time></trkpt><trkpt lat="44.50799990981244" lon="10.705860706999935"><ele>352.66666666666663</ele><time>2026-04-04T13:55:13Z</time></trkpt><trkpt lat="44.50800496193811" lon="10.705965437262737"><ele>349.3333333333333</ele><time>2026-04-04T13:55:16Z</time></trkpt><trkpt lat="44.508060281983916" lon="10.706071705639408"><ele>346.0</ele><time>2026-04-04T13:55:18Z</time></trkpt><trkpt lat="44.50815537374019" lon="10.706153895337689"><ele>345.4</ele><time>2026-04-04T13:55:20Z</time></trkpt><trkpt lat="44.50821456283056" lon="10.706185544145535"><ele>344.8</ele><time>2026-04-04T13:55:21Z</time></trkpt><trkpt lat="44.508323886226165" lon="10.70625629121383"><ele>344.2</ele><time>2026-04-04T13:55:23Z</time></trkpt><trkpt lat="44.50841891900198" lon="10.706323918490893"><ele>343.59999999999997</ele><time>2026-04-04T13:55:25Z</time></trkpt><trkpt lat="44.50851438893485" lon="10.706380242665713"><ele>343.0</ele><time>2026-04-04T13:55:27Z</time></trkpt><trkpt lat="44.50862055592058" lon="10.706433928908911"><ele>343.0</ele><time>2026-04-04T13:55:29Z</time></trkpt><trkpt lat="44.50873969786623" lon="10.706502707973753"><ele>343.0</ele><time>2026-04-04T13:55:31Z</time></trkpt><trkpt lat="44.5088484280612" lon="10.706564755174677"><ele>343.0</ele><time>2026-04-04T13:55:33Z</time></trkpt><trkpt lat="44.50893411266771" lon="10.706614974409252"><ele>343.0</ele><time>2026-04-04T13:55:35Z</time></trkpt><trkpt lat="44.50902952119334" lon="10.706670798582692"><ele>343.0</ele><time>2026-04-04T13:55:37Z</time></trkpt><trkpt lat="44.50912873897814" lon="10.70675273510038"><ele>340.8333333333333</ele><time>2026-04-04T13:55:39Z</time></trkpt><trkpt lat="44.509181275772576" lon="10.706811733308939"><ele>338.66666666666663</ele><time>2026-04-04T13:55:40Z</time></trkpt><trkpt lat="44.50924319814592" lon="10.70687082575101"><ele>336.5</ele><time>2026-04-04T13:55:41Z</time></trkpt><trkpt lat="44.50931137830721" lon="10.706935397567866"><ele>334.3333333333333</ele><time>2026-04-04T13:55:42Z</time></trkpt><trkpt lat="44.50938273451769" lon="10.70699948805033"><ele>332.1666666666667</ele><time>2026-04-04T13:55:43Z</time></trkpt><trkpt lat="44.50945728199032" lon="10.707071860901777"><ele>330.0</ele><time>2026-04-04T13:55:44Z</time></trkpt><trkpt lat="44.50952928869994" lon="10.707146763332753"><ele>327.8</ele><time>2026-04-04T13:55:45Z</time></trkpt><trkpt lat="44.50958630263213" lon="10.707206831089255"><ele>325.6</ele><time>2026-04-04T13:55:46Z</time></trkpt><trkpt lat="44.50968360747468" lon="10.70730373480413"><ele>323.4</ele><time>2026-04-04T13:55:48Z</time></trkpt><trkpt lat="44.509771849308706" lon="10.70739930201714"><ele>321.2</ele><time>2026-04-04T13:55:50Z</time></trkpt><trkpt lat="44.50984680933267" lon="10.707488250942427"><ele>319.0</ele><time>2026-04-04T13:55:52Z</time></trkpt><trkpt lat="44.50993715884316" lon="10.70757987516745"><ele>319.0</ele><time>2026-04-04T13:55:54Z</time></trkpt><trkpt lat="44.510038912312986" lon="10.707681465716766"><ele>319.0</ele><time>2026-04-04T13:55:56Z</time></trkpt><trkpt lat="44.510093426766296" lon="10.70773805200426"><ele>319.0</ele><time>2026-04-04T13:55:57Z</time></trkpt><trkpt lat="44.51014305131079" lon="10.707792625734893"><ele>319.0</ele><time>2026-04-04T13:55:58Z</time></trkpt><trkpt lat="44.510232892087544" lon="10.707890655062476"><ele>319.0</ele><time>2026-04-04T13:56:00Z</time></trkpt><trkpt lat="44.510303138371455" lon="10.707964793593117"><ele>318.0</ele><time>2026-04-04T13:56:02Z</time></trkpt><trkpt lat="44.51036838332287" lon="10.708033974400728"><ele>317.0</ele><time>2026-04-04T13:56:04Z</time></trkpt><trkpt lat="44.51043781865834" lon="10.708103739487967"><ele>316.0</ele><time>2026-04-04T13:56:06Z</time></trkpt><trkpt lat="44.51051001208559" lon="10.708174431543066"><ele>315.0</ele><time>2026-04-04T13:56:08Z</time></trkpt><trkpt lat="44.510580771123024" lon="10.708240993443475"><ele>314.0</ele><time>2026-04-04T13:56:10Z</time></trkpt><trkpt lat="44.51065103930837" lon="10.70833473233589"><ele>313.0</ele><time>2026-04-04T13:56:12Z</time></trkpt><trkpt lat="44.51074867400349" lon="10.708429351607386"><ele>312.5</ele><time>2026-04-04T13:56:14Z</time></trkpt><trkpt lat="44.51079549886892" lon="10.708495540735656"><ele>312.0</ele><time>2026-04-04T13:56:15Z</time></trkpt><trkpt lat="44.51084654168098" lon="10.708568847271627"><ele>311.5</ele><time>2026-04-04T13:56:16Z</time></trkpt><trkpt lat="44.51090033211012" lon="10.708650586381886"><ele>311.0</ele><time>2026-04-04T13:56:17Z</time></trkpt><trkpt lat="44.51095677150623" lon="10.708731810379133"><ele>310.5</ele><time>2026-04-04T13:56:18Z</time></trkpt><trkpt lat="44.511010066281294" lon="10.70881366893737"><ele>310.0</ele><time>2026-04-04T13:56:19Z</time></trkpt><trkpt lat="44.51106137823914" lon="10.708900725899845"><ele>308.6</ele><time>2026-04-04T13:56:20Z</time></trkpt><trkpt lat="44.511111645312454" lon="10.709003494852874"><ele>307.2</ele><time>2026-04-04T13:56:21Z</time></trkpt><trkpt lat="44.51115044581621" lon="10.709127066087287"><ele>305.8</ele><time>2026-04-04T13:56:22Z</time></trkpt><trkpt lat="44.51118434720606" lon="10.709258541246468"><ele>304.4</ele><time>2026-04-04T13:56:23Z</time></trkpt><trkpt lat="44.51121625507684" lon="10.709390315439236"><ele>303.0</ele><time>2026-04-04T13:56:24Z</time></trkpt><trkpt lat="44.5112384744434" lon="10.709528713520239"><ele>302.0</ele><time>2026-04-04T13:56:25Z</time></trkpt><trkpt lat="44.5112560884179" lon="10.709667187720243"><ele>301.0</ele><time>2026-04-04T13:56:26Z</time></trkpt><trkpt lat="44.51127274308147" lon="10.709804297100971"><ele>300.0</ele><time>2026-04-04T13:56:27Z</time></trkpt><trkpt lat="44.511287484637855" lon="10.70994381201361"><ele>299.0</ele><time>2026-04-04T13:56:28Z</time></trkpt><trkpt lat="44.51130429302698" lon="10.71008618984286"><ele>298.0</ele><time>2026-04-04T13:56:29Z</time></trkpt><trkpt lat="44.511322605910884" lon="10.710229548780118"><ele>297.8</ele><time>2026-04-04T13:56:30Z</time></trkpt><trkpt lat="44.51134073988357" lon="10.710374576824726"><ele>297.6</ele><time>2026-04-04T13:56:31Z</time></trkpt><trkpt lat="44.511365247719326" lon="10.710523712029325"><ele>297.4</ele><time>2026-04-04T13:56:32Z</time></trkpt><trkpt lat="44.511394647273015" lon="10.710675893398804"><ele>297.2</ele><time>2026-04-04T13:56:33Z</time></trkpt><trkpt lat="44.51141957005971" lon="10.710828661034578"><ele>297.0</ele><time>2026-04-04T13:56:34Z</time></trkpt><trkpt lat="44.51144991179651" lon="10.710984613587343"><ele>296.0</ele><time>2026-04-04T13:56:35Z</time></trkpt><trkpt lat="44.51148631481383" lon="10.711132113959147"><ele>295.0</ele><time>2026-04-04T13:56:36Z</time></trkpt><trkpt lat="44.511521706621835" lon="10.71128251774902"><ele>294.0</ele><time>2026-04-04T13:56:37Z</time></trkpt><trkpt lat="44.51155176002339" lon="10.711425612410544"><ele>293.0</ele><time>2026-04-04T13:56:38Z</time></trkpt><trkpt lat="44.511578695065616" lon="10.711565495316327"><ele>292.0</ele><time>2026-04-04T13:56:39Z</time></trkpt><trkpt lat="44.51160499402515" lon="10.711698406720263"><ele>292.0</ele><time>2026-04-04T13:56:40Z</time></trkpt><trkpt lat="44.51162822551789" lon="10.711824417069748"><ele>292.0</ele><time>2026-04-04T13:56:41Z</time></trkpt><trkpt lat="44.51165613115834" lon="10.711947889705737"><ele>292.0</ele><time>2026-04-04T13:56:42Z</time></trkpt><trkpt lat="44.51167968987038" lon="10.712069028643528"><ele>292.0</ele><time>2026-04-04T13:56:43Z</time></trkpt><trkpt lat="44.51170537197175" lon="10.712182431613943"><ele>292.0</ele><time>2026-04-04T13:56:44Z</time></trkpt><trkpt lat="44.5117266218762" lon="10.71229398954387"><ele>292.0</ele><time>2026-04-04T13:56:45Z</time></trkpt><trkpt lat="44.5117466158658" lon="10.712393130741042"><ele>291.42857142857144</ele><time>2026-04-04T13:56:46Z</time></trkpt><trkpt lat="44.51176627930887" lon="10.712495550201211"><ele>290.8571428571429</ele><time>2026-04-04T13:56:47Z</time></trkpt><trkpt lat="44.511783802615675" lon="10.712588287801996"><ele>290.28571428571433</ele><time>2026-04-04T13:56:48Z</time></trkpt><trkpt lat="44.511803063812756" lon="10.712685061373975"><ele>289.7142857142857</ele><time>2026-04-04T13:56:49Z</time></trkpt><trkpt lat="44.51182288244918" lon="10.712780944144997"><ele>289.14285714285717</ele><time>2026-04-04T13:56:50Z</time></trkpt><trkpt lat="44.51184451038187" lon="10.712875560663765"><ele>288.5714285714286</ele><time>2026-04-04T13:56:51Z</time></trkpt><trkpt lat="44.51186754263193" lon="10.71296552426221"><ele>288.0</ele><time>2026-04-04T13:56:52Z</time></trkpt><trkpt lat="44.51189488228258" lon="10.713049373851918"><ele>286.5</ele><time>2026-04-04T13:56:52.999Z</time></trkpt><trkpt lat="44.51192188136502" lon="10.713140855452114"><ele>285.0</ele><time>2026-04-04T13:56:53.999Z</time></trkpt><trkpt lat="44.51193672254145" lon="10.71324068891868"><ele>283.5</ele><time>2026-04-04T13:56:54.999Z</time></trkpt><trkpt lat="44.51192817695519" lon="10.71334986116533"><ele>282.0</ele><time>2026-04-04T13:56:55.999Z</time></trkpt><trkpt lat="44.51188966134779" lon="10.713458728890332"><ele>280.5</ele><time>2026-04-04T13:56:56.999Z</time></trkpt><trkpt lat="44.51184915036177" lon="10.713559560687381"><ele>279.0</ele><time>2026-04-04T13:56:57.999Z</time></trkpt><trkpt lat="44.51183056970995" lon="10.713674173183882"><ele>277.8</ele><time>2026-04-04T13:56:58.999Z</time></trkpt><trkpt lat="44.511824816172705" lon="10.713807927010638"><ele>276.59999999999997</ele><time>2026-04-04T13:56:59.999Z</time></trkpt><trkpt lat="44.5118122915604" lon="10.713949345043034"><ele>275.4</ele><time>2026-04-04T13:57:00.999Z</time></trkpt><trkpt lat="44.5118026459487" lon="10.71410213260042"><ele>274.2</ele><time>2026-04-04T13:57:01.999Z</time></trkpt><trkpt lat="44.51178912994707" lon="10.71425414177237"><ele>273.0</ele><time>2026-04-04T13:57:02.999Z</time></trkpt><trkpt lat="44.51177404983335" lon="10.714407374039054"><ele>271.8</ele><time>2026-04-04T13:57:03.999Z</time></trkpt><trkpt lat="44.51175841156478" lon="10.714558036546194"><ele>270.6</ele><time>2026-04-04T13:57:04.999Z</time></trkpt><trkpt lat="44.511745906452674" lon="10.714701112522782"><ele>269.4</ele><time>2026-04-04T13:57:05.999Z</time></trkpt><trkpt lat="44.51173776465722" lon="10.71483749152428"><ele>268.2</ele><time>2026-04-04T13:57:06.999Z</time></trkpt><trkpt lat="44.51174820796313" lon="10.71497478051867"><ele>267.0</ele><time>2026-04-04T13:57:07.999Z</time></trkpt><trkpt lat="44.51177145202802" lon="10.71510702437392"><ele>267.0</ele><time>2026-04-04T13:57:08.999Z</time></trkpt><trkpt lat="44.511812182419156" lon="10.715229464453502"><ele>267.0</ele><time>2026-04-04T13:57:09.999Z</time></trkpt><trkpt lat="44.5118784773957" lon="10.715336162092363"><ele>267.0</ele><time>2026-04-04T13:57:10.999Z</time></trkpt><trkpt lat="44.51196495479376" lon="10.715428847338483"><ele>267.0</ele><time>2026-04-04T13:57:11.999Z</time></trkpt><trkpt lat="44.51205145950034" lon="10.715508549678844"><ele>267.0</ele><time>2026-04-04T13:57:12.999Z</time></trkpt><trkpt lat="44.51212221411766" lon="10.715586923903903"><ele>267.6</ele><time>2026-04-04T13:57:13.999Z</time></trkpt><trkpt lat="44.512179631639796" lon="10.715679102612404"><ele>268.2</ele><time>2026-04-04T13:57:14.999Z</time></trkpt><trkpt lat="44.51220910798586" lon="10.715796863501168"><ele>268.8</ele><time>2026-04-04T13:57:15.999Z</time></trkpt><trkpt lat="44.512201913959956" lon="10.715925556690676"><ele>269.4</ele><time>2026-04-04T13:57:16.999Z</time></trkpt><trkpt lat="44.51215356837414" lon="10.716053144532314"><ele>270.0</ele><time>2026-04-04T13:57:17.999Z</time></trkpt><trkpt lat="44.51209491960636" lon="10.716169255075885"><ele>266.2</ele><time>2026-04-04T13:57:18.999Z</time></trkpt><trkpt lat="44.512049147563566" lon="10.716282743995372"><ele>262.4</ele><time>2026-04-04T13:57:19.999Z</time></trkpt><trkpt lat="44.5120047338439" lon="10.716406213764142"><ele>258.6</ele><time>2026-04-04T13:57:20.999Z</time></trkpt><trkpt lat="44.51196480651778" lon="10.71653294905935"><ele>254.8</ele><time>2026-04-04T13:57:21.999Z</time></trkpt><trkpt lat="44.511922847186334" lon="10.716653264353452"><ele>251.0</ele><time>2026-04-04T13:57:22.999Z</time></trkpt><trkpt lat="44.51186890907872" lon="10.716750065000685"><ele>251.0</ele><time>2026-04-04T13:57:23.999Z</time></trkpt><trkpt lat="44.511819482804874" lon="10.716836465648328"><ele>251.00000000000003</ele><time>2026-04-04T13:57:24.999Z</time></trkpt><trkpt lat="44.51177930944797" lon="10.716912647087085"><ele>251.00000000000003</ele><time>2026-04-04T13:57:25.999Z</time></trkpt><trkpt lat="44.51171817794308" lon="10.71704475661424"><ele>251.0</ele><time>2026-04-04T13:57:27.999Z</time></trkpt><trkpt lat="44.511666455850055" lon="10.717177316303996"><ele>251.0</ele><time>2026-04-04T13:57:29.999Z</time></trkpt><trkpt lat="44.51161712030796" lon="10.717310235899948"><ele>251.8</ele><time>2026-04-04T13:57:31.999Z</time></trkpt><trkpt lat="44.51157391111467" lon="10.71743833363882"><ele>252.60000000000002</ele><time>2026-04-04T13:57:33.999Z</time></trkpt><trkpt lat="44.51153118146561" lon="10.71757573221932"><ele>253.4</ele><time>2026-04-04T13:57:35.999Z</time></trkpt><trkpt lat="44.51149488044322" lon="10.717717517706285"><ele>254.2</ele><time>2026-04-04T13:57:37.999Z</time></trkpt><trkpt lat="44.511470327537836" lon="10.717861500659694"><ele>255.0</ele><time>2026-04-04T13:57:39.999Z</time></trkpt><trkpt lat="44.511457272656344" lon="10.718007390566965"><ele>255.8</ele><time>2026-04-04T13:57:41.999Z</time></trkpt><trkpt lat="44.51146392152859" lon="10.718146798130222"><ele>256.6</ele><time>2026-04-04T13:57:43.999Z</time></trkpt><trkpt lat="44.51149583839905" lon="10.718281916087443"><ele>257.4</ele><time>2026-04-04T13:57:45.999Z</time></trkpt><trkpt lat="44.51156856001439" lon="10.718423834681554"><ele>258.2</ele><time>2026-04-04T13:57:47.999Z</time></trkpt><trkpt lat="44.511640563945406" lon="10.71855977837311"><ele>259.0</ele><time>2026-04-04T13:57:49.999Z</time></trkpt><trkpt lat="44.51171268776032" lon="10.718689545071411"><ele>257.0</ele><time>2026-04-04T13:57:51.999Z</time></trkpt><trkpt lat="44.51179546485054" lon="10.718827239573974"><ele>254.99999999999997</ele><time>2026-04-04T13:57:53.999Z</time></trkpt><trkpt lat="44.511839811433276" lon="10.718904648250325"><ele>252.99999999999997</ele><time>2026-04-04T13:57:54.999Z</time></trkpt><trkpt lat="44.511881643174334" lon="10.718980082322076"><ele>251.0</ele><time>2026-04-04T13:57:55.999Z</time></trkpt><trkpt lat="44.51194860564674" lon="10.719107265193097"><ele>249.0</ele><time>2026-04-04T13:57:57.999Z</time></trkpt><trkpt lat="44.51198050546393" lon="10.719203001619887"><ele>249.0</ele><time>2026-04-04T13:57:59.999Z</time></trkpt><trkpt lat="44.512035878558045" lon="10.719287305015847"><ele>249.0</ele><time>2026-04-04T13:58:01.999Z</time></trkpt><trkpt lat="44.512111066875" lon="10.719400090332641"><ele>249.0</ele><time>2026-04-04T13:58:03.999Z</time></trkpt><trkpt lat="44.51215126191427" lon="10.719482187784681"><ele>249.0</ele><time>2026-04-04T13:58:04.999Z</time></trkpt><trkpt lat="44.512200090067516" lon="10.7195664952068"><ele>249.0</ele><time>2026-04-04T13:58:05.999Z</time></trkpt><trkpt lat="44.51225463579264" lon="10.7196595810715"><ele>249.0</ele><time>2026-04-04T13:58:06.999Z</time></trkpt><trkpt lat="44.512314470980776" lon="10.719761618295639"><ele>247.79999999999998</ele><time>2026-04-04T13:58:07.999Z</time></trkpt><trkpt lat="44.512373687016584" lon="10.719867036114689"><ele>246.59999999999997</ele><time>2026-04-04T13:58:08.999Z</time></trkpt><trkpt lat="44.51243514809445" lon="10.719974896866237"><ele>245.4</ele><time>2026-04-04T13:58:09.999Z</time></trkpt><trkpt lat="44.51249643787072" lon="10.720081606902333"><ele>244.2</ele><time>2026-04-04T13:58:10.999Z</time></trkpt><trkpt lat="44.51256102006452" lon="10.720193807009927"><ele>243.0</ele><time>2026-04-04T13:58:11.999Z</time></trkpt><trkpt lat="44.512627377435386" lon="10.720302737485389"><ele>240.8</ele><time>2026-04-04T13:58:12.999Z</time></trkpt><trkpt lat="44.51268764839026" lon="10.720404269287929"><ele>238.60000000000002</ele><time>2026-04-04T13:58:13.999Z</time></trkpt><trkpt lat="44.51274233703507" lon="10.720513672871432"><ele>236.39999999999998</ele><time>2026-04-04T13:58:14.999Z</time></trkpt><trkpt lat="44.51280121625141" lon="10.720624532464477"><ele>234.2</ele><time>2026-04-04T13:58:15.999Z</time></trkpt><trkpt lat="44.51285774027294" lon="10.720722108493355"><ele>232.0</ele><time>2026-04-04T13:58:16.999Z</time></trkpt><trkpt lat="44.5129104077578" lon="10.720808672666521"><ele>231.83333333333331</ele><time>2026-04-04T13:58:17.999Z</time></trkpt><trkpt lat="44.51295695777937" lon="10.720880461377025"><ele>231.66666666666666</ele><time>2026-04-04T13:58:18.999Z</time></trkpt><trkpt lat="44.513003072078554" lon="10.720947629334422"><ele>231.5</ele><time>2026-04-04T13:58:19.999Z</time></trkpt><trkpt lat="44.51305346261918" lon="10.721013612076842"><ele>231.33333333333331</ele><time>2026-04-04T13:58:20.999Z</time></trkpt><trkpt lat="44.51316080662714" lon="10.721094562663676"><ele>231.16666666666666</ele><time>2026-04-04T13:58:22.999Z</time></trkpt><trkpt lat="44.51321709669305" lon="10.72113522416014"><ele>231.0</ele><time>2026-04-04T13:58:23.999Z</time></trkpt><trkpt lat="44.51330226708891" lon="10.721206355558474"><ele>229.33333333333334</ele><time>2026-04-04T13:58:25.999Z</time></trkpt><trkpt lat="44.51332354591173" lon="10.721312374414557"><ele>227.66666666666669</ele><time>2026-04-04T13:58:27.999Z</time></trkpt><trkpt lat="44.51322771830357" lon="10.721397739777286"><ele>226.0</ele><time>2026-04-04T13:58:29.999Z</time></trkpt><trkpt lat="44.51314344873927" lon="10.72140853158356"><ele>224.33333333333334</ele><time>2026-04-04T13:58:30.999Z</time></trkpt><trkpt lat="44.51306476502464" lon="10.721411623244936"><ele>222.66666666666669</ele><time>2026-04-04T13:58:31.999Z</time></trkpt><trkpt lat="44.512975653719735" lon="10.721401355492642"><ele>221.0</ele><time>2026-04-04T13:58:32.999Z</time></trkpt><trkpt lat="44.51288271784814" lon="10.721391916568027"><ele>219.66666666666669</ele><time>2026-04-04T13:58:33.999Z</time></trkpt><trkpt lat="44.51279148083166" lon="10.721388457058735"><ele>218.33333333333334</ele><time>2026-04-04T13:58:34.999Z</time></trkpt><trkpt lat="44.512708385193214" lon="10.721394776693229"><ele>217.0</ele><time>2026-04-04T13:58:35.999Z</time></trkpt><trkpt lat="44.51263286963455" lon="10.721410614873566"><ele>215.66666666666669</ele><time>2026-04-04T13:58:36.999Z</time></trkpt><trkpt lat="44.51255727679817" lon="10.721432783996883"><ele>214.33333333333334</ele><time>2026-04-04T13:58:37.999Z</time></trkpt><trkpt lat="44.51247662924242" lon="10.721457616818894"><ele>213.0</ele><time>2026-04-04T13:58:38.999Z</time></trkpt><trkpt lat="44.51241374245766" lon="10.721481357424848"><ele>213.0</ele><time>2026-04-04T13:58:39.999Z</time></trkpt><trkpt lat="44.51234177786445" lon="10.721599594155245"><ele>213.0</ele><time>2026-04-04T13:58:41.999Z</time></trkpt><trkpt lat="44.51238563576857" lon="10.721752238329055"><ele>213.0</ele><time>2026-04-04T13:58:43.999Z</time></trkpt><trkpt lat="44.51244121983202" lon="10.721822910995067"><ele>213.0</ele><time>2026-04-04T13:58:44.999Z</time></trkpt><trkpt lat="44.51249315781208" lon="10.721892308179275"><ele>213.0</ele><time>2026-04-04T13:58:45.999Z</time></trkpt><trkpt lat="44.5125385253836" lon="10.721961381918874"><ele>213.0</ele><time>2026-04-04T13:58:46.999Z</time></trkpt><trkpt lat="44.512575145586794" lon="10.72211961465714"><ele>210.85714285714283</ele><time>2026-04-04T13:58:48.999Z</time></trkpt><trkpt lat="44.51255569958641" lon="10.722204972993346"><ele>208.71428571428572</ele><time>2026-04-04T13:58:49.999Z</time></trkpt><trkpt lat="44.51249746404928" lon="10.722274977557644"><ele>206.57142857142856</ele><time>2026-04-04T13:58:50.999Z</time></trkpt><trkpt lat="44.51242496630997" lon="10.722323412861591"><ele>204.42857142857142</ele><time>2026-04-04T13:58:51.999Z</time></trkpt><trkpt lat="44.51236390110224" lon="10.722374860421006"><ele>202.28571428571428</ele><time>2026-04-04T13:58:52.999Z</time></trkpt><trkpt lat="44.51231709767829" lon="10.722449614770825"><ele>200.14285714285714</ele><time>2026-04-04T13:58:53.999Z</time></trkpt><trkpt lat="44.51229366254589" lon="10.722547547688825"><ele>198.0</ele><time>2026-04-04T13:58:54.999Z</time></trkpt><trkpt lat="44.512302924620876" lon="10.72266405623402"><ele>195.66666666666666</ele><time>2026-04-04T13:58:55.999Z</time></trkpt><trkpt lat="44.512341619107545" lon="10.722781102302529"><ele>193.33333333333334</ele><time>2026-04-04T13:58:56.999Z</time></trkpt><trkpt lat="44.512397255016175" lon="10.722884645843827"><ele>191.0</ele><time>2026-04-04T13:58:57.999Z</time></trkpt><trkpt lat="44.512458204795635" lon="10.722984603067598"><ele>188.66666666666669</ele><time>2026-04-04T13:58:58.999Z</time></trkpt><trkpt lat="44.5125114159808" lon="10.723080493752628"><ele>186.33333333333334</ele><time>2026-04-04T13:58:59.999Z</time></trkpt><trkpt lat="44.51255273439225" lon="10.72316609520288"><ele>184.0</ele><time>2026-04-04T13:59:00.999Z</time></trkpt><trkpt lat="44.5125748598405" lon="10.72326202158328"><ele>184.0</ele><time>2026-04-04T13:59:01.999Z</time></trkpt><trkpt lat="44.51257523417938" lon="10.723377742961487"><ele>184.0</ele><time>2026-04-04T13:59:02.999Z</time></trkpt><trkpt lat="44.51255428003068" lon="10.723514460070735"><ele>184.0</ele><time>2026-04-04T13:59:03.999Z</time></trkpt><trkpt lat="44.512512186816735" lon="10.723645946678225"><ele>184.0</ele><time>2026-04-04T13:59:04.999Z</time></trkpt><trkpt lat="44.51244756233253" lon="10.723757458754847"><ele>184.0</ele><time>2026-04-04T13:59:05.999Z</time></trkpt><trkpt lat="44.51236898644748" lon="10.723849878983309"><ele>182.6</ele><time>2026-04-04T13:59:06.999Z</time></trkpt><trkpt lat="44.512272908364665" lon="10.723912261110426"><ele>181.2</ele><time>2026-04-04T13:59:07.999Z</time></trkpt><trkpt lat="44.51218168372804" lon="10.723952971118909"><ele>179.79999999999998</ele><time>2026-04-04T13:59:08.999Z</time></trkpt><trkpt lat="44.512107220009604" lon="10.724000147661142"><ele>178.39999999999998</ele><time>2026-04-04T13:59:09.999Z</time></trkpt><trkpt lat="44.51204643461588" lon="10.724041933744296"><ele>177.0</ele><time>2026-04-04T13:59:10.999Z</time></trkpt><trkpt lat="44.51194592551114" lon="10.724109337681398"><ele>177.0</ele><time>2026-04-04T13:59:12.999Z</time></trkpt><trkpt lat="44.51185753454565" lon="10.72417064140524"><ele>177.0</ele><time>2026-04-04T13:59:14.999Z</time></trkpt><trkpt lat="44.511758455221695" lon="10.724230292159808"><ele>177.0</ele><time>2026-04-04T13:59:16.999Z</time></trkpt><trkpt lat="44.511649585096144" lon="10.724312842699115"><ele>177.0</ele><time>2026-04-04T13:59:18.999Z</time></trkpt><trkpt lat="44.511530266061854" lon="10.72435846636885"><ele>177.0</ele><time>2026-04-04T13:59:20.999Z</time></trkpt><trkpt lat="44.51146598798958" lon="10.724351261896718"><ele>177.0</ele><time>2026-04-04T13:59:21.999Z</time></trkpt><trkpt lat="44.51140442650149" lon="10.72432260994698"><ele>177.0</ele><time>2026-04-04T13:59:22.999Z</time></trkpt><trkpt lat="44.51128886137402" lon="10.724261259264091"><ele>177.0</ele><time>2026-04-04T13:59:24.999Z</time></trkpt><trkpt lat="44.51116740494638" lon="10.724231130029546"><ele>177.0</ele><time>2026-04-04T13:59:26.999Z</time></trkpt><trkpt lat="44.51110444132313" lon="10.72423163370372"><ele>177.0</ele><time>2026-04-04T13:59:27.999Z</time></trkpt><trkpt lat="44.51104129914389" lon="10.724233472745373"><ele>177.0</ele><time>2026-04-04T13:59:28.999Z</time></trkpt><trkpt lat="44.510919165868486" lon="10.724235710872422"><ele>177.0</ele><time>2026-04-04T13:59:30.999Z</time></trkpt><trkpt lat="44.51079758100189" lon="10.72425080774409"><ele>177.0</ele><time>2026-04-04T13:59:32.999Z</time></trkpt><trkpt lat="44.510734399643496" lon="10.724265171175809"><ele>177.0</ele><time>2026-04-04T13:59:33.999Z</time></trkpt><trkpt lat="44.510674083934866" lon="10.72429159741315"><ele>177.0</ele><time>2026-04-04T13:59:34.999Z</time></trkpt><trkpt lat="44.51056132922188" lon="10.724367644976546"><ele>177.2</ele><time>2026-04-04T13:59:36.999Z</time></trkpt><trkpt lat="44.51050599029083" lon="10.724410224372185"><ele>177.39999999999998</ele><time>2026-04-04T13:59:37.999Z</time></trkpt><trkpt lat="44.510398386259276" lon="10.72450818970166"><ele>177.60000000000002</ele><time>2026-04-04T13:59:39.999Z</time></trkpt><trkpt lat="44.51029905179736" lon="10.724617688850216"><ele>177.8</ele><time>2026-04-04T13:59:41.999Z</time></trkpt><trkpt lat="44.5102014980408" lon="10.724726762588862"><ele>178.0</ele><time>2026-04-04T13:59:43.999Z</time></trkpt><trkpt lat="44.510107647952445" lon="10.724838045157437"><ele>178.0</ele><time>2026-04-04T13:59:45.999Z</time></trkpt><trkpt lat="44.51002224095879" lon="10.724959258427484"><ele>178.0</ele><time>2026-04-04T13:59:47.999Z</time></trkpt><trkpt lat="44.50992941282776" lon="10.725068264640852"><ele>178.0</ele><time>2026-04-04T13:59:49.999Z</time></trkpt><trkpt lat="44.509840212897444" lon="10.725176505303802"><ele>178.0</ele><time>2026-04-04T13:59:51.999Z</time></trkpt><trkpt lat="44.50975173493393" lon="10.725291561253353"><ele>179.0</ele><time>2026-04-04T13:59:53.999Z</time></trkpt><trkpt lat="44.509659457012155" lon="10.725405315524704"><ele>180.0</ele><time>2026-04-04T13:59:56Z</time></trkpt><trkpt lat="44.50956871248043" lon="10.72552045558614"><ele>181.0</ele><time>2026-04-04T13:59:58Z</time></trkpt><trkpt lat="44.509476646847475" lon="10.725638015352212"><ele>182.0</ele><time>2026-04-04T14:00:00Z</time></trkpt><trkpt lat="44.50938361995746" lon="10.725754195788308"><ele>182.0</ele><time>2026-04-04T14:00:02Z</time></trkpt><trkpt lat="44.509290872930855" lon="10.725869036890296"><ele>182.0</ele><time>2026-04-04T14:00:04Z</time></trkpt><trkpt lat="44.50919566991944" lon="10.72597423945878"><ele>182.0</ele><time>2026-04-04T14:00:06Z</time></trkpt><trkpt lat="44.50908905460058" lon="10.726054017746167"><ele>182.0</ele><time>2026-04-04T14:00:08Z</time></trkpt><trkpt lat="44.50897715184401" lon="10.726114680689921"><ele>181.16666666666666</ele><time>2026-04-04T14:00:10Z</time></trkpt><trkpt lat="44.50886334186199" lon="10.72616133296919"><ele>180.33333333333331</ele><time>2026-04-04T14:00:12Z</time></trkpt><trkpt lat="44.508742886277496" lon="10.72618872403056"><ele>179.5</ele><time>2026-04-04T14:00:14Z</time></trkpt><trkpt lat="44.50867911762084" lon="10.726197422785363"><ele>178.66666666666666</ele><time>2026-04-04T14:00:15Z</time></trkpt><trkpt lat="44.508615731554926" lon="10.726185244818268"><ele>177.83333333333334</ele><time>2026-04-04T14:00:16Z</time></trkpt><trkpt lat="44.50855154670781" lon="10.72617138619913"><ele>177.0</ele><time>2026-04-04T14:00:17Z</time></trkpt><trkpt lat="44.50848639200337" lon="10.726161598762832"><ele>176.39999999999998</ele><time>2026-04-04T14:00:18Z</time></trkpt><trkpt lat="44.508422141113606" lon="10.72615076252105"><ele>175.79999999999998</ele><time>2026-04-04T14:00:19Z</time></trkpt><trkpt lat="44.50836180905088" lon="10.726124559857373"><ele>175.2</ele><time>2026-04-04T14:00:20Z</time></trkpt><trkpt lat="44.508251075358814" lon="10.726057158563052"><ele>174.6</ele><time>2026-04-04T14:00:22Z</time></trkpt><trkpt lat="44.50814787854213" lon="10.72597001643385"><ele>174.0</ele><time>2026-04-04T14:00:24Z</time></trkpt><trkpt lat="44.50805148009924" lon="10.725882890398717"><ele>173.0</ele><time>2026-04-04T14:00:26Z</time></trkpt><trkpt lat="44.507963546523236" lon="10.725782844482797"><ele>172.0</ele><time>2026-04-04T14:00:28Z</time></trkpt><trkpt lat="44.50788373750194" lon="10.725677137913728"><ele>171.0</ele><time>2026-04-04T14:00:30Z</time></trkpt><trkpt lat="44.507799101738215" lon="10.725563754820886"><ele>170.0</ele><time>2026-04-04T14:00:32Z</time></trkpt><trkpt lat="44.50771327479316" lon="10.725444540799904"><ele>170.0</ele><time>2026-04-04T14:00:34Z</time></trkpt><trkpt lat="44.507631276406485" lon="10.725322798867003"><ele>170.0</ele><time>2026-04-04T14:00:36Z</time></trkpt><trkpt lat="44.50755121134934" lon="10.725183741418139"><ele>170.0</ele><time>2026-04-04T14:00:38Z</time></trkpt><trkpt lat="44.50751500074302" lon="10.725108605165342"><ele>170.0</ele><time>2026-04-04T14:00:39Z</time></trkpt><trkpt lat="44.50744823084569" lon="10.724959461727014"><ele>170.0</ele><time>2026-04-04T14:00:41Z</time></trkpt><trkpt lat="44.50741622730634" lon="10.72488150283239"><ele>170.71428571428572</ele><time>2026-04-04T14:00:42Z</time></trkpt><trkpt lat="44.507382789645206" lon="10.72480525134346"><ele>171.42857142857142</ele><time>2026-04-04T14:00:43Z</time></trkpt><trkpt lat="44.50735153213801" lon="10.724723194430014"><ele>172.14285714285714</ele><time>2026-04-04T14:00:44Z</time></trkpt><trkpt lat="44.50732257776292" lon="10.7246393912329"><ele>172.85714285714286</ele><time>2026-04-04T14:00:45Z</time></trkpt><trkpt lat="44.50729764622757" lon="10.724554577207579"><ele>173.57142857142856</ele><time>2026-04-04T14:00:46Z</time></trkpt><trkpt lat="44.50726833911809" lon="10.724470225071968"><ele>174.28571428571428</ele><time>2026-04-04T14:00:47Z</time></trkpt><trkpt lat="44.507241933049094" lon="10.724388118107276"><ele>175.0</ele><time>2026-04-04T14:00:48Z</time></trkpt><trkpt lat="44.5072185699316" lon="10.724302650059922"><ele>176.0</ele><time>2026-04-04T14:00:49Z</time></trkpt><trkpt lat="44.50718540949195" lon="10.724132294330575"><ele>177.0</ele><time>2026-04-04T14:00:51Z</time></trkpt><trkpt lat="44.5071681664145" lon="10.724045403317616"><ele>178.0</ele><time>2026-04-04T14:00:52Z</time></trkpt><trkpt lat="44.50715187437252" lon="10.723957224016576"><ele>179.0</ele><time>2026-04-04T14:00:53Z</time></trkpt><trkpt lat="44.50712484436401" lon="10.723786460242232"><ele>180.0</ele><time>2026-04-04T14:00:55Z</time></trkpt><trkpt lat="44.50711779484041" lon="10.723697021802629"><ele>181.0</ele><time>2026-04-04T14:00:56Z</time></trkpt><trkpt lat="44.50711109482331" lon="10.72360740357047"><ele>181.4</ele><time>2026-04-04T14:00:57Z</time></trkpt><trkpt lat="44.50709911550771" lon="10.723520498672345"><ele>181.8</ele><time>2026-04-04T14:00:58Z</time></trkpt><trkpt lat="44.507079580542076" lon="10.7233501670218"><ele>182.20000000000002</ele><time>2026-04-04T14:01:00Z</time></trkpt><trkpt lat="44.507078676560134" lon="10.723177737265688"><ele>182.60000000000002</ele><time>2026-04-04T14:01:02Z</time></trkpt><trkpt lat="44.507057590231526" lon="10.723020838633346"><ele>183.0</ele><time>2026-04-04T14:01:04Z</time></trkpt><trkpt lat="44.506980887586096" lon="10.72292903394674"><ele>182.33333333333334</ele><time>2026-04-04T14:01:06Z</time></trkpt><trkpt lat="44.50688465150426" lon="10.722949922573884"><ele>181.66666666666666</ele><time>2026-04-04T14:01:08Z</time></trkpt><trkpt lat="44.50683340233464" lon="10.723109343462852"><ele>181.0</ele><time>2026-04-04T14:01:10Z</time></trkpt><trkpt lat="44.50680579765271" lon="10.723194130529993"><ele>180.33333333333331</ele><time>2026-04-04T14:01:11Z</time></trkpt><trkpt lat="44.506769249254326" lon="10.723271156584607"><ele>179.66666666666666</ele><time>2026-04-04T14:01:12Z</time></trkpt><trkpt lat="44.506738977053324" lon="10.723357533107452"><ele>179.0</ele><time>2026-04-04T14:01:13Z</time></trkpt><trkpt lat="44.50672049830359" lon="10.72345062574296"><ele>179.0</ele><time>2026-04-04T14:01:14Z</time></trkpt><trkpt lat="44.50671367429627" lon="10.723554108026883"><ele>179.0</ele><time>2026-04-04T14:01:15Z</time></trkpt><trkpt lat="44.50671344360262" lon="10.723660842930256"><ele>179.0</ele><time>2026-04-04T14:01:16Z</time></trkpt><trkpt lat="44.506717172477934" lon="10.723769867391914"><ele>179.0</ele><time>2026-04-04T14:01:17Z</time></trkpt><trkpt lat="44.5067250820049" lon="10.723882288436307"><ele>179.0</ele><time>2026-04-04T14:01:18Z</time></trkpt><trkpt lat="44.50673762449014" lon="10.72399846577096"><ele>179.0</ele><time>2026-04-04T14:01:19Z</time></trkpt><trkpt lat="44.50674940153447" lon="10.724117875904735"><ele>178.16666666666666</ele><time>2026-04-04T14:01:20Z</time></trkpt><trkpt lat="44.506756260352816" lon="10.724242126745052"><ele>177.33333333333331</ele><time>2026-04-04T14:01:21Z</time></trkpt><trkpt lat="44.506764058484634" lon="10.724366521105946"><ele>176.5</ele><time>2026-04-04T14:01:22Z</time></trkpt><trkpt lat="44.50677762424585" lon="10.72449374351212"><ele>175.66666666666666</ele><time>2026-04-04T14:01:22.999Z</time></trkpt><trkpt lat="44.50679091082372" lon="10.724618222772172"><ele>174.83333333333334</ele><time>2026-04-04T14:01:23.999Z</time></trkpt><trkpt lat="44.50680521317122" lon="10.7247421240057"><ele>174.0</ele><time>2026-04-04T14:01:24.999Z</time></trkpt><trkpt lat="44.50681322852787" lon="10.724866980737872"><ele>173.16666666666666</ele><time>2026-04-04T14:01:25.999Z</time></trkpt><trkpt lat="44.506812355770556" lon="10.72498607912998"><ele>172.33333333333334</ele><time>2026-04-04T14:01:26.999Z</time></trkpt><trkpt lat="44.506801439588635" lon="10.725118162046448"><ele>171.5</ele><time>2026-04-04T14:01:27.999Z</time></trkpt><trkpt lat="44.5067879687171" lon="10.725225926797991"><ele>170.66666666666669</ele><time>2026-04-04T14:01:28.999Z</time></trkpt><trkpt lat="44.50677088722456" lon="10.725335825376987"><ele>169.83333333333334</ele><time>2026-04-04T14:01:29.999Z</time></trkpt><trkpt lat="44.50675122513083" lon="10.72544111863699"><ele>169.0</ele><time>2026-04-04T14:01:30.999Z</time></trkpt><trkpt lat="44.5067310294125" lon="10.725544537284666"><ele>168.5</ele><time>2026-04-04T14:01:31.999Z</time></trkpt><trkpt lat="44.506699151835555" lon="10.725640169651154"><ele>168.0</ele><time>2026-04-04T14:01:32.999Z</time></trkpt><trkpt lat="44.50667112651698" lon="10.72572876272542"><ele>167.5</ele><time>2026-04-04T14:01:33.999Z</time></trkpt><trkpt lat="44.50663638800114" lon="10.725804914723453"><ele>167.0</ele><time>2026-04-04T14:01:34.999Z</time></trkpt><trkpt lat="44.50658389766525" lon="10.72589321231044"><ele>166.5</ele><time>2026-04-04T14:01:36.999Z</time></trkpt><trkpt lat="44.5065002314211" lon="10.725969929176856"><ele>166.0</ele><time>2026-04-04T14:01:41.999Z</time></trkpt><trkpt lat="44.506400693741774" lon="10.72597633941258"><ele>166.0</ele><time>2026-04-04T14:01:43.999Z</time></trkpt><trkpt lat="44.506297040844494" lon="10.725944093990478"><ele>166.0</ele><time>2026-04-04T14:01:46Z</time></trkpt><trkpt lat="44.50619435400215" lon="10.725879500714244"><ele>166.0</ele><time>2026-04-04T14:01:48Z</time></trkpt><trkpt lat="44.50608378435157" lon="10.725817813980585"><ele>166.0</ele><time>2026-04-04T14:01:50Z</time></trkpt><trkpt lat="44.50596672497697" lon="10.72577014223958"><ele>165.83333333333334</ele><time>2026-04-04T14:01:52Z</time></trkpt><trkpt lat="44.50585932609533" lon="10.72583326829839"><ele>165.66666666666669</ele><time>2026-04-04T14:01:54Z</time></trkpt><trkpt lat="44.505793974520586" lon="10.725981707341838"><ele>165.5</ele><time>2026-04-04T14:01:56Z</time></trkpt><trkpt lat="44.50575589094915" lon="10.726054197070914"><ele>165.33333333333334</ele><time>2026-04-04T14:01:57Z</time></trkpt><trkpt lat="44.505710628246796" lon="10.726126218428151"><ele>165.16666666666666</ele><time>2026-04-04T14:01:58Z</time></trkpt><trkpt lat="44.505665354422376" lon="10.726200529685045"><ele>165.0</ele><time>2026-04-04T14:01:59Z</time></trkpt><trkpt lat="44.505623452813744" lon="10.726278784895626"><ele>164.85714285714286</ele><time>2026-04-04T14:02:00Z</time></trkpt><trkpt lat="44.50558068208917" lon="10.726362183453366"><ele>164.71428571428572</ele><time>2026-04-04T14:02:01Z</time></trkpt><trkpt lat="44.50553288269668" lon="10.726442184586265"><ele>164.57142857142856</ele><time>2026-04-04T14:02:02Z</time></trkpt><trkpt lat="44.505484571564146" lon="10.7265231112743"><ele>164.42857142857144</ele><time>2026-04-04T14:02:03Z</time></trkpt><trkpt lat="44.505436462714" lon="10.726604864751094"><ele>164.28571428571428</ele><time>2026-04-04T14:02:04Z</time></trkpt><trkpt lat="44.505391190729924" lon="10.726687607543445"><ele>164.14285714285714</ele><time>2026-04-04T14:02:05Z</time></trkpt><trkpt lat="44.5053376907865" lon="10.726758811969862"><ele>164.0</ele><time>2026-04-04T14:02:06Z</time></trkpt><trkpt lat="44.50528825297919" lon="10.726833589417106"><ele>163.0</ele><time>2026-04-04T14:02:07Z</time></trkpt><trkpt lat="44.50524824032325" lon="10.726919795300958"><ele>162.0</ele><time>2026-04-04T14:02:08Z</time></trkpt><trkpt lat="44.50520601848051" lon="10.727000758743971"><ele>161.0</ele><time>2026-04-04T14:02:09Z</time></trkpt><trkpt lat="44.505161569034314" lon="10.727075885143028"><ele>160.0</ele><time>2026-04-04T14:02:10Z</time></trkpt><trkpt lat="44.505111851892416" lon="10.72713941662871"><ele>159.0</ele><time>2026-04-04T14:02:11Z</time></trkpt><trkpt lat="44.50504997844368" lon="10.7271815850769"><ele>158.0</ele><time>2026-04-04T14:02:12Z</time></trkpt><trkpt lat="44.5049285363442" lon="10.727186377013293"><ele>158.0</ele><time>2026-04-04T14:02:14Z</time></trkpt><trkpt lat="44.5048667439109" lon="10.727203362383232"><ele>158.0</ele><time>2026-04-04T14:02:15Z</time></trkpt><trkpt lat="44.5047944456525" lon="10.727240629730677"><ele>158.0</ele><time>2026-04-04T14:02:18Z</time></trkpt><trkpt lat="44.50479725403685" lon="10.72736891194999"><ele>158.0</ele><time>2026-04-04T14:02:20Z</time></trkpt><trkpt lat="44.50486077575649" lon="10.727491670075548"><ele>158.0</ele><time>2026-04-04T14:02:22Z</time></trkpt><trkpt lat="44.50490472186242" lon="10.727643453559015"><ele>157.25</ele><time>2026-04-04T14:02:24Z</time></trkpt><trkpt lat="44.504957423291394" lon="10.727788033311361"><ele>156.5</ele><time>2026-04-04T14:02:26Z</time></trkpt><trkpt lat="44.505010753613035" lon="10.727946037824154"><ele>155.75</ele><time>2026-04-04T14:02:28Z</time></trkpt><trkpt lat="44.50505449714252" lon="10.728101792233751"><ele>155.0</ele><time>2026-04-04T14:02:30Z</time></trkpt><trkpt lat="44.50509750992872" lon="10.728245294971044"><ele>155.0</ele><time>2026-04-04T14:02:32Z</time></trkpt><trkpt lat="44.50509860226425" lon="10.728350522556603"><ele>155.0</ele><time>2026-04-04T14:02:35Z</time></trkpt><trkpt lat="44.50509725878653" lon="10.728467979064078"><ele>155.0</ele><time>2026-04-04T14:02:40Z</time></trkpt><trkpt lat="44.50506658119459" lon="10.72857170083731"><ele>155.0</ele><time>2026-04-04T14:02:42Z</time></trkpt><trkpt lat="44.50498069091521" lon="10.72867313557169"><ele>155.0</ele><time>2026-04-04T14:02:44Z</time></trkpt><trkpt lat="44.504897290613336" lon="10.728791546065832"><ele>154.66666666666666</ele><time>2026-04-04T14:02:46Z</time></trkpt><trkpt lat="44.504850189551654" lon="10.728851499621088"><ele>154.33333333333331</ele><time>2026-04-04T14:02:47Z</time></trkpt><trkpt lat="44.50479977862192" lon="10.728905889115651"><ele>154.0</ele><time>2026-04-04T14:02:48Z</time></trkpt><trkpt lat="44.50470305019396" lon="10.729014378128323"><ele>153.66666666666666</ele><time>2026-04-04T14:02:50Z</time></trkpt><trkpt lat="44.504653556445724" lon="10.72907130188498"><ele>153.33333333333334</ele><time>2026-04-04T14:02:51Z</time></trkpt><trkpt lat="44.50455653146216" lon="10.729181844660058"><ele>153.0</ele><time>2026-04-04T14:02:53Z</time></trkpt><trkpt lat="44.50446347912706" lon="10.729287372626633"><ele>151.75</ele><time>2026-04-04T14:02:55Z</time></trkpt><trkpt lat="44.50437097960176" lon="10.729393346703995"><ele>150.5</ele><time>2026-04-04T14:02:57Z</time></trkpt><trkpt lat="44.50428210228129" lon="10.72949427614553"><ele>149.25</ele><time>2026-04-04T14:02:59Z</time></trkpt><trkpt lat="44.50419372620485" lon="10.729595819778755"><ele>148.0</ele><time>2026-04-04T14:03:01Z</time></trkpt><trkpt lat="44.50411068185719" lon="10.72969049475886"><ele>148.0</ele><time>2026-04-04T14:03:03Z</time></trkpt><trkpt lat="44.50402755899184" lon="10.729777595662659"><ele>148.0</ele><time>2026-04-04T14:03:05Z</time></trkpt><trkpt lat="44.50394934339094" lon="10.729868834347206"><ele>148.0</ele><time>2026-04-04T14:03:07Z</time></trkpt><trkpt lat="44.503878144151464" lon="10.729955769051118"><ele>148.0</ele><time>2026-04-04T14:03:09Z</time></trkpt><trkpt lat="44.50379821256539" lon="10.730043773442562"><ele>148.0</ele><time>2026-04-04T14:03:11Z</time></trkpt><trkpt lat="44.50372214510205" lon="10.730137318014256"><ele>148.0</ele><time>2026-04-04T14:03:13Z</time></trkpt><trkpt lat="44.50364030732649" lon="10.730229120780157"><ele>148.0</ele><time>2026-04-04T14:03:15Z</time></trkpt><trkpt lat="44.50355950203692" lon="10.730321534506677"><ele>148.0</ele><time>2026-04-04T14:03:17Z</time></trkpt><trkpt lat="44.50348200234571" lon="10.730410888916355"><ele>148.0</ele><time>2026-04-04T14:03:19Z</time></trkpt><trkpt lat="44.50339789848923" lon="10.730510033340677"><ele>148.0</ele><time>2026-04-04T14:03:21Z</time></trkpt><trkpt lat="44.503314081996486" lon="10.730611850122969"><ele>148.0</ele><time>2026-04-04T14:03:23Z</time></trkpt><trkpt lat="44.50323440778532" lon="10.73069772684985"><ele>148.0</ele><time>2026-04-04T14:03:25Z</time></trkpt><trkpt lat="44.503149823766684" lon="10.730796913485788"><ele>148.0</ele><time>2026-04-04T14:03:27Z</time></trkpt><trkpt lat="44.503065767030456" lon="10.730897288228437"><ele>148.0</ele><time>2026-04-04T14:03:29Z</time></trkpt><trkpt lat="44.50298488022009" lon="10.73099272633229"><ele>148.0</ele><time>2026-04-04T14:03:31Z</time></trkpt><trkpt lat="44.5029050308936" lon="10.731085791510278"><ele>148.4</ele><time>2026-04-04T14:03:33Z</time></trkpt><trkpt lat="44.50283049812759" lon="10.731172083775723"><ele>148.8</ele><time>2026-04-04T14:03:35Z</time></trkpt><trkpt lat="44.5027559725246" lon="10.731258460131698"><ele>149.2</ele><time>2026-04-04T14:03:37Z</time></trkpt><trkpt lat="44.502681016271424" lon="10.73134191261307"><ele>149.6</ele><time>2026-04-04T14:03:39Z</time></trkpt><trkpt lat="44.502607804039165" lon="10.731431405887799"><ele>150.0</ele><time>2026-04-04T14:03:41Z</time></trkpt><trkpt lat="44.502528440912705" lon="10.731522587356107"><ele>150.0</ele><time>2026-04-04T14:03:43Z</time></trkpt><trkpt lat="44.50245588024449" lon="10.731620715749173"><ele>150.0</ele><time>2026-04-04T14:03:45Z</time></trkpt><trkpt lat="44.50237715807354" lon="10.73171494796684"><ele>150.0</ele><time>2026-04-04T14:03:47Z</time></trkpt><trkpt lat="44.50230067179155" lon="10.731804340140496"><ele>150.0</ele><time>2026-04-04T14:03:49Z</time></trkpt><trkpt lat="44.50222135131909" lon="10.73189365160399"><ele>150.0</ele><time>2026-04-04T14:03:51Z</time></trkpt><trkpt lat="44.50214057301546" lon="10.731980332093281"><ele>151.0</ele><time>2026-04-04T14:03:53Z</time></trkpt><trkpt lat="44.502064477126595" lon="10.732073612463248"><ele>152.0</ele><time>2026-04-04T14:03:55Z</time></trkpt><trkpt lat="44.50198737859953" lon="10.732160373570679"><ele>153.0</ele><time>2026-04-04T14:03:57Z</time></trkpt><trkpt lat="44.501909089518776" lon="10.732264611201812"><ele>154.0</ele><time>2026-04-04T14:03:59Z</time></trkpt><trkpt lat="44.501831892723075" lon="10.732368796268247"><ele>155.0</ele><time>2026-04-04T14:04:01Z</time></trkpt><trkpt lat="44.50173862325394" lon="10.732450244864303"><ele>155.0</ele><time>2026-04-04T14:04:03Z</time></trkpt><trkpt lat="44.501654973134535" lon="10.73255063357151"><ele>155.0</ele><time>2026-04-04T14:04:05Z</time></trkpt><trkpt lat="44.5015828624346" lon="10.732659363827647"><ele>155.0</ele><time>2026-04-04T14:04:07Z</time></trkpt><trkpt lat="44.501536712047695" lon="10.732772415343227"><ele>155.0</ele><time>2026-04-04T14:04:09Z</time></trkpt><trkpt lat="44.50154996954695" lon="10.732864048531303"><ele>155.0</ele><time>2026-04-04T14:04:11Z</time></trkpt><trkpt lat="44.50155692992931" lon="10.732978064875592"><ele>155.83333333333331</ele><time>2026-04-04T14:04:15Z</time></trkpt><trkpt lat="44.501600397225516" lon="10.733044981734622"><ele>156.66666666666666</ele><time>2026-04-04T14:04:18Z</time></trkpt><trkpt lat="44.501687760489574" lon="10.733017423679163"><ele>157.5</ele><time>2026-04-04T14:04:23Z</time></trkpt><trkpt lat="44.50176266091726" lon="10.73299695799645"><ele>158.33333333333334</ele><time>2026-04-04T14:04:25Z</time></trkpt><trkpt lat="44.50184294214622" lon="10.732892702626405"><ele>159.16666666666669</ele><time>2026-04-04T14:04:27Z</time></trkpt><trkpt lat="44.50189187828596" lon="10.732835334314801"><ele>160.0</ele><time>2026-04-04T14:04:28Z</time></trkpt><trkpt lat="44.50194408826447" lon="10.732780578186446"><ele>159.16666666666669</ele><time>2026-04-04T14:04:29Z</time></trkpt><trkpt lat="44.5019906077415" lon="10.732719146240733"><ele>158.33333333333334</ele><time>2026-04-04T14:04:30Z</time></trkpt><trkpt lat="44.50210957993165" lon="10.732686155735628"><ele>157.5</ele><time>2026-04-04T14:04:32Z</time></trkpt><trkpt lat="44.50217350539812" lon="10.73273240417737"><ele>156.66666666666666</ele><time>2026-04-04T14:04:33Z</time></trkpt><trkpt lat="44.50224380305825" lon="10.732764327829074"><ele>155.83333333333331</ele><time>2026-04-04T14:04:34Z</time></trkpt><trkpt lat="44.50231740418461" lon="10.73278931878184"><ele>155.0</ele><time>2026-04-04T14:04:35Z</time></trkpt><trkpt lat="44.502389244497735" lon="10.732819805598307"><ele>154.66666666666666</ele><time>2026-04-04T14:04:36Z</time></trkpt><trkpt lat="44.50246013827562" lon="10.732854974226266"><ele>154.33333333333331</ele><time>2026-04-04T14:04:37Z</time></trkpt><trkpt lat="44.502530295027874" lon="10.732883724703202"><ele>154.0</ele><time>2026-04-04T14:04:38Z</time></trkpt><trkpt lat="44.50259387971564" lon="10.732910932039397"><ele>153.66666666666666</ele><time>2026-04-04T14:04:39Z</time></trkpt><trkpt lat="44.50270954219389" lon="10.732962450259235"><ele>153.33333333333334</ele><time>2026-04-04T14:04:41Z</time></trkpt><trkpt lat="44.50281006641706" lon="10.73301805521244"><ele>153.0</ele><time>2026-04-04T14:04:43Z</time></trkpt><trkpt lat="44.5029141115887" lon="10.733074909279514"><ele>152.6</ele><time>2026-04-04T14:04:45Z</time></trkpt><trkpt lat="44.50301715628078" lon="10.733154154343477"><ele>152.20000000000002</ele><time>2026-04-04T14:04:47Z</time></trkpt><trkpt lat="44.50310294892592" lon="10.733252571073514"><ele>151.8</ele><time>2026-04-04T14:04:49Z</time></trkpt><trkpt lat="44.50319800807317" lon="10.733320852551508"><ele>151.4</ele><time>2026-04-04T14:04:51Z</time></trkpt><trkpt lat="44.50328697310402" lon="10.73338333915028"><ele>151.0</ele><time>2026-04-04T14:04:53Z</time></trkpt><trkpt lat="44.503367421258154" lon="10.733433437526001"><ele>151.0</ele><time>2026-04-04T14:04:55Z</time></trkpt><trkpt lat="44.503437461319464" lon="10.73348881930665"><ele>151.0</ele><time>2026-04-04T14:04:57Z</time></trkpt><trkpt lat="44.503516067864716" lon="10.733561676678542"><ele>151.0</ele><time>2026-04-04T14:04:59Z</time></trkpt><trkpt lat="44.50360314194238" lon="10.733638614292424"><ele>151.0</ele><time>2026-04-04T14:05:01Z</time></trkpt><trkpt lat="44.50368904934048" lon="10.733721251743404"><ele>151.0</ele><time>2026-04-04T14:05:03Z</time></trkpt><trkpt lat="44.50377194070296" lon="10.733806516483623"><ele>150.6</ele><time>2026-04-04T14:05:05Z</time></trkpt><trkpt lat="44.50385138389244" lon="10.733902455539228"><ele>150.2</ele><time>2026-04-04T14:05:07Z</time></trkpt><trkpt lat="44.50393864917638" lon="10.734006825772674"><ele>149.8</ele><time>2026-04-04T14:05:09Z</time></trkpt><trkpt lat="44.5040367085006" lon="10.73412176777038"><ele>149.4</ele><time>2026-04-04T14:05:11Z</time></trkpt><trkpt lat="44.504104431764894" lon="10.734159254319536"><ele>149.0</ele><time>2026-04-04T14:05:12Z</time></trkpt><trkpt lat="44.504184771049665" lon="10.7341816032982"><ele>149.0</ele><time>2026-04-04T14:05:13Z</time></trkpt><trkpt lat="44.504254481697316" lon="10.734207789731064"><ele>149.0</ele><time>2026-04-04T14:05:14Z</time></trkpt><trkpt lat="44.50434390695124" lon="10.734306080496182"><ele>149.0</ele><time>2026-04-04T14:05:16Z</time></trkpt><trkpt lat="44.50441275024437" lon="10.734434762285087"><ele>149.0</ele><time>2026-04-04T14:05:18Z</time></trkpt><trkpt lat="44.504498992782075" lon="10.734556926390303"><ele>149.0</ele><time>2026-04-04T14:05:20Z</time></trkpt><trkpt lat="44.50458334652787" lon="10.734684668067791"><ele>148.83333333333331</ele><time>2026-04-04T14:05:22Z</time></trkpt><trkpt lat="44.50463127300625" lon="10.734742399519583"><ele>148.66666666666666</ele><time>2026-04-04T14:05:23Z</time></trkpt><trkpt lat="44.50468133246769" lon="10.734797762122904"><ele>148.5</ele><time>2026-04-04T14:05:24Z</time></trkpt><trkpt lat="44.504732344180695" lon="10.734850190630015"><ele>148.33333333333334</ele><time>2026-04-04T14:05:25Z</time></trkpt><trkpt lat="44.5048324531643" lon="10.734951028714597"><ele>148.16666666666669</ele><time>2026-04-04T14:05:27Z</time></trkpt><trkpt lat="44.504935413514325" lon="10.735036348959534"><ele>148.0</ele><time>2026-04-04T14:05:29Z</time></trkpt><trkpt lat="44.50503919441252" lon="10.735126940618468"><ele>148.0</ele><time>2026-04-04T14:05:31Z</time></trkpt><trkpt lat="44.50514670722224" lon="10.735210212029575"><ele>148.0</ele><time>2026-04-04T14:05:33Z</time></trkpt><trkpt lat="44.50525630835191" lon="10.735287860507288"><ele>148.0</ele><time>2026-04-04T14:05:35Z</time></trkpt><trkpt lat="44.50536294185701" lon="10.735376560158548"><ele>148.0</ele><time>2026-04-04T14:05:37Z</time></trkpt><trkpt lat="44.5054141361562" lon="10.735433636850523"><ele>148.0</ele><time>2026-04-04T14:05:38Z</time></trkpt><trkpt lat="44.505512536034075" lon="10.73553648769244"><ele>147.75</ele><time>2026-04-04T14:05:40Z</time></trkpt><trkpt lat="44.50560886205197" lon="10.735633073074561"><ele>147.5</ele><time>2026-04-04T14:05:42Z</time></trkpt><trkpt lat="44.50570634698734" lon="10.735735317359701"><ele>147.25</ele><time>2026-04-04T14:05:44Z</time></trkpt><trkpt lat="44.50580454924705" lon="10.735829262410308"><ele>147.0</ele><time>2026-04-04T14:05:46Z</time></trkpt><trkpt lat="44.50590887727811" lon="10.735918869599857"><ele>147.0</ele><time>2026-04-04T14:05:48Z</time></trkpt><trkpt lat="44.50601610249114" lon="10.736001295429428"><ele>147.0</ele><time>2026-04-04T14:05:50Z</time></trkpt><trkpt lat="44.50606915080317" lon="10.73604905124886"><ele>147.0</ele><time>2026-04-04T14:05:51Z</time></trkpt><trkpt lat="44.506167953540036" lon="10.736147729322692"><ele>147.0</ele><time>2026-04-04T14:05:53Z</time></trkpt><trkpt lat="44.50626139941263" lon="10.736250909549325"><ele>147.0</ele><time>2026-04-04T14:05:55Z</time></trkpt><trkpt lat="44.506356167811916" lon="10.736332697360229"><ele>147.0</ele><time>2026-04-04T14:05:57Z</time></trkpt><trkpt lat="44.50644888240174" lon="10.73640897956294"><ele>147.0</ele><time>2026-04-04T14:05:59Z</time></trkpt><trkpt lat="44.50654719833202" lon="10.736480610772718"><ele>147.0</ele><time>2026-04-04T14:06:01Z</time></trkpt><trkpt lat="44.506649820308425" lon="10.736560659763555"><ele>147.0</ele><time>2026-04-04T14:06:03Z</time></trkpt><trkpt lat="44.50674108013652" lon="10.736672806374662"><ele>147.0</ele><time>2026-04-04T14:06:05Z</time></trkpt><trkpt lat="44.50683702557234" lon="10.73677026022667"><ele>147.0</ele><time>2026-04-04T14:06:07Z</time></trkpt><trkpt lat="44.50692319487554" lon="10.73687820910411"><ele>147.0</ele><time>2026-04-04T14:06:09Z</time></trkpt><trkpt lat="44.50699191850348" lon="10.737016182656694"><ele>147.0</ele><time>2026-04-04T14:06:11Z</time></trkpt><trkpt lat="44.5070566054332" lon="10.737147856532188"><ele>146.0</ele><time>2026-04-04T14:06:13Z</time></trkpt><trkpt lat="44.50712621704729" lon="10.737277908587295"><ele>145.0</ele><time>2026-04-04T14:06:15Z</time></trkpt><trkpt lat="44.50719174052611" lon="10.737412167011064"><ele>144.0</ele><time>2026-04-04T14:06:17Z</time></trkpt><trkpt lat="44.50726096124556" lon="10.737542931341444"><ele>143.0</ele><time>2026-04-04T14:06:19Z</time></trkpt><trkpt lat="44.507331996450084" lon="10.737666777447789"><ele>143.0</ele><time>2026-04-04T14:06:21Z</time></trkpt><trkpt lat="44.507397329837254" lon="10.737797639445933"><ele>143.0</ele><time>2026-04-04T14:06:23Z</time></trkpt><trkpt lat="44.507451356184674" lon="10.73794230256563"><ele>143.0</ele><time>2026-04-04T14:06:25Z</time></trkpt><trkpt lat="44.50751219125978" lon="10.738078194175223"><ele>143.0</ele><time>2026-04-04T14:06:27Z</time></trkpt><trkpt lat="44.5075866207418" lon="10.738205330659358"><ele>143.0</ele><time>2026-04-04T14:06:29Z</time></trkpt><trkpt lat="44.50765955245216" lon="10.73833449061115"><ele>143.0</ele><time>2026-04-04T14:06:31Z</time></trkpt><trkpt lat="44.50773181652167" lon="10.738474367342736"><ele>143.0</ele><time>2026-04-04T14:06:33Z</time></trkpt><trkpt lat="44.50777021919892" lon="10.738550156788232"><ele>143.0</ele><time>2026-04-04T14:06:34Z</time></trkpt><trkpt lat="44.50780835547549" lon="10.738622112243105"><ele>143.0</ele><time>2026-04-04T14:06:35Z</time></trkpt><trkpt lat="44.50784513031124" lon="10.738694617208603"><ele>143.0</ele><time>2026-04-04T14:06:36Z</time></trkpt><trkpt lat="44.50788632755622" lon="10.738762183209497"><ele>142.75</ele><time>2026-04-04T14:06:37Z</time></trkpt><trkpt lat="44.5079655837239" lon="10.73889908010219"><ele>142.5</ele><time>2026-04-04T14:06:39Z</time></trkpt><trkpt lat="44.508044227960184" lon="10.739036282905033"><ele>142.25</ele><time>2026-04-04T14:06:41Z</time></trkpt><trkpt lat="44.50812317252043" lon="10.739164921918904"><ele>142.0</ele><time>2026-04-04T14:06:43Z</time></trkpt><trkpt lat="44.50820048787785" lon="10.739282738348239"><ele>143.0</ele><time>2026-04-04T14:06:45Z</time></trkpt><trkpt lat="44.50827662418133" lon="10.739396665710883"><ele>144.0</ele><time>2026-04-04T14:06:47Z</time></trkpt><trkpt lat="44.50834143218751" lon="10.739530631672189"><ele>145.0</ele><time>2026-04-04T14:06:49Z</time></trkpt><trkpt lat="44.508379991029656" lon="10.73960049087803"><ele>146.0</ele><time>2026-04-04T14:06:50Z</time></trkpt><trkpt lat="44.50842519010697" lon="10.739664367679817"><ele>147.0</ele><time>2026-04-04T14:06:51Z</time></trkpt><trkpt lat="44.50850005597726" lon="10.739802129765373"><ele>147.0</ele><time>2026-04-04T14:06:53Z</time></trkpt><trkpt lat="44.50854110056984" lon="10.739954894387186"><ele>147.0</ele><time>2026-04-04T14:06:55Z</time></trkpt><trkpt lat="44.50860082773114" lon="10.740068481427372"><ele>147.0</ele><time>2026-04-04T14:06:57Z</time></trkpt><trkpt lat="44.50867121411476" lon="10.74015560867743"><ele>147.0</ele><time>2026-04-04T14:06:59Z</time></trkpt><trkpt lat="44.50872556705788" lon="10.740245220378533"><ele>147.0</ele><time>2026-04-04T14:07:01Z</time></trkpt><trkpt lat="44.50878650913767" lon="10.740327368083523"><ele>146.16666666666666</ele><time>2026-04-04T14:07:03Z</time></trkpt><trkpt lat="44.508853416179704" lon="10.74042099850946"><ele>145.33333333333334</ele><time>2026-04-04T14:07:05Z</time></trkpt><trkpt lat="44.50890174892248" lon="10.740479880833849"><ele>144.5</ele><time>2026-04-04T14:07:07Z</time></trkpt><trkpt lat="44.50896886804818" lon="10.740557311612728"><ele>143.66666666666669</ele><time>2026-04-04T14:07:09Z</time></trkpt><trkpt lat="44.50902731830978" lon="10.740636018376362"><ele>142.83333333333334</ele><time>2026-04-04T14:07:11Z</time></trkpt><trkpt lat="44.509076051598356" lon="10.74073025186468"><ele>142.0</ele><time>2026-04-04T14:07:13Z</time></trkpt><trkpt lat="44.50912104788182" lon="10.740828436026979"><ele>142.0</ele><time>2026-04-04T14:07:15Z</time></trkpt><trkpt lat="44.50916141655844" lon="10.740913435457383"><ele>142.0</ele><time>2026-04-04T14:07:17Z</time></trkpt><trkpt lat="44.50920287618215" lon="10.740994535629445"><ele>142.0</ele><time>2026-04-04T14:07:19Z</time></trkpt><trkpt lat="44.509266100013285" lon="10.741086795960763"><ele>142.0</ele><time>2026-04-04T14:07:21Z</time></trkpt><trkpt lat="44.50933045891922" lon="10.741172205642169"><ele>142.0</ele><time>2026-04-04T14:07:23Z</time></trkpt><trkpt lat="44.509400420027625" lon="10.741277976828364"><ele>142.0</ele><time>2026-04-04T14:07:25Z</time></trkpt><trkpt lat="44.509467403081935" lon="10.741367383065223"><ele>142.0</ele><time>2026-04-04T14:07:27Z</time></trkpt><trkpt lat="44.50953399338025" lon="10.741466724837844"><ele>142.0</ele><time>2026-04-04T14:07:29Z</time></trkpt><trkpt lat="44.50960326846614" lon="10.741568813508435"><ele>142.0</ele><time>2026-04-04T14:07:31Z</time></trkpt><trkpt lat="44.509674230279664" lon="10.741667193342957"><ele>142.0</ele><time>2026-04-04T14:07:33Z</time></trkpt><trkpt lat="44.50974202195449" lon="10.741760680220914"><ele>142.0</ele><time>2026-04-04T14:07:35Z</time></trkpt><trkpt lat="44.50980529034803" lon="10.741854594261962"><ele>142.66666666666669</ele><time>2026-04-04T14:07:37Z</time></trkpt><trkpt lat="44.50986260111258" lon="10.741937095329057"><ele>143.33333333333334</ele><time>2026-04-04T14:07:39Z</time></trkpt><trkpt lat="44.50991531685301" lon="10.742000404954945"><ele>144.0</ele><time>2026-04-04T14:07:41Z</time></trkpt><trkpt lat="44.50996936704824" lon="10.742066448004033"><ele>144.66666666666666</ele><time>2026-04-04T14:07:43Z</time></trkpt><trkpt lat="44.51003519662435" lon="10.74210770262114"><ele>145.33333333333331</ele><time>2026-04-04T14:07:45Z</time></trkpt><trkpt lat="44.51012743679067" lon="10.742148066392103"><ele>146.0</ele><time>2026-04-04T14:07:47Z</time></trkpt><trkpt lat="44.51022767957115" lon="10.742218346743702"><ele>146.0</ele><time>2026-04-04T14:07:49Z</time></trkpt><trkpt lat="44.51033455893698" lon="10.742281456097906"><ele>146.0</ele><time>2026-04-04T14:07:51Z</time></trkpt><trkpt lat="44.510439054733745" lon="10.74236185665395"><ele>146.0</ele><time>2026-04-04T14:07:53Z</time></trkpt><trkpt lat="44.51053229185789" lon="10.742471146865721"><ele>146.0</ele><time>2026-04-04T14:07:55Z</time></trkpt><trkpt lat="44.51061130948298" lon="10.74259045796934"><ele>145.6</ele><time>2026-04-04T14:07:57Z</time></trkpt><trkpt lat="44.51067864356549" lon="10.742678336942049"><ele>145.2</ele><time>2026-04-04T14:07:59Z</time></trkpt><trkpt lat="44.51075842716857" lon="10.74272053284775"><ele>144.8</ele><time>2026-04-04T14:08:01Z</time></trkpt><trkpt lat="44.51084611841889" lon="10.742737350674796"><ele>144.4</ele><time>2026-04-04T14:08:03Z</time></trkpt><trkpt lat="44.51093496623488" lon="10.742779228984698"><ele>144.0</ele><time>2026-04-04T14:08:05Z</time></trkpt><trkpt lat="44.51102256096657" lon="10.742833547533799"><ele>144.0</ele><time>2026-04-04T14:08:07Z</time></trkpt><trkpt lat="44.511118957277844" lon="10.74289779066816"><ele>144.0</ele><time>2026-04-04T14:08:09Z</time></trkpt><trkpt lat="44.51122138319459" lon="10.742959434893637"><ele>144.0</ele><time>2026-04-04T14:08:11Z</time></trkpt><trkpt lat="44.51132764910277" lon="10.74299573163098"><ele>144.0</ele><time>2026-04-04T14:08:13Z</time></trkpt><trkpt lat="44.51144069796814" lon="10.743028750316393"><ele>144.0</ele><time>2026-04-04T14:08:15Z</time></trkpt><trkpt lat="44.51155449928458" lon="10.743058100802553"><ele>143.4</ele><time>2026-04-04T14:08:17Z</time></trkpt><trkpt lat="44.51166681573357" lon="10.743102486722645"><ele>142.8</ele><time>2026-04-04T14:08:19Z</time></trkpt><trkpt lat="44.51176564098568" lon="10.743163999120561"><ele>142.2</ele><time>2026-04-04T14:08:21Z</time></trkpt><trkpt lat="44.51185691017501" lon="10.743264674221395"><ele>141.6</ele><time>2026-04-04T14:08:23Z</time></trkpt><trkpt lat="44.51190900543396" lon="10.743318213582256"><ele>141.0</ele><time>2026-04-04T14:08:24Z</time></trkpt><trkpt lat="44.51196215794375" lon="10.743370312724817"><ele>141.0</ele><time>2026-04-04T14:08:25Z</time></trkpt><trkpt lat="44.512060294595344" lon="10.74346850473315"><ele>141.0</ele><time>2026-04-04T14:08:27Z</time></trkpt><trkpt lat="44.51216346795672" lon="10.743562753699585"><ele>141.0</ele><time>2026-04-04T14:08:29Z</time></trkpt><trkpt lat="44.51226209825732" lon="10.743656126827299"><ele>141.0</ele><time>2026-04-04T14:08:31Z</time></trkpt><trkpt lat="44.51235972926114" lon="10.74375346626696"><ele>141.0</ele><time>2026-04-04T14:08:33Z</time></trkpt><trkpt lat="44.51246393230023" lon="10.743832449675283"><ele>141.0</ele><time>2026-04-04T14:08:35Z</time></trkpt><trkpt lat="44.512563230947386" lon="10.743872891929973"><ele>141.0</ele><time>2026-04-04T14:08:37Z</time></trkpt><trkpt lat="44.5126500333533" lon="10.743897826100277"><ele>141.0</ele><time>2026-04-04T14:08:39Z</time></trkpt><trkpt lat="44.51272878826999" lon="10.743928587406812"><ele>141.0</ele><time>2026-04-04T14:08:41Z</time></trkpt><trkpt lat="44.51281447826916" lon="10.743941056793133"><ele>141.0</ele><time>2026-04-04T14:08:43Z</time></trkpt><trkpt lat="44.51290244368609" lon="10.744007195786198"><ele>141.0</ele><time>2026-04-04T14:08:45Z</time></trkpt><trkpt lat="44.51299628848155" lon="10.744050184482722"><ele>141.0</ele><time>2026-04-04T14:08:47Z</time></trkpt><trkpt lat="44.51309454333339" lon="10.744079589284148"><ele>141.0</ele><time>2026-04-04T14:08:49Z</time></trkpt><trkpt lat="44.51319037185116" lon="10.744134914567407"><ele>141.0</ele><time>2026-04-04T14:08:51Z</time></trkpt><trkpt lat="44.513293926065145" lon="10.7441653932953"><ele>141.0</ele><time>2026-04-04T14:08:53Z</time></trkpt><trkpt lat="44.51338559804258" lon="10.74418999757809"><ele>141.0</ele><time>2026-04-04T14:08:55Z</time></trkpt><trkpt lat="44.51348514623657" lon="10.744240318621145"><ele>141.0</ele><time>2026-04-04T14:08:57Z</time></trkpt><trkpt lat="44.51359420154936" lon="10.744291565494343"><ele>141.0</ele><time>2026-04-04T14:08:59Z</time></trkpt><trkpt lat="44.513701228157224" lon="10.744343612201911"><ele>141.0</ele><time>2026-04-04T14:09:01Z</time></trkpt><trkpt lat="44.513812054980555" lon="10.744397174844428"><ele>141.0</ele><time>2026-04-04T14:09:03Z</time></trkpt><trkpt lat="44.5139142775854" lon="10.744462625952334"><ele>141.0</ele><time>2026-04-04T14:09:05Z</time></trkpt><trkpt lat="44.514013618434596" lon="10.744539428463074"><ele>141.0</ele><time>2026-04-04T14:09:07Z</time></trkpt><trkpt lat="44.514105242865504" lon="10.744625219883327"><ele>141.0</ele><time>2026-04-04T14:09:09Z</time></trkpt><trkpt lat="44.514186788529884" lon="10.744735643010966"><ele>141.0</ele><time>2026-04-04T14:09:11Z</time></trkpt><trkpt lat="44.51425508874872" lon="10.74485694510818"><ele>141.0</ele><time>2026-04-04T14:09:13Z</time></trkpt><trkpt lat="44.51432036414235" lon="10.744953672103764"><ele>141.0</ele><time>2026-04-04T14:09:15Z</time></trkpt><trkpt lat="44.514391780294304" lon="10.745033813693977"><ele>141.0</ele><time>2026-04-04T14:09:17Z</time></trkpt><trkpt lat="44.514463387980726" lon="10.745110521647588"><ele>141.0</ele><time>2026-04-04T14:09:19Z</time></trkpt><trkpt lat="44.514536821825565" lon="10.745178993711153"><ele>141.0</ele><time>2026-04-04T14:09:21Z</time></trkpt><trkpt lat="44.514615877135626" lon="10.745256707936445"><ele>140.8</ele><time>2026-04-04T14:09:23Z</time></trkpt><trkpt lat="44.51470179843336" lon="10.745332443954961"><ele>140.6</ele><time>2026-04-04T14:09:25Z</time></trkpt><trkpt lat="44.51479117804487" lon="10.745406403196503"><ele>140.4</ele><time>2026-04-04T14:09:27Z</time></trkpt><trkpt lat="44.514875619009054" lon="10.745489876082031"><ele>140.2</ele><time>2026-04-04T14:09:29Z</time></trkpt><trkpt lat="44.51495977147069" lon="10.745571526252684"><ele>140.0</ele><time>2026-04-04T14:09:31Z</time></trkpt><trkpt lat="44.51505275963292" lon="10.745650046474841"><ele>140.0</ele><time>2026-04-04T14:09:33Z</time></trkpt><trkpt lat="44.515155849799534" lon="10.745732755367335"><ele>140.0</ele><time>2026-04-04T14:09:35Z</time></trkpt><trkpt lat="44.51525111676963" lon="10.7458052399602"><ele>140.0</ele><time>2026-04-04T14:09:37Z</time></trkpt><trkpt lat="44.515343375527245" lon="10.745876033513449"><ele>140.0</ele><time>2026-04-04T14:09:39Z</time></trkpt><trkpt lat="44.51543339590336" lon="10.745945125174662"><ele>140.0</ele><time>2026-04-04T14:09:41Z</time></trkpt><trkpt lat="44.51552115065823" lon="10.746013913304145"><ele>140.2</ele><time>2026-04-04T14:09:43Z</time></trkpt><trkpt lat="44.51561083609374" lon="10.746091669193895"><ele>140.4</ele><time>2026-04-04T14:09:45Z</time></trkpt><trkpt lat="44.5157029572421" lon="10.746172855051146"><ele>140.6</ele><time>2026-04-04T14:09:47Z</time></trkpt><trkpt lat="44.51579047329051" lon="10.746249807432907"><ele>140.8</ele><time>2026-04-04T14:09:49Z</time></trkpt><trkpt lat="44.51587969990433" lon="10.746325701272804"><ele>141.0</ele><time>2026-04-04T14:09:51Z</time></trkpt><trkpt lat="44.515978584535546" lon="10.746405656627191"><ele>141.0</ele><time>2026-04-04T14:09:53Z</time></trkpt><trkpt lat="44.51606919168959" lon="10.746475026471602"><ele>141.0</ele><time>2026-04-04T14:09:55Z</time></trkpt><trkpt lat="44.51614213409338" lon="10.746531269259485"><ele>141.0</ele><time>2026-04-04T14:09:57Z</time></trkpt><trkpt lat="44.51621640223789" lon="10.746586871067091"><ele>141.0</ele><time>2026-04-04T14:09:59Z</time></trkpt><trkpt lat="44.51629462578317" lon="10.746644371894671"><ele>141.0</ele><time>2026-04-04T14:10:01Z</time></trkpt><trkpt lat="44.516367587810656" lon="10.74669307445772"><ele>141.0</ele><time>2026-04-04T14:10:03Z</time></trkpt><trkpt lat="44.51643563707097" lon="10.746744825700414"><ele>140.5</ele><time>2026-04-04T14:10:05Z</time></trkpt><trkpt lat="44.51650366086012" lon="10.74678768243051"><ele>140.0</ele><time>2026-04-04T14:10:07Z</time></trkpt><trkpt lat="44.51656557817079" lon="10.74684640414009"><ele>139.5</ele><time>2026-04-04T14:10:09Z</time></trkpt><trkpt lat="44.5166393996656" lon="10.746914144137993"><ele>139.0</ele><time>2026-04-04T14:10:11Z</time></trkpt><trkpt lat="44.5167239649891" lon="10.746983681086425"><ele>138.5</ele><time>2026-04-04T14:10:13Z</time></trkpt><trkpt lat="44.51681011829148" lon="10.747059495929578"><ele>138.0</ele><time>2026-04-04T14:10:15Z</time></trkpt><trkpt lat="44.516907418605285" lon="10.747138677211158"><ele>138.0</ele><time>2026-04-04T14:10:17Z</time></trkpt><trkpt lat="44.51700265361574" lon="10.747229933395273"><ele>138.0</ele><time>2026-04-04T14:10:19Z</time></trkpt><trkpt lat="44.51709445682939" lon="10.747316903495586"><ele>138.0</ele><time>2026-04-04T14:10:21Z</time></trkpt><trkpt lat="44.51719051912367" lon="10.747424019733277"><ele>138.0</ele><time>2026-04-04T14:10:23Z</time></trkpt><trkpt lat="44.51724402609954" lon="10.74748182162988"><ele>138.0</ele><time>2026-04-04T14:10:24Z</time></trkpt><trkpt lat="44.517293439903284" lon="10.74753972720165"><ele>137.8</ele><time>2026-04-04T14:10:25Z</time></trkpt><trkpt lat="44.5173418555962" lon="10.747599489842033"><ele>137.60000000000002</ele><time>2026-04-04T14:10:26Z</time></trkpt><trkpt lat="44.51743874673689" lon="10.747717300762163"><ele>137.39999999999998</ele><time>2026-04-04T14:10:28Z</time></trkpt><trkpt lat="44.51754244737558" lon="10.747810357563694"><ele>137.2</ele><time>2026-04-04T14:10:30Z</time></trkpt><trkpt lat="44.517634860198335" lon="10.747905071530607"><ele>137.0</ele><time>2026-04-04T14:10:32Z</time></trkpt><trkpt lat="44.51771831571072" lon="10.74800105764613"><ele>137.0</ele><time>2026-04-04T14:10:34Z</time></trkpt><trkpt lat="44.517800684742205" lon="10.748110521912341"><ele>137.0</ele><time>2026-04-04T14:10:36Z</time></trkpt><trkpt lat="44.517847779315034" lon="10.748175282654621"><ele>137.0</ele><time>2026-04-04T14:10:37Z</time></trkpt><trkpt lat="44.51789684516645" lon="10.748237349271186"><ele>137.0</ele><time>2026-04-04T14:10:38Z</time></trkpt><trkpt lat="44.51794874671661" lon="10.748291349513856"><ele>137.0</ele><time>2026-04-04T14:10:39Z</time></trkpt><trkpt lat="44.51805383780754" lon="10.748377280070567"><ele>137.0</ele><time>2026-04-04T14:10:41Z</time></trkpt><trkpt lat="44.51815091305522" lon="10.748467146718308"><ele>136.6</ele><time>2026-04-04T14:10:43Z</time></trkpt><trkpt lat="44.518246782313554" lon="10.748540233162254"><ele>136.2</ele><time>2026-04-04T14:10:45Z</time></trkpt><trkpt lat="44.518331373623504" lon="10.748606229087716"><ele>135.8</ele><time>2026-04-04T14:10:47Z</time></trkpt><trkpt lat="44.518417101616" lon="10.748662942393892"><ele>135.4</ele><time>2026-04-04T14:10:49Z</time></trkpt><trkpt lat="44.51850857423653" lon="10.748726633363944"><ele>135.0</ele><time>2026-04-04T14:10:51Z</time></trkpt><trkpt lat="44.5185895273811" lon="10.748807579888053"><ele>134.6</ele><time>2026-04-04T14:10:53Z</time></trkpt><trkpt lat="44.51867385750974" lon="10.748889635893246"><ele>134.2</ele><time>2026-04-04T14:10:55Z</time></trkpt><trkpt lat="44.51874823303496" lon="10.748983978534612"><ele>133.8</ele><time>2026-04-04T14:10:57Z</time></trkpt><trkpt lat="44.51881195803799" lon="10.749076878797993"><ele>133.4</ele><time>2026-04-04T14:10:59Z</time></trkpt><trkpt lat="44.5188802640894" lon="10.749178209944574"><ele>133.0</ele><time>2026-04-04T14:11:01Z</time></trkpt><trkpt lat="44.51895448972506" lon="10.749279898234885"><ele>134.20000000000002</ele><time>2026-04-04T14:11:03Z</time></trkpt><trkpt lat="44.5190309194003" lon="10.749385762368078"><ele>135.4</ele><time>2026-04-04T14:11:05Z</time></trkpt><trkpt lat="44.519116671890856" lon="10.749481191659234"><ele>136.60000000000002</ele><time>2026-04-04T14:11:07Z</time></trkpt><trkpt lat="44.51918466145121" lon="10.749580862460546"><ele>137.8</ele><time>2026-04-04T14:11:09Z</time></trkpt><trkpt lat="44.51924592003185" lon="10.749685840199037"><ele>139.0</ele><time>2026-04-04T14:11:11Z</time></trkpt><trkpt lat="44.5193136120677" lon="10.749795954888567"><ele>139.0</ele><time>2026-04-04T14:11:13Z</time></trkpt><trkpt lat="44.51938520649236" lon="10.74991306690267"><ele>139.0</ele><time>2026-04-04T14:11:15Z</time></trkpt><trkpt lat="44.5194576653024" lon="10.75002720615834"><ele>139.0</ele><time>2026-04-04T14:11:17Z</time></trkpt><trkpt lat="44.519530713655" lon="10.750134412559444"><ele>139.0</ele><time>2026-04-04T14:11:19Z</time></trkpt><trkpt lat="44.51959797181891" lon="10.750232863963426"><ele>139.0</ele><time>2026-04-04T14:11:21Z</time></trkpt><trkpt lat="44.519665974056295" lon="10.750325106853667"><ele>138.6</ele><time>2026-04-04T14:11:23Z</time></trkpt><trkpt lat="44.5197515843396" lon="10.750404320229709"><ele>138.2</ele><time>2026-04-04T14:11:25Z</time></trkpt><trkpt lat="44.51983734066804" lon="10.750420263432032"><ele>137.79999999999998</ele><time>2026-04-04T14:11:27Z</time></trkpt><trkpt lat="44.51992294009166" lon="10.750379283640955"><ele>137.4</ele><time>2026-04-04T14:11:30Z</time></trkpt><trkpt lat="44.51998474316963" lon="10.750291934932338"><ele>137.0</ele><time>2026-04-04T14:11:32Z</time></trkpt><trkpt lat="44.52003509418902" lon="10.750176958633974"><ele>137.0</ele><time>2026-04-04T14:11:34Z</time></trkpt><trkpt lat="44.52006613516577" lon="10.750049296478984"><ele>137.0</ele><time>2026-04-04T14:11:36Z</time></trkpt><trkpt lat="44.520107311848655" lon="10.749917698769082"><ele>137.0</ele><time>2026-04-04T14:11:38Z</time></trkpt><trkpt lat="44.52012374039306" lon="10.749742283390693"><ele>137.0</ele><time>2026-04-04T14:11:40Z</time></trkpt><trkpt lat="44.52012738532759" lon="10.749644534281265"><ele>137.0</ele><time>2026-04-04T14:11:41Z</time></trkpt><trkpt lat="44.52012346132447" lon="10.749555952422005"><ele>137.0</ele><time>2026-04-04T14:11:42Z</time></trkpt><trkpt lat="44.520146714595015" lon="10.749425580369964"><ele>137.0</ele><time>2026-04-04T14:11:44Z</time></trkpt><trkpt lat="44.52023186243617" lon="10.74934697415142"><ele>137.0</ele><time>2026-04-04T14:11:46Z</time></trkpt><trkpt lat="44.52032758689305" lon="10.749402315607474"><ele>137.0</ele><time>2026-04-04T14:11:48Z</time></trkpt><trkpt lat="44.520418556287055" lon="10.749468477815451"><ele>137.0</ele><time>2026-04-04T14:11:50Z</time></trkpt><trkpt lat="44.52051967277501" lon="10.74955225701169"><ele>136.4</ele><time>2026-04-04T14:11:52Z</time></trkpt><trkpt lat="44.520617729332656" lon="10.749644896181735"><ele>135.79999999999998</ele><time>2026-04-04T14:11:54Z</time></trkpt><trkpt lat="44.52071367557778" lon="10.749730322948318"><ele>135.2</ele><time>2026-04-04T14:11:56Z</time></trkpt><trkpt lat="44.52079759199142" lon="10.749823871439471"><ele>134.6</ele><time>2026-04-04T14:11:58Z</time></trkpt><trkpt lat="44.520858692568495" lon="10.749918729600648"><ele>134.0</ele><time>2026-04-04T14:12:00Z</time></trkpt><trkpt lat="44.52089561985938" lon="10.750003794727062"><ele>134.0</ele><time>2026-04-04T14:12:02Z</time></trkpt><trkpt lat="44.5209391390011" lon="10.750087688301322"><ele>134.0</ele><time>2026-04-04T14:12:04Z</time></trkpt><trkpt lat="44.52096892176144" lon="10.750188470462842"><ele>134.0</ele><time>2026-04-04T14:12:06Z</time></trkpt><trkpt lat="44.520969905946025" lon="10.750312427999358"><ele>134.0</ele><time>2026-04-04T14:12:08Z</time></trkpt><trkpt lat="44.52100394670689" lon="10.750431303378848"><ele>134.0</ele><time>2026-04-04T14:12:10Z</time></trkpt><trkpt lat="44.521023920069936" lon="10.750561896323529"><ele>134.0</ele><time>2026-04-04T14:12:12Z</time></trkpt><trkpt lat="44.52102369101016" lon="10.750689158423432"><ele>134.0</ele><time>2026-04-04T14:12:14Z</time></trkpt><trkpt lat="44.52103978081413" lon="10.750812693185775"><ele>134.0</ele><time>2026-04-04T14:12:16Z</time></trkpt><trkpt lat="44.52107686469648" lon="10.750915011889655"><ele>134.0</ele><time>2026-04-04T14:12:18Z</time></trkpt><trkpt lat="44.521160701146535" lon="10.750950716047223"><ele>134.0</ele><time>2026-04-04T14:12:20Z</time></trkpt><trkpt lat="44.52126043788566" lon="10.75095357015613"><ele>134.0</ele><time>2026-04-04T14:12:22Z</time></trkpt><trkpt lat="44.52136266669323" lon="10.750953083642502"><ele>133.2</ele><time>2026-04-04T14:12:24Z</time></trkpt><trkpt lat="44.5214662341761" lon="10.750956249827748"><ele>132.4</ele><time>2026-04-04T14:12:26Z</time></trkpt><trkpt lat="44.52156672432305" lon="10.75095479995566"><ele>131.6</ele><time>2026-04-04T14:12:28Z</time></trkpt><trkpt lat="44.521668214307205" lon="10.750952385208297"><ele>130.8</ele><time>2026-04-04T14:12:30Z</time></trkpt><trkpt lat="44.52177315182762" lon="10.750962412168978"><ele>130.0</ele><time>2026-04-04T14:12:32Z</time></trkpt><trkpt lat="44.52186944433332" lon="10.75098372884004"><ele>130.0</ele><time>2026-04-04T14:12:34Z</time></trkpt><trkpt lat="44.521940583462246" lon="10.75108301372663"><ele>130.0</ele><time>2026-04-04T14:12:36Z</time></trkpt><trkpt lat="44.52198448199024" lon="10.7511993652663"><ele>130.0</ele><time>2026-04-04T14:12:38Z</time></trkpt><trkpt lat="44.522034842209884" lon="10.751305533151763"><ele>130.0</ele><time>2026-04-04T14:12:40Z</time></trkpt><trkpt lat="44.522074888700665" lon="10.751401441484212"><ele>130.0</ele><time>2026-04-04T14:12:42Z</time></trkpt><trkpt lat="44.52210357840426" lon="10.751506277748343"><ele>130.0</ele><time>2026-04-04T14:12:45Z</time></trkpt><trkpt lat="44.52211985207485" lon="10.75160032433315"><ele>130.0</ele><time>2026-04-04T14:12:48Z</time></trkpt><trkpt lat="44.52220806037415" lon="10.751680087779393"><ele>130.0</ele><time>2026-04-04T14:12:52Z</time></trkpt><trkpt lat="44.52228950292666" lon="10.751658171814972"><ele>130.0</ele><time>2026-04-04T14:12:54Z</time></trkpt><trkpt lat="44.52237774245086" lon="10.751639160523805"><ele>130.0</ele><time>2026-04-04T14:12:56Z</time></trkpt><trkpt lat="44.522481438715886" lon="10.75166440441798"><ele>130.0</ele><time>2026-04-04T14:12:58Z</time></trkpt><trkpt lat="44.522588668105186" lon="10.751695592901987"><ele>130.0</ele><time>2026-04-04T14:13:00Z</time></trkpt><trkpt lat="44.522695582743545" lon="10.75172885683193"><ele>130.0</ele><time>2026-04-04T14:13:02Z</time></trkpt><trkpt lat="44.52278558811146" lon="10.751788763989364"><ele>130.0</ele><time>2026-04-04T14:13:04Z</time></trkpt><trkpt lat="44.522865277315596" lon="10.751853111751416"><ele>130.0</ele><time>2026-04-04T14:13:06Z</time></trkpt><trkpt lat="44.522952647110465" lon="10.751919596818293"><ele>130.0</ele><time>2026-04-04T14:13:08Z</time></trkpt><trkpt lat="44.52305586772117" lon="10.751997124831774"><ele>129.8</ele><time>2026-04-04T14:13:10Z</time></trkpt><trkpt lat="44.5231656502916" lon="10.752076633498769"><ele>129.6</ele><time>2026-04-04T14:13:12Z</time></trkpt><trkpt lat="44.52321940450939" lon="10.75212545019829"><ele>129.4</ele><time>2026-04-04T14:13:13Z</time></trkpt><trkpt lat="44.52331124670855" lon="10.752241742206822"><ele>129.2</ele><time>2026-04-04T14:13:15Z</time></trkpt><trkpt lat="44.52339231296961" lon="10.75236792017181"><ele>129.0</ele><time>2026-04-04T14:13:17Z</time></trkpt><trkpt lat="44.52348107061557" lon="10.752484561202513"><ele>129.0</ele><time>2026-04-04T14:13:19Z</time></trkpt><trkpt lat="44.52356703224381" lon="10.752603531757567"><ele>129.0</ele><time>2026-04-04T14:13:21Z</time></trkpt><trkpt lat="44.523651610076854" lon="10.75271950102987"><ele>129.0</ele><time>2026-04-04T14:13:23Z</time></trkpt><trkpt lat="44.52374068546847" lon="10.752839431425649"><ele>129.0</ele><time>2026-04-04T14:13:25Z</time></trkpt><trkpt lat="44.52383101286052" lon="10.7529619847393"><ele>128.5</ele><time>2026-04-04T14:13:27Z</time></trkpt><trkpt lat="44.52387794235344" lon="10.753021631182834"><ele>128.0</ele><time>2026-04-04T14:13:28Z</time></trkpt><trkpt lat="44.52397197919442" lon="10.753133535400021"><ele>127.5</ele><time>2026-04-04T14:13:30Z</time></trkpt><trkpt lat="44.524017686260606" lon="10.753194597032603"><ele>127.0</ele><time>2026-04-04T14:13:31Z</time></trkpt><trkpt lat="44.524064167164944" lon="10.753254413673844"><ele>126.5</ele><time>2026-04-04T14:13:32Z</time></trkpt><trkpt lat="44.52411014987282" lon="10.753317338487875"><ele>126.0</ele><time>2026-04-04T14:13:33Z</time></trkpt><trkpt lat="44.52420888909806" lon="10.753425842852751"><ele>126.0</ele><time>2026-04-04T14:13:35Z</time></trkpt><trkpt lat="44.52425986972858" lon="10.753480259285588"><ele>126.0</ele><time>2026-04-04T14:13:36Z</time></trkpt><trkpt lat="44.524312046968326" lon="10.753533187049635"><ele>126.0</ele><time>2026-04-04T14:13:37Z</time></trkpt><trkpt lat="44.52441247084042" lon="10.753633499121992"><ele>126.0</ele><time>2026-04-04T14:13:39Z</time></trkpt><trkpt lat="44.52451518979762" lon="10.753734515001412"><ele>126.0</ele><time>2026-04-04T14:13:41Z</time></trkpt><trkpt lat="44.524617104662205" lon="10.75382751859608"><ele>126.0</ele><time>2026-04-04T14:13:43Z</time></trkpt><trkpt lat="44.52467019432951" lon="10.753876188266608"><ele>126.0</ele><time>2026-04-04T14:13:44Z</time></trkpt><trkpt lat="44.52476611583049" lon="10.753980782998726"><ele>126.0</ele><time>2026-04-04T14:13:46Z</time></trkpt><trkpt lat="44.52481339831841" lon="10.754044513863715"><ele>126.0</ele><time>2026-04-04T14:13:47Z</time></trkpt><trkpt lat="44.524903890842594" lon="10.754164165102377"><ele>126.0</ele><time>2026-04-04T14:13:49Z</time></trkpt><trkpt lat="44.52497354510497" lon="10.754309584603428"><ele>127.0</ele><time>2026-04-04T14:13:51Z</time></trkpt><trkpt lat="44.525004196663915" lon="10.754469441309613"><ele>128.0</ele><time>2026-04-04T14:13:53Z</time></trkpt><trkpt lat="44.52498016212289" lon="10.754634000498816"><ele>129.0</ele><time>2026-04-04T14:13:55Z</time></trkpt><trkpt lat="44.5249272125992" lon="10.754777938653339"><ele>130.0</ele><time>2026-04-04T14:13:57Z</time></trkpt><trkpt lat="44.52486896560701" lon="10.754913657169231"><ele>130.0</ele><time>2026-04-04T14:13:59Z</time></trkpt><trkpt lat="44.524824237702575" lon="10.755054971640032"><ele>130.0</ele><time>2026-04-04T14:14:01Z</time></trkpt><trkpt lat="44.524795331662" lon="10.75519406660189"><ele>130.0</ele><time>2026-04-04T14:14:03Z</time></trkpt><trkpt lat="44.524789172504555" lon="10.755332056206061"><ele>130.0</ele><time>2026-04-04T14:14:05Z</time></trkpt><trkpt lat="44.52482770381343" lon="10.755454314811999"><ele>130.0</ele><time>2026-04-04T14:14:07Z</time></trkpt><trkpt lat="44.524903781970444" lon="10.75555379995029"><ele>129.6</ele><time>2026-04-04T14:14:09Z</time></trkpt><trkpt lat="44.52499068912682" lon="10.755651419100566"><ele>129.2</ele><time>2026-04-04T14:14:11Z</time></trkpt><trkpt lat="44.52507655901959" lon="10.755757462092195"><ele>128.8</ele><time>2026-04-04T14:14:13Z</time></trkpt><trkpt lat="44.52516167969688" lon="10.755859042000674"><ele>128.4</ele><time>2026-04-04T14:14:15Z</time></trkpt><trkpt lat="44.5252385039894" lon="10.75597156875396"><ele>128.0</ele><time>2026-04-04T14:14:17Z</time></trkpt><trkpt lat="44.52529870095468" lon="10.756106738998023"><ele>128.0</ele><time>2026-04-04T14:14:19Z</time></trkpt><trkpt lat="44.52536074712802" lon="10.756246051498909"><ele>128.0</ele><time>2026-04-04T14:14:21Z</time></trkpt><trkpt lat="44.52542575641262" lon="10.756388545493051"><ele>128.0</ele><time>2026-04-04T14:14:23Z</time></trkpt><trkpt lat="44.52549947735232" lon="10.756527181577798"><ele>128.0</ele><time>2026-04-04T14:14:25Z</time></trkpt><trkpt lat="44.525576538442174" lon="10.756660707709159"><ele>128.20000000000002</ele><time>2026-04-04T14:14:27Z</time></trkpt><trkpt lat="44.52561802893141" lon="10.756727610374783"><ele>128.4</ele><time>2026-04-04T14:14:28Z</time></trkpt><trkpt lat="44.525661261353534" lon="10.75679572658845"><ele>128.60000000000002</ele><time>2026-04-04T14:14:29Z</time></trkpt><trkpt lat="44.52573880826991" lon="10.756928041030696"><ele>128.8</ele><time>2026-04-04T14:14:31Z</time></trkpt><trkpt lat="44.52582368065279" lon="10.7570454658215"><ele>129.0</ele><time>2026-04-04T14:14:33Z</time></trkpt><trkpt lat="44.52591817224324" lon="10.757151205724607"><ele>129.0</ele><time>2026-04-04T14:14:35Z</time></trkpt><trkpt lat="44.52601291186598" lon="10.757255331136701"><ele>129.0</ele><time>2026-04-04T14:14:37Z</time></trkpt><trkpt lat="44.52609894042273" lon="10.757363028851154"><ele>129.0</ele><time>2026-04-04T14:14:39Z</time></trkpt><trkpt lat="44.52617714885321" lon="10.75745843502716"><ele>129.0</ele><time>2026-04-04T14:14:41Z</time></trkpt><trkpt lat="44.52624853644211" lon="10.757545485369896"><ele>129.0</ele><time>2026-04-04T14:14:43Z</time></trkpt><trkpt lat="44.52632811563769" lon="10.757629902787835"><ele>128.8</ele><time>2026-04-04T14:14:45Z</time></trkpt><trkpt lat="44.52640972817281" lon="10.757718014182446"><ele>128.60000000000002</ele><time>2026-04-04T14:14:47Z</time></trkpt><trkpt lat="44.52649884274478" lon="10.75781217476015"><ele>128.4</ele><time>2026-04-04T14:14:49Z</time></trkpt><trkpt lat="44.526592468467456" lon="10.757898993680774"><ele>128.20000000000002</ele><time>2026-04-04T14:14:51Z</time></trkpt><trkpt lat="44.52668724827769" lon="10.75798261264218"><ele>128.0</ele><time>2026-04-04T14:14:53Z</time></trkpt><trkpt lat="44.52677708393729" lon="10.758064998339169"><ele>128.0</ele><time>2026-04-04T14:14:55Z</time></trkpt><trkpt lat="44.52687544652063" lon="10.758137755804954"><ele>128.0</ele><time>2026-04-04T14:14:57Z</time></trkpt><trkpt lat="44.52697268692679" lon="10.758213845564624"><ele>128.0</ele><time>2026-04-04T14:14:59Z</time></trkpt><trkpt lat="44.5270671867532" lon="10.75829996055088"><ele>128.0</ele><time>2026-04-04T14:15:01Z</time></trkpt><trkpt lat="44.527154636084234" lon="10.758373129926627"><ele>128.0</ele><time>2026-04-04T14:15:03Z</time></trkpt><trkpt lat="44.52723827522962" lon="10.758432778203959"><ele>127.80000000000001</ele><time>2026-04-04T14:15:05Z</time></trkpt><trkpt lat="44.52731586286619" lon="10.75849268218263"><ele>127.60000000000001</ele><time>2026-04-04T14:15:07Z</time></trkpt><trkpt lat="44.527387912779574" lon="10.75854825041916"><ele>127.39999999999999</ele><time>2026-04-04T14:15:09Z</time></trkpt><trkpt lat="44.52747863783907" lon="10.758610576768142"><ele>127.19999999999999</ele><time>2026-04-04T14:15:11Z</time></trkpt><trkpt lat="44.52757110081561" lon="10.758670494371886"><ele>127.0</ele><time>2026-04-04T14:15:13Z</time></trkpt><trkpt lat="44.52766094176761" lon="10.75872050017978"><ele>127.0</ele><time>2026-04-04T14:15:15Z</time></trkpt><trkpt lat="44.52773948947531" lon="10.758790046650288"><ele>126.99999999999999</ele><time>2026-04-04T14:15:17Z</time></trkpt><trkpt lat="44.527821827187616" lon="10.758861692565919"><ele>126.99999999999999</ele><time>2026-04-04T14:15:19Z</time></trkpt><trkpt lat="44.52791580621134" lon="10.758910779991972"><ele>127.0</ele><time>2026-04-04T14:15:21Z</time></trkpt><trkpt lat="44.52801145390994" lon="10.758969775954096"><ele>127.0</ele><time>2026-04-04T14:15:23Z</time></trkpt><trkpt lat="44.52811025576821" lon="10.759023750365925"><ele>126.6</ele><time>2026-04-04T14:15:25Z</time></trkpt><trkpt lat="44.52820147443623" lon="10.759077236000875"><ele>126.19999999999999</ele><time>2026-04-04T14:15:27Z</time></trkpt><trkpt lat="44.52828629498418" lon="10.759125846191116"><ele>125.8</ele><time>2026-04-04T14:15:29Z</time></trkpt><trkpt lat="44.52837260930657" lon="10.759172229863353"><ele>125.4</ele><time>2026-04-04T14:15:31Z</time></trkpt><trkpt lat="44.528469518535786" lon="10.759234630754056"><ele>125.0</ele><time>2026-04-04T14:15:33Z</time></trkpt><trkpt lat="44.52857497280562" lon="10.759283846796714"><ele>125.0</ele><time>2026-04-04T14:15:35Z</time></trkpt><trkpt lat="44.52867751355864" lon="10.759341913213941"><ele>125.0</ele><time>2026-04-04T14:15:37Z</time></trkpt><trkpt lat="44.528780215548835" lon="10.759388350130045"><ele>125.0</ele><time>2026-04-04T14:15:39Z</time></trkpt><trkpt lat="44.528881897300316" lon="10.759471743657139"><ele>125.0</ele><time>2026-04-04T14:15:41Z</time></trkpt><trkpt lat="44.52898660183058" lon="10.759533399805784"><ele>125.2</ele><time>2026-04-04T14:15:43Z</time></trkpt><trkpt lat="44.529097688151566" lon="10.759582360443286"><ele>125.4</ele><time>2026-04-04T14:15:45Z</time></trkpt><trkpt lat="44.529158196936685" lon="10.759607373533797"><ele>125.6</ele><time>2026-04-04T14:15:46Z</time></trkpt><trkpt lat="44.529273844384484" lon="10.75966358674977"><ele>125.8</ele><time>2026-04-04T14:15:48Z</time></trkpt><trkpt lat="44.52938362997682" lon="10.759711829565893"><ele>126.0</ele><time>2026-04-04T14:15:50Z</time></trkpt><trkpt lat="44.529488739097246" lon="10.759760440167238"><ele>125.75</ele><time>2026-04-04T14:15:52Z</time></trkpt><trkpt lat="44.52960128272014" lon="10.759815519461942"><ele>125.5</ele><time>2026-04-04T14:15:54Z</time></trkpt><trkpt lat="44.52971002245214" lon="10.759876315127096"><ele>125.25</ele><time>2026-04-04T14:15:56Z</time></trkpt><trkpt lat="44.529820728767604" lon="10.759941924594866"><ele>125.0</ele><time>2026-04-04T14:15:58Z</time></trkpt><trkpt lat="44.52993026814068" lon="10.760014380674257"><ele>125.0</ele><time>2026-04-04T14:16:00Z</time></trkpt><trkpt lat="44.53004279557892" lon="10.760083978696631"><ele>125.0</ele><time>2026-04-04T14:16:02Z</time></trkpt><trkpt lat="44.53010013896079" lon="10.760120800165787"><ele>125.0</ele><time>2026-04-04T14:16:03Z</time></trkpt><trkpt lat="44.53020629734023" lon="10.760200774318333"><ele>125.0</ele><time>2026-04-04T14:16:05Z</time></trkpt><trkpt lat="44.53031354811058" lon="10.760257490780937"><ele>125.0</ele><time>2026-04-04T14:16:07Z</time></trkpt><trkpt lat="44.53040381777401" lon="10.760331777291826"><ele>125.0</ele><time>2026-04-04T14:16:09Z</time></trkpt><trkpt lat="44.530491289675695" lon="10.760397640395702"><ele>125.0</ele><time>2026-04-04T14:16:11Z</time></trkpt><trkpt lat="44.53057479313262" lon="10.760468807305712"><ele>125.0</ele><time>2026-04-04T14:16:13Z</time></trkpt><trkpt lat="44.53066528076086" lon="10.760542873560405"><ele>125.0</ele><time>2026-04-04T14:16:15Z</time></trkpt><trkpt lat="44.5307665580538" lon="10.760610609838027"><ele>125.0</ele><time>2026-04-04T14:16:17Z</time></trkpt><trkpt lat="44.53086492747512" lon="10.7606996608143"><ele>124.99999999999999</ele><time>2026-04-04T14:16:19Z</time></trkpt><trkpt lat="44.53097322568121" lon="10.760792186344876"><ele>125.0</ele><time>2026-04-04T14:16:21Z</time></trkpt><trkpt lat="44.5310298673029" lon="10.760838466471707"><ele>125.0</ele><time>2026-04-04T14:16:22Z</time></trkpt><trkpt lat="44.531086423350416" lon="10.760882766385675"><ele>125.0</ele><time>2026-04-04T14:16:23Z</time></trkpt><trkpt lat="44.53114157226724" lon="10.760934426734272"><ele>124.99999999999999</ele><time>2026-04-04T14:16:24Z</time></trkpt><trkpt lat="44.53119596424088" lon="10.760984145769287"><ele>125.0</ele><time>2026-04-04T14:16:25Z</time></trkpt><trkpt lat="44.53125082960106" lon="10.761027727334794"><ele>125.0</ele><time>2026-04-04T14:16:26Z</time></trkpt><trkpt lat="44.53135540175558" lon="10.761110055251503"><ele>125.0</ele><time>2026-04-04T14:16:28Z</time></trkpt><trkpt lat="44.53144940194313" lon="10.76119330442726"><ele>125.0</ele><time>2026-04-04T14:16:30Z</time></trkpt><trkpt lat="44.531543606585885" lon="10.761279479516485"><ele>125.0</ele><time>2026-04-04T14:16:32Z</time></trkpt><trkpt lat="44.53164251783292" lon="10.761372029400544"><ele>125.0</ele><time>2026-04-04T14:16:34Z</time></trkpt><trkpt lat="44.531740889996016" lon="10.761471950112071"><ele>125.0</ele><time>2026-04-04T14:16:36Z</time></trkpt><trkpt lat="44.53183134179078" lon="10.761574399054187"><ele>125.0</ele><time>2026-04-04T14:16:38Z</time></trkpt><trkpt lat="44.53191778507454" lon="10.761660398889248"><ele>125.0</ele><time>2026-04-04T14:16:40Z</time></trkpt><trkpt lat="44.531998654237405" lon="10.761736976012076"><ele>125.0</ele><time>2026-04-04T14:16:42Z</time></trkpt><trkpt lat="44.532086747834946" lon="10.761821962268833"><ele>125.4</ele><time>2026-04-04T14:16:44Z</time></trkpt><trkpt lat="44.532174087065464" lon="10.761905990075345"><ele>125.8</ele><time>2026-04-04T14:16:46Z</time></trkpt><trkpt lat="44.5322694958559" lon="10.761993038213717"><ele>126.19999999999999</ele><time>2026-04-04T14:16:48Z</time></trkpt><trkpt lat="44.53236899410264" lon="10.762067799576576"><ele>126.6</ele><time>2026-04-04T14:16:50Z</time></trkpt><trkpt lat="44.53246697414936" lon="10.76211973192276"><ele>127.0</ele><time>2026-04-04T14:16:52Z</time></trkpt><trkpt lat="44.53256751966063" lon="10.762161786888045"><ele>127.00000000000001</ele><time>2026-04-04T14:16:54Z</time></trkpt><trkpt lat="44.53262246926848" lon="10.762206356663924"><ele>127.0</ele><time>2026-04-04T14:16:55Z</time></trkpt><trkpt lat="44.532727090829034" lon="10.76230518490473"><ele>127.0</ele><time>2026-04-04T14:16:57Z</time></trkpt><trkpt lat="44.53278787785448" lon="10.762336294048856"><ele>127.0</ele><time>2026-04-04T14:16:58Z</time></trkpt><trkpt lat="44.53284943657546" lon="10.762367176469347"><ele>127.00000000000001</ele><time>2026-04-04T14:16:59Z</time></trkpt><trkpt lat="44.53296407775046" lon="10.762438055970158"><ele>127.0</ele><time>2026-04-04T14:17:01Z</time></trkpt><trkpt lat="44.53302267136894" lon="10.762473840830987"><ele>127.0</ele><time>2026-04-04T14:17:02Z</time></trkpt><trkpt lat="44.53313526152265" lon="10.762545934575606"><ele>127.0</ele><time>2026-04-04T14:17:04Z</time></trkpt><trkpt lat="44.53323541477935" lon="10.76260847865467"><ele>127.0</ele><time>2026-04-04T14:17:06Z</time></trkpt><trkpt lat="44.53333667193364" lon="10.762670069007914"><ele>127.0</ele><time>2026-04-04T14:17:08Z</time></trkpt><trkpt lat="44.53343561969363" lon="10.762742641200957"><ele>126.5</ele><time>2026-04-04T14:17:10Z</time></trkpt><trkpt lat="44.533528983680995" lon="10.762826648379265"><ele>126.0</ele><time>2026-04-04T14:17:12Z</time></trkpt><trkpt lat="44.533627205031344" lon="10.762912504290883"><ele>125.5</ele><time>2026-04-04T14:17:14Z</time></trkpt><trkpt lat="44.53373180430884" lon="10.762992775539573"><ele>125.0</ele><time>2026-04-04T14:17:16Z</time></trkpt><trkpt lat="44.53384023569933" lon="10.763064754339217"><ele>125.0</ele><time>2026-04-04T14:17:18Z</time></trkpt><trkpt lat="44.53394262859414" lon="10.763132661650804"><ele>125.0</ele><time>2026-04-04T14:17:20Z</time></trkpt><trkpt lat="44.5340374980025" lon="10.763199504482953"><ele>125.0</ele><time>2026-04-04T14:17:22Z</time></trkpt><trkpt lat="44.53412435616569" lon="10.76326026419604"><ele>125.0</ele><time>2026-04-04T14:17:24Z</time></trkpt><trkpt lat="44.53420196579537" lon="10.763325590076414"><ele>125.0</ele><time>2026-04-04T14:17:26Z</time></trkpt><trkpt lat="44.53428806823326" lon="10.763381815563898"><ele>125.0</ele><time>2026-04-04T14:17:28Z</time></trkpt><trkpt lat="44.53438550403141" lon="10.76343340394057"><ele>125.0</ele><time>2026-04-04T14:17:30Z</time></trkpt><trkpt lat="44.53447125791231" lon="10.763491546242049"><ele>125.0</ele><time>2026-04-04T14:17:32Z</time></trkpt><trkpt lat="44.534550488475446" lon="10.76357217477813"><ele>125.0</ele><time>2026-04-04T14:17:34Z</time></trkpt><trkpt lat="44.53464845707822" lon="10.763634270003926"><ele>125.0</ele><time>2026-04-04T14:17:36Z</time></trkpt><trkpt lat="44.53475408333003" lon="10.763703968094369"><ele>125.2</ele><time>2026-04-04T14:17:38Z</time></trkpt><trkpt lat="44.534860102281975" lon="10.763773943661725"><ele>125.4</ele><time>2026-04-04T14:17:40Z</time></trkpt><trkpt lat="44.534971215580605" lon="10.763847570187437"><ele>125.6</ele><time>2026-04-04T14:17:42Z</time></trkpt><trkpt lat="44.53508459120301" lon="10.763930243192688"><ele>125.8</ele><time>2026-04-04T14:17:44Z</time></trkpt><trkpt lat="44.53514576555541" lon="10.763970805585767"><ele>126.0</ele><time>2026-04-04T14:17:45Z</time></trkpt><trkpt lat="44.53525666769282" lon="10.764055506945317"><ele>126.0</ele><time>2026-04-04T14:17:47Z</time></trkpt><trkpt lat="44.535367577705166" lon="10.764128979699699"><ele>126.0</ele><time>2026-04-04T14:17:49Z</time></trkpt><trkpt lat="44.535471401999665" lon="10.764203642332596"><ele>126.0</ele><time>2026-04-04T14:17:51Z</time></trkpt><trkpt lat="44.53556891780645" lon="10.764280999857279"><ele>126.0</ele><time>2026-04-04T14:17:53Z</time></trkpt><trkpt lat="44.53566140767918" lon="10.764342606683753"><ele>125.5</ele><time>2026-04-04T14:17:55Z</time></trkpt><trkpt lat="44.5357447367051" lon="10.764394388480975"><ele>125.0</ele><time>2026-04-04T14:17:57Z</time></trkpt><trkpt lat="44.53581875786009" lon="10.764442773743543"><ele>124.5</ele><time>2026-04-04T14:17:59Z</time></trkpt><trkpt lat="44.53589514204963" lon="10.764481735640661"><ele>124.0</ele><time>2026-04-04T14:18:01Z</time></trkpt><trkpt lat="44.5359842956382" lon="10.764520578437736"><ele>123.5</ele><time>2026-04-04T14:18:03Z</time></trkpt><trkpt lat="44.53605854159693" lon="10.76459278704168"><ele>123.0</ele><time>2026-04-04T14:18:05Z</time></trkpt><trkpt lat="44.536128613137066" lon="10.764648543616277"><ele>123.0</ele><time>2026-04-04T14:18:07Z</time></trkpt><trkpt lat="44.536201352551025" lon="10.76468659039543"><ele>123.00000000000001</ele><time>2026-04-04T14:18:09Z</time></trkpt><trkpt lat="44.53629036947907" lon="10.764763591490727"><ele>123.00000000000001</ele><time>2026-04-04T14:18:11Z</time></trkpt><trkpt lat="44.53638315424909" lon="10.764830193828194"><ele>123.0</ele><time>2026-04-04T14:18:13Z</time></trkpt><trkpt lat="44.536475413130724" lon="10.764890117358211"><ele>123.0</ele><time>2026-04-04T14:18:15Z</time></trkpt><trkpt lat="44.53657682092867" lon="10.764944680466863"><ele>122.25</ele><time>2026-04-04T14:18:17Z</time></trkpt><trkpt lat="44.53668714095017" lon="10.765013335653315"><ele>121.5</ele><time>2026-04-04T14:18:19Z</time></trkpt><trkpt lat="44.53679349146379" lon="10.76507721427844"><ele>120.75</ele><time>2026-04-04T14:18:21Z</time></trkpt><trkpt lat="44.53689824289849" lon="10.765149782868622"><ele>120.0</ele><time>2026-04-04T14:18:23Z</time></trkpt><trkpt lat="44.536995641170904" lon="10.765247298036709"><ele>119.25</ele><time>2026-04-04T14:18:25Z</time></trkpt><trkpt lat="44.53708433650629" lon="10.76535165137486"><ele>118.5</ele><time>2026-04-04T14:18:27Z</time></trkpt><trkpt lat="44.53716667767958" lon="10.765465395943691"><ele>117.75</ele><time>2026-04-04T14:18:29Z</time></trkpt><trkpt lat="44.537245073943076" lon="10.765583549126227"><ele>117.0</ele><time>2026-04-04T14:18:31Z</time></trkpt><trkpt lat="44.5373201941934" lon="10.765695580149833"><ele>117.0</ele><time>2026-04-04T14:18:33Z</time></trkpt><trkpt lat="44.5374005566951" lon="10.765806307526631"><ele>116.99999999999999</ele><time>2026-04-04T14:18:35Z</time></trkpt><trkpt lat="44.537484729613325" lon="10.765914686460809"><ele>116.99999999999999</ele><time>2026-04-04T14:18:37Z</time></trkpt><trkpt lat="44.53757810811465" lon="10.766012818226173"><ele>117.0</ele><time>2026-04-04T14:18:39Z</time></trkpt><trkpt lat="44.53767165179709" lon="10.766077714244512"><ele>117.0</ele><time>2026-04-04T14:18:41Z</time></trkpt><trkpt lat="44.53775544468086" lon="10.766149242147476"><ele>117.0</ele><time>2026-04-04T14:18:43Z</time></trkpt><trkpt lat="44.5378423251323" lon="10.766200568602878"><ele>116.99999999999999</ele><time>2026-04-04T14:18:45Z</time></trkpt><trkpt lat="44.537939428391034" lon="10.76623749673837"><ele>116.99999999999999</ele><time>2026-04-04T14:18:47Z</time></trkpt><trkpt lat="44.538042869193" lon="10.766289154369499"><ele>117.0</ele><time>2026-04-04T14:18:49Z</time></trkpt><trkpt lat="44.5381476051989" lon="10.766325958029785"><ele>117.0</ele><time>2026-04-04T14:18:51Z</time></trkpt><trkpt lat="44.53824729910924" lon="10.766360294859231"><ele>117.0</ele><time>2026-04-04T14:18:53Z</time></trkpt><trkpt lat="44.5383516518478" lon="10.766390923591086"><ele>116.99999999999999</ele><time>2026-04-04T14:18:55Z</time></trkpt><trkpt lat="44.53845491523638" lon="10.766428698315325"><ele>116.99999999999999</ele><time>2026-04-04T14:18:57Z</time></trkpt><trkpt lat="44.53855373282803" lon="10.76648997748898"><ele>117.0</ele><time>2026-04-04T14:18:59Z</time></trkpt><trkpt lat="44.538644949313685" lon="10.76654299332188"><ele>117.0</ele><time>2026-04-04T14:19:01Z</time></trkpt><trkpt lat="44.53873340925226" lon="10.766597643120926"><ele>117.0</ele><time>2026-04-04T14:19:03Z</time></trkpt><trkpt lat="44.53882484487789" lon="10.76666188882723"><ele>116.99999999999999</ele><time>2026-04-04T14:19:05Z</time></trkpt><trkpt lat="44.53891346460526" lon="10.766723311594614"><ele>116.99999999999999</ele><time>2026-04-04T14:19:07Z</time></trkpt><trkpt lat="44.538996846964764" lon="10.766785571175685"><ele>117.0</ele><time>2026-04-04T14:19:09Z</time></trkpt><trkpt lat="44.53908499183959" lon="10.766823681704855"><ele>117.0</ele><time>2026-04-04T14:19:11Z</time></trkpt><trkpt lat="44.53916994133571" lon="10.766898693166851"><ele>117.0</ele><time>2026-04-04T14:19:13Z</time></trkpt><trkpt lat="44.539262684392085" lon="10.766948747350938"><ele>116.99999999999999</ele><time>2026-04-04T14:19:15Z</time></trkpt><trkpt lat="44.539352675692186" lon="10.766986110796942"><ele>116.99999999999999</ele><time>2026-04-04T14:19:17Z</time></trkpt><trkpt lat="44.539443040190875" lon="10.767018223072098"><ele>117.0</ele><time>2026-04-04T14:19:19Z</time></trkpt><trkpt lat="44.53953212055494" lon="10.767052999635794"><ele>117.0</ele><time>2026-04-04T14:19:21Z</time></trkpt><trkpt lat="44.53961294246338" lon="10.767091450626037"><ele>117.0</ele><time>2026-04-04T14:19:23Z</time></trkpt><trkpt lat="44.53969006375269" lon="10.767124533807667"><ele>117.0</ele><time>2026-04-04T14:19:25Z</time></trkpt><trkpt lat="44.53976938276174" lon="10.767115196326138"><ele>117.0</ele><time>2026-04-04T14:19:27Z</time></trkpt><trkpt lat="44.53985060441082" lon="10.767141615656511"><ele>117.0</ele><time>2026-04-04T14:19:29Z</time></trkpt><trkpt lat="44.53993744740461" lon="10.767188588392646"><ele>117.0</ele><time>2026-04-04T14:19:31Z</time></trkpt><trkpt lat="44.54003017021116" lon="10.767222493864375"><ele>117.0</ele><time>2026-04-04T14:19:33Z</time></trkpt><trkpt lat="44.54012473512863" lon="10.76726611664656"><ele>117.0</ele><time>2026-04-04T14:19:35Z</time></trkpt><trkpt lat="44.54020870286933" lon="10.767302296338498"><ele>116.99999999999999</ele><time>2026-04-04T14:19:37Z</time></trkpt><trkpt lat="44.54029486628544" lon="10.76734052060391"><ele>116.99999999999999</ele><time>2026-04-04T14:19:39Z</time></trkpt><trkpt lat="44.540389505661146" lon="10.767382480623308"><ele>117.0</ele><time>2026-04-04T14:19:41Z</time></trkpt><trkpt lat="44.54048576922738" lon="10.767421405643303"><ele>117.0</ele><time>2026-04-04T14:19:43Z</time></trkpt><trkpt lat="44.54057925708965" lon="10.767471589194772"><ele>117.0</ele><time>2026-04-04T14:19:45Z</time></trkpt><trkpt lat="44.54067430152584" lon="10.767515484780258"><ele>116.99999999999999</ele><time>2026-04-04T14:19:47Z</time></trkpt><trkpt lat="44.5407621985877" lon="10.767561865435905"><ele>116.99999999999999</ele><time>2026-04-04T14:19:49Z</time></trkpt><trkpt lat="44.54084497118947" lon="10.767612842893483"><ele>117.0</ele><time>2026-04-04T14:19:51Z</time></trkpt><trkpt lat="44.540926451909286" lon="10.767668233099991"><ele>117.0</ele><time>2026-04-04T14:19:53Z</time></trkpt><trkpt lat="44.5410107218012" lon="10.767738457794733"><ele>117.0</ele><time>2026-04-04T14:19:55Z</time></trkpt><trkpt lat="44.5410922768384" lon="10.76781744924154"><ele>116.99999999999999</ele><time>2026-04-04T14:19:57Z</time></trkpt><trkpt lat="44.54118015235294" lon="10.767899215457668"><ele>116.99999999999999</ele><time>2026-04-04T14:19:59Z</time></trkpt><trkpt lat="44.54126702420214" lon="10.76798616393179"><ele>117.0</ele><time>2026-04-04T14:20:01Z</time></trkpt><trkpt lat="44.54135730880314" lon="10.768067686251273"><ele>117.0</ele><time>2026-04-04T14:20:03Z</time></trkpt><trkpt lat="44.541446296180716" lon="10.768151401668689"><ele>117.19999999999999</ele><time>2026-04-04T14:20:05Z</time></trkpt><trkpt lat="44.54154024671905" lon="10.768218600845124"><ele>117.39999999999999</ele><time>2026-04-04T14:20:07Z</time></trkpt><trkpt lat="44.541620442479825" lon="10.768290040663453"><ele>117.60000000000001</ele><time>2026-04-04T14:20:09Z</time></trkpt><trkpt lat="44.54169755765542" lon="10.768348815017067"><ele>117.80000000000001</ele><time>2026-04-04T14:20:10.999Z</time></trkpt><trkpt lat="44.54176647560966" lon="10.768404589591054"><ele>118.0</ele><time>2026-04-04T14:20:12.999Z</time></trkpt><trkpt lat="44.54184964915219" lon="10.768452793503714"><ele>118.0</ele><time>2026-04-04T14:20:14.999Z</time></trkpt><trkpt lat="44.54193294170358" lon="10.768506459714402"><ele>118.00000000000001</ele><time>2026-04-04T14:20:16.999Z</time></trkpt><trkpt lat="44.54201150503789" lon="10.768579127660498"><ele>118.00000000000001</ele><time>2026-04-04T14:20:18.999Z</time></trkpt><trkpt lat="44.54209645661832" lon="10.768652438018679"><ele>118.0</ele><time>2026-04-04T14:20:20.999Z</time></trkpt><trkpt lat="44.54219314717464" lon="10.768718134913408"><ele>118.0</ele><time>2026-04-04T14:20:22.999Z</time></trkpt><trkpt lat="44.54228510901455" lon="10.768791064289244"><ele>118.16666666666667</ele><time>2026-04-04T14:20:24.999Z</time></trkpt><trkpt lat="44.54236752382229" lon="10.768834749793351"><ele>118.33333333333334</ele><time>2026-04-04T14:20:26.999Z</time></trkpt><trkpt lat="44.54243431714791" lon="10.768806332127312"><ele>118.5</ele><time>2026-04-04T14:20:28.999Z</time></trkpt><trkpt lat="44.54247833126095" lon="10.768713448567679"><ele>118.66666666666666</ele><time>2026-04-04T14:20:30.999Z</time></trkpt><trkpt lat="44.54252270285102" lon="10.768604700299498"><ele>118.83333333333333</ele><time>2026-04-04T14:20:32.999Z</time></trkpt><trkpt lat="44.542564889627684" lon="10.768493797939877"><ele>119.0</ele><time>2026-04-04T14:20:34.999Z</time></trkpt><trkpt lat="44.54260884714959" lon="10.768392491557975"><ele>118.6</ele><time>2026-04-04T14:20:36.999Z</time></trkpt><trkpt lat="44.542659915864014" lon="10.76829266302616"><ele>118.2</ele><time>2026-04-04T14:20:39Z</time></trkpt><trkpt lat="44.542707406863755" lon="10.768174767501332"><ele>117.79999999999998</ele><time>2026-04-04T14:20:41Z</time></trkpt><trkpt lat="44.54276621736361" lon="10.76805792621344"><ele>117.39999999999999</ele><time>2026-04-04T14:20:43Z</time></trkpt><trkpt lat="44.54281764726576" lon="10.767942050120464"><ele>117.0</ele><time>2026-04-04T14:20:45Z</time></trkpt><trkpt lat="44.54286754931363" lon="10.767831117994621"><ele>116.5</ele><time>2026-04-04T14:20:47Z</time></trkpt><trkpt lat="44.542916492743366" lon="10.7677220489395"><ele>116.0</ele><time>2026-04-04T14:20:49Z</time></trkpt><trkpt lat="44.54296485723711" lon="10.767614268135233"><ele>115.5</ele><time>2026-04-04T14:20:51Z</time></trkpt><trkpt lat="44.54300985901161" lon="10.767511824789722"><ele>115.0</ele><time>2026-04-04T14:20:53Z</time></trkpt><trkpt lat="44.54305481964292" lon="10.767410266519938"><ele>114.5</ele><time>2026-04-04T14:20:55Z</time></trkpt><trkpt lat="44.543097575663126" lon="10.767307654114457"><ele>114.0</ele><time>2026-04-04T14:20:57Z</time></trkpt><trkpt lat="44.54314335668902" lon="10.767206502041772"><ele>114.0</ele><time>2026-04-04T14:20:59Z</time></trkpt><trkpt lat="44.54318966821114" lon="10.767099540627791"><ele>114.0</ele><time>2026-04-04T14:21:01Z</time></trkpt><trkpt lat="44.54323510358602" lon="10.766996747179421"><ele>114.0</ele><time>2026-04-04T14:21:03Z</time></trkpt><trkpt lat="44.54327861090448" lon="10.766897485634473"><ele>114.0</ele><time>2026-04-04T14:21:05Z</time></trkpt><trkpt lat="44.5433239410837" lon="10.766797934280337"><ele>114.0</ele><time>2026-04-04T14:21:07Z</time></trkpt><trkpt lat="44.54337102266328" lon="10.766692743519918"><ele>114.0</ele><time>2026-04-04T14:21:09Z</time></trkpt><trkpt lat="44.543417300635085" lon="10.766580332363324"><ele>114.5</ele><time>2026-04-04T14:21:11Z</time></trkpt><trkpt lat="44.54346173031195" lon="10.766460505801064"><ele>115.0</ele><time>2026-04-04T14:21:13Z</time></trkpt><trkpt lat="44.54350754532517" lon="10.76635524675925"><ele>115.5</ele><time>2026-04-04T14:21:15Z</time></trkpt><trkpt lat="44.54356170050708" lon="10.766271708517786"><ele>116.0</ele><time>2026-04-04T14:21:17Z</time></trkpt><trkpt lat="44.54360773514807" lon="10.766179724735427"><ele>116.5</ele><time>2026-04-04T14:21:19Z</time></trkpt><trkpt lat="44.54361762609581" lon="10.766059734111334"><ele>117.0</ele><time>2026-04-04T14:21:21Z</time></trkpt><trkpt lat="44.543540214420105" lon="10.765976559701654"><ele>117.16666666666667</ele><time>2026-04-04T14:21:23Z</time></trkpt><trkpt lat="44.543456488759126" lon="10.765912462636642"><ele>117.33333333333334</ele><time>2026-04-04T14:21:25Z</time></trkpt><trkpt lat="44.543376634590196" lon="10.765843574064503"><ele>117.5</ele><time>2026-04-04T14:21:27Z</time></trkpt><trkpt lat="44.54329437979504" lon="10.765784592382657"><ele>117.66666666666667</ele><time>2026-04-04T14:21:29Z</time></trkpt><trkpt lat="44.54322016235079" lon="10.765723004005785"><ele>117.83333333333334</ele><time>2026-04-04T14:21:31Z</time></trkpt><trkpt lat="44.54316017975466" lon="10.76566941946596"><ele>118.0</ele><time>2026-04-04T14:21:33Z</time></trkpt><trkpt lat="44.54309988856355" lon="10.765621332910422"><ele>118.00000000000001</ele><time>2026-04-04T14:21:35Z</time></trkpt><trkpt lat="44.54303258927512" lon="10.765561584864281"><ele>118.0</ele><time>2026-04-04T14:21:37Z</time></trkpt><trkpt lat="44.54298403306507" lon="10.765487453000986"><ele>118.0</ele><time>2026-04-04T14:21:38.999Z</time></trkpt><trkpt lat="44.54300721154828" lon="10.765376817997009"><ele>118.0</ele><time>2026-04-04T14:21:40.999Z</time></trkpt><trkpt lat="44.54304954096336" lon="10.76528664535461"><ele>118.00000000000001</ele><time>2026-04-04T14:21:42.999Z</time></trkpt><trkpt lat="44.543100457719454" lon="10.765194986763701"><ele>118.0</ele><time>2026-04-04T14:21:44.999Z</time></trkpt><trkpt lat="44.54316366306419" lon="10.765139277387615"><ele>118.0</ele><time>2026-04-04T14:21:46.999Z</time></trkpt><trkpt lat="44.54322871914646" lon="10.765163015154842"><ele>118.0</ele><time>2026-04-04T14:21:48.999Z</time></trkpt><trkpt lat="44.54328779746575" lon="10.76519882452721"><ele>118.0</ele><time>2026-04-04T14:21:52.999Z</time></trkpt><trkpt lat="44.54334746752518" lon="10.765248120001585"><ele>118.0</ele><time>2026-04-04T14:21:55.999Z</time></trkpt><trkpt lat="44.54341796265701" lon="10.765308657947976"><ele>118.0</ele><time>2026-04-04T14:21:58.999Z</time></trkpt><trkpt lat="44.5434768015777" lon="10.76535184905709"><ele>118.0</ele><time>2026-04-04T14:22:00.999Z</time></trkpt><trkpt lat="44.543545220453545" lon="10.765412685744446"><ele>118.0</ele><time>2026-04-04T14:22:02.999Z</time></trkpt><trkpt lat="44.54361377721497" lon="10.765469492303625"><ele>118.00000000000001</ele><time>2026-04-04T14:22:04.999Z</time></trkpt><trkpt lat="44.54369107723889" lon="10.765530286212833"><ele>118.0</ele><time>2026-04-04T14:22:06.999Z</time></trkpt><trkpt lat="44.54376595556607" lon="10.76559394299757"><ele>118.0</ele><time>2026-04-04T14:22:08.999Z</time></trkpt><trkpt lat="44.54383708923991" lon="10.765653232902343"><ele>118.0</ele><time>2026-04-04T14:22:10.999Z</time></trkpt><trkpt lat="44.54391731602968" lon="10.765716371391136"><ele>118.00000000000001</ele><time>2026-04-04T14:22:12.999Z</time></trkpt><trkpt lat="44.544005094818324" lon="10.76577358987988"><ele>118.0</ele><time>2026-04-04T14:22:14.999Z</time></trkpt><trkpt lat="44.544098022332896" lon="10.765815562031845"><ele>117.83333333333334</ele><time>2026-04-04T14:22:16.999Z</time></trkpt><trkpt lat="44.544187603556814" lon="10.76585964079041"><ele>117.66666666666667</ele><time>2026-04-04T14:22:18.999Z</time></trkpt><trkpt lat="44.54426905647565" lon="10.765919206643257"><ele>117.5</ele><time>2026-04-04T14:22:20.999Z</time></trkpt><trkpt lat="44.54433454658061" lon="10.765980044594771"><ele>117.33333333333334</ele><time>2026-04-04T14:22:22.999Z</time></trkpt><trkpt lat="44.544397251067814" lon="10.766034395550902"><ele>117.16666666666667</ele><time>2026-04-04T14:22:24.999Z</time></trkpt><trkpt lat="44.54446026411024" lon="10.76607748837089"><ele>117.0</ele><time>2026-04-04T14:22:26.999Z</time></trkpt><trkpt lat="44.54451244815089" lon="10.76601390498238"><ele>117.0</ele><time>2026-04-04T14:22:28.999Z</time></trkpt><trkpt lat="44.5445034550536" lon="10.765908528715972"><ele>117.0</ele><time>2026-04-04T14:22:30.999Z</time></trkpt><trkpt lat="44.544500931511024" lon="10.765792816666801"><ele>117.0</ele><time>2026-04-04T14:22:32.999Z</time></trkpt><trkpt lat="44.54452287915598" lon="10.765674827904146"><ele>117.0</ele><time>2026-04-04T14:22:34.999Z</time></trkpt><trkpt lat="44.54454165621024" lon="10.76555498139294"><ele>117.0</ele><time>2026-04-04T14:22:36.999Z</time></trkpt><trkpt lat="44.54455870601006" lon="10.765439715801953"><ele>117.0</ele><time>2026-04-04T14:22:38.999Z</time></trkpt><trkpt lat="44.54457342350737" lon="10.765327085415189"><ele>117.0</ele><time>2026-04-04T14:22:40.999Z</time></trkpt><trkpt lat="44.54459032213192" lon="10.765215786171662"><ele>117.00000000000001</ele><time>2026-04-04T14:22:42.999Z</time></trkpt><trkpt lat="44.54461933875186" lon="10.765117325074312"><ele>117.0</ele><time>2026-04-04T14:22:45Z</time></trkpt><trkpt lat="44.54465405501213" lon="10.765041586986012"><ele>117.0</ele><time>2026-04-04T14:22:47Z</time></trkpt><trkpt lat="44.544708214685556" lon="10.764964117049844"><ele>117.00000000000001</ele><time>2026-04-04T14:22:50Z</time></trkpt><trkpt lat="44.54468183265391" lon="10.76487298114933"><ele>117.0</ele><time>2026-04-04T14:22:53Z</time></trkpt><trkpt lat="44.544632800991046" lon="10.764800910663183"><ele>117.0</ele><time>2026-04-04T14:22:55Z</time></trkpt><trkpt lat="44.54464184030894" lon="10.764689847605963"><ele>117.6</ele><time>2026-04-04T14:22:57Z</time></trkpt><trkpt lat="44.544627856482705" lon="10.76456571883981"><ele>118.19999999999999</ele><time>2026-04-04T14:22:59Z</time></trkpt><trkpt lat="44.544588491342246" lon="10.764439761460954"><ele>118.8</ele><time>2026-04-04T14:23:01Z</time></trkpt><trkpt lat="44.544556130340204" lon="10.764303258754351"><ele>119.4</ele><time>2026-04-04T14:23:03Z</time></trkpt><trkpt lat="44.54451981338985" lon="10.764162950764563"><ele>120.0</ele><time>2026-04-04T14:23:05Z</time></trkpt><trkpt lat="44.54448021417013" lon="10.764025767252823"><ele>120.2</ele><time>2026-04-04T14:23:07Z</time></trkpt><trkpt lat="44.54444931281555" lon="10.763887374715209"><ele>120.4</ele><time>2026-04-04T14:23:09Z</time></trkpt><trkpt lat="44.54441203383002" lon="10.763740407970966"><ele>120.6</ele><time>2026-04-04T14:23:11Z</time></trkpt><trkpt lat="44.54437015771534" lon="10.763598209135774"><ele>120.8</ele><time>2026-04-04T14:23:13Z</time></trkpt><trkpt lat="44.54433064613228" lon="10.763454145537477"><ele>121.0</ele><time>2026-04-04T14:23:15Z</time></trkpt><trkpt lat="44.54429411328863" lon="10.76331640108971"><ele>121.00000000000001</ele><time>2026-04-04T14:23:17Z</time></trkpt><trkpt lat="44.5442550734355" lon="10.763191110068185"><ele>121.0</ele><time>2026-04-04T14:23:19Z</time></trkpt><trkpt lat="44.54422490595021" lon="10.763073846958012"><ele>121.0</ele><time>2026-04-04T14:23:21Z</time></trkpt><trkpt lat="44.54419639604254" lon="10.762965165236308"><ele>121.0</ele><time>2026-04-04T14:23:23Z</time></trkpt><trkpt lat="44.54416298892691" lon="10.762842101078482"><ele>121.00000000000001</ele><time>2026-04-04T14:23:25Z</time></trkpt><trkpt lat="44.544129562994804" lon="10.76272973545499"><ele>121.0</ele><time>2026-04-04T14:23:27Z</time></trkpt><trkpt lat="44.544094233065316" lon="10.762648416282095"><ele>121.50000000000001</ele><time>2026-04-04T14:23:29Z</time></trkpt><trkpt lat="44.54403647185436" lon="10.762573926952923"><ele>122.0</ele><time>2026-04-04T14:23:32Z</time></trkpt><trkpt lat="44.544051752357426" lon="10.762465468509994"><ele>122.5</ele><time>2026-04-04T14:23:35Z</time></trkpt><trkpt lat="44.54403253635757" lon="10.762359081565153"><ele>123.0</ele><time>2026-04-04T14:23:37Z</time></trkpt><trkpt lat="44.543944677624665" lon="10.762302770856513"><ele>123.50000000000001</ele><time>2026-04-04T14:23:39Z</time></trkpt><trkpt lat="44.54386406653339" lon="10.762221832388361"><ele>124.0</ele><time>2026-04-04T14:23:41Z</time></trkpt><trkpt lat="44.54377605198949" lon="10.762135246740836"><ele>123.6</ele><time>2026-04-04T14:23:43Z</time></trkpt><trkpt lat="44.543691447184585" lon="10.762058308480867"><ele>123.2</ele><time>2026-04-04T14:23:45Z</time></trkpt><trkpt lat="44.54360975155122" lon="10.761972171696202"><ele>122.79999999999998</ele><time>2026-04-04T14:23:47Z</time></trkpt><trkpt lat="44.54352843179936" lon="10.761888709728797"><ele>122.39999999999999</ele><time>2026-04-04T14:23:49Z</time></trkpt><trkpt lat="44.54344160162278" lon="10.76180666802216"><ele>122.0</ele><time>2026-04-04T14:23:51Z</time></trkpt><trkpt lat="44.54335328265609" lon="10.761720372899937"><ele>121.99999999999999</ele><time>2026-04-04T14:23:53Z</time></trkpt><trkpt lat="44.54327173744599" lon="10.761640524264719"><ele>122.0</ele><time>2026-04-04T14:23:55Z</time></trkpt><trkpt lat="44.54320003809331" lon="10.76156657936745"><ele>122.0</ele><time>2026-04-04T14:23:57Z</time></trkpt><trkpt lat="44.54313476195875" lon="10.761501901525893"><ele>122.0</ele><time>2026-04-04T14:23:59Z</time></trkpt><trkpt lat="44.54307352881521" lon="10.761474397173782"><ele>121.99999999999999</ele><time>2026-04-04T14:24:01Z</time></trkpt><trkpt lat="44.54299520157804" lon="10.761394326101628"><ele>122.0</ele><time>2026-04-04T14:24:03Z</time></trkpt><trkpt lat="44.54291842420092" lon="10.761287834181369"><ele>121.25</ele><time>2026-04-04T14:24:05Z</time></trkpt><trkpt lat="44.54283215524093" lon="10.76118801983455"><ele>120.5</ele><time>2026-04-04T14:24:07Z</time></trkpt><trkpt lat="44.54273102065393" lon="10.76110337535157"><ele>119.75</ele><time>2026-04-04T14:24:09Z</time></trkpt><trkpt lat="44.54263896083576" lon="10.761012833971233"><ele>119.0</ele><time>2026-04-04T14:24:11Z</time></trkpt><trkpt lat="44.54255034710561" lon="10.760920726439231"><ele>118.99999999999999</ele><time>2026-04-04T14:24:13Z</time></trkpt><trkpt lat="44.54247098037649" lon="10.7608441026186"><ele>119.0</ele><time>2026-04-04T14:24:15Z</time></trkpt><trkpt lat="44.542401024846086" lon="10.76077774524331"><ele>119.0</ele><time>2026-04-04T14:24:17Z</time></trkpt><trkpt lat="44.54236120248079" lon="10.76069220819683"><ele>119.0</ele><time>2026-04-04T14:24:19Z</time></trkpt><trkpt lat="44.54229439824069" lon="10.760637574067552"><ele>118.99999999999999</ele><time>2026-04-04T14:24:21Z</time></trkpt><trkpt lat="44.54221213968638" lon="10.760582204586731"><ele>119.0</ele><time>2026-04-04T14:24:23Z</time></trkpt><trkpt lat="44.542151384535416" lon="10.760469818156343"><ele>119.0</ele><time>2026-04-04T14:24:25Z</time></trkpt><trkpt lat="44.54207645973782" lon="10.760361772942769"><ele>119.0</ele><time>2026-04-04T14:24:27Z</time></trkpt><trkpt lat="44.541997946873764" lon="10.760274683674885"><ele>119.0</ele><time>2026-04-04T14:24:29Z</time></trkpt><trkpt lat="44.541922963285586" lon="10.760203013615074"><ele>119.0</ele><time>2026-04-04T14:24:31Z</time></trkpt><trkpt lat="44.541848449186084" lon="10.760156305850575"><ele>119.0</ele><time>2026-04-04T14:24:33Z</time></trkpt><trkpt lat="44.54176642414758" lon="10.760132014516191"><ele>120.4</ele><time>2026-04-04T14:24:35Z</time></trkpt><trkpt lat="44.54168170759428" lon="10.76010761987296"><ele>121.80000000000001</ele><time>2026-04-04T14:24:37Z</time></trkpt><trkpt lat="44.541598113743134" lon="10.760058058582088"><ele>123.19999999999999</ele><time>2026-04-04T14:24:39Z</time></trkpt><trkpt lat="44.54150024606357" lon="10.76001654714744"><ele>124.6</ele><time>2026-04-04T14:24:41Z</time></trkpt><trkpt lat="44.54140736385568" lon="10.759970171449888"><ele>126.0</ele><time>2026-04-04T14:24:43Z</time></trkpt><trkpt lat="44.5413295826562" lon="10.759926936391778"><ele>126.0</ele><time>2026-04-04T14:24:45Z</time></trkpt><trkpt lat="44.541262450469475" lon="10.75988572245618"><ele>126.0</ele><time>2026-04-04T14:24:47Z</time></trkpt><trkpt lat="44.54118430494053" lon="10.759837634277726"><ele>126.0</ele><time>2026-04-04T14:24:50Z</time></trkpt><trkpt lat="44.5412154197878" lon="10.75970539557284"><ele>126.0</ele><time>2026-04-04T14:24:53Z</time></trkpt><trkpt lat="44.541267538581415" lon="10.759605233725859"><ele>126.0</ele><time>2026-04-04T14:24:55Z</time></trkpt><trkpt lat="44.54129109027236" lon="10.759485393735305"><ele>126.0</ele><time>2026-04-04T14:24:57Z</time></trkpt><trkpt lat="44.54126699627909" lon="10.759366909298672"><ele>126.66666666666667</ele><time>2026-04-04T14:24:59Z</time></trkpt><trkpt lat="44.541212223452874" lon="10.759269700815704"><ele>127.33333333333334</ele><time>2026-04-04T14:25:01Z</time></trkpt><trkpt lat="44.5411497926019" lon="10.759184536615743"><ele>128.0</ele><time>2026-04-04T14:25:03Z</time></trkpt><trkpt lat="44.54108577203887" lon="10.75910477628981"><ele>128.66666666666669</ele><time>2026-04-04T14:25:05Z</time></trkpt><trkpt lat="44.54103470385759" lon="10.759016473219646"><ele>129.33333333333334</ele><time>2026-04-04T14:25:07Z</time></trkpt><trkpt lat="44.54099243158367" lon="10.758915118860369"><ele>130.0</ele><time>2026-04-04T14:25:09Z</time></trkpt><trkpt lat="44.540976332473285" lon="10.75880908421195"><ele>130.0</ele><time>2026-04-04T14:25:11Z</time></trkpt><trkpt lat="44.54100509336305" lon="10.758684951319255"><ele>130.0</ele><time>2026-04-04T14:25:13Z</time></trkpt><trkpt lat="44.54101937932246" lon="10.758556182713457"><ele>130.0</ele><time>2026-04-04T14:25:15Z</time></trkpt><trkpt lat="44.54103634359489" lon="10.758433173603864"><ele>130.0</ele><time>2026-04-04T14:25:17Z</time></trkpt><trkpt lat="44.54104494319357" lon="10.75830786833533"><ele>130.0</ele><time>2026-04-04T14:25:19Z</time></trkpt><trkpt lat="44.54104936389336" lon="10.758192291807807"><ele>130.0</ele><time>2026-04-04T14:25:21Z</time></trkpt><trkpt lat="44.54105104653797" lon="10.758071850981773"><ele>131.0</ele><time>2026-04-04T14:25:23Z</time></trkpt><trkpt lat="44.54105927096925" lon="10.75794270162588"><ele>132.0</ele><time>2026-04-04T14:25:25Z</time></trkpt><trkpt lat="44.54107056286017" lon="10.757812713944114"><ele>133.0</ele><time>2026-04-04T14:25:27Z</time></trkpt><trkpt lat="44.541082522461515" lon="10.757675507512642"><ele>134.0</ele><time>2026-04-04T14:25:29Z</time></trkpt><trkpt lat="44.54109793538268" lon="10.757541994489564"><ele>135.0</ele><time>2026-04-04T14:25:31Z</time></trkpt><trkpt lat="44.541110300372594" lon="10.757410595360119"><ele>136.0</ele><time>2026-04-04T14:25:33Z</time></trkpt><trkpt lat="44.5411268092461" lon="10.757281735471775"><ele>137.0</ele><time>2026-04-04T14:25:35Z</time></trkpt><trkpt lat="44.541131122569375" lon="10.757151470487239"><ele>138.0</ele><time>2026-04-04T14:25:37Z</time></trkpt><trkpt lat="44.54113015035338" lon="10.757024118521503"><ele>139.0</ele><time>2026-04-04T14:25:39Z</time></trkpt><trkpt lat="44.541121721311214" lon="10.75689420093963"><ele>140.0</ele><time>2026-04-04T14:25:41Z</time></trkpt><trkpt lat="44.54110523384347" lon="10.756770153707595"><ele>140.66666666666666</ele><time>2026-04-04T14:25:43Z</time></trkpt><trkpt lat="44.54109028428393" lon="10.756656708501989"><ele>141.33333333333331</ele><time>2026-04-04T14:25:45Z</time></trkpt><trkpt lat="44.541065746285184" lon="10.756546830823762"><ele>142.0</ele><time>2026-04-04T14:25:47Z</time></trkpt><trkpt lat="44.54104285630881" lon="10.756433838615779"><ele>142.66666666666666</ele><time>2026-04-04T14:25:49Z</time></trkpt><trkpt lat="44.54102179745203" lon="10.756311516614913"><ele>143.33333333333334</ele><time>2026-04-04T14:25:51Z</time></trkpt><trkpt lat="44.54100323852991" lon="10.756189833836988"><ele>144.0</ele><time>2026-04-04T14:25:53Z</time></trkpt><trkpt lat="44.5409787618389" lon="10.756074655349442"><ele>145.16666666666666</ele><time>2026-04-04T14:25:55Z</time></trkpt><trkpt lat="44.54096121206442" lon="10.755960069943647"><ele>146.33333333333334</ele><time>2026-04-04T14:25:57Z</time></trkpt><trkpt lat="44.54094058406245" lon="10.755850714239331"><ele>147.5</ele><time>2026-04-04T14:25:59Z</time></trkpt><trkpt lat="44.54091892745877" lon="10.755733424398139"><ele>148.66666666666669</ele><time>2026-04-04T14:26:01Z</time></trkpt><trkpt lat="44.54089418300349" lon="10.755613577573794"><ele>149.83333333333334</ele><time>2026-04-04T14:26:03Z</time></trkpt><trkpt lat="44.54086616356559" lon="10.755496823498312"><ele>151.0</ele><time>2026-04-04T14:26:05Z</time></trkpt><trkpt lat="44.54084022017235" lon="10.755377136695783"><ele>151.0</ele><time>2026-04-04T14:26:07Z</time></trkpt><trkpt lat="44.54081497263483" lon="10.755246453413152"><ele>151.0</ele><time>2026-04-04T14:26:09Z</time></trkpt><trkpt lat="44.54078463695383" lon="10.755120605975547"><ele>151.0</ele><time>2026-04-04T14:26:11Z</time></trkpt><trkpt lat="44.540762244597865" lon="10.754993858319924"><ele>151.0</ele><time>2026-04-04T14:26:13Z</time></trkpt><trkpt lat="44.54075531761041" lon="10.754865021842866"><ele>151.0</ele><time>2026-04-04T14:26:15Z</time></trkpt><trkpt lat="44.54072830688571" lon="10.75473857918802"><ele>152.16666666666669</ele><time>2026-04-04T14:26:17Z</time></trkpt><trkpt lat="44.54071210954172" lon="10.754632327855065"><ele>153.33333333333334</ele><time>2026-04-04T14:26:19Z</time></trkpt><trkpt lat="44.540781797684645" lon="10.754564544458557"><ele>154.5</ele><time>2026-04-04T14:26:21Z</time></trkpt><trkpt lat="44.54085061315788" lon="10.7546399616688"><ele>155.66666666666666</ele><time>2026-04-04T14:26:23Z</time></trkpt><trkpt lat="44.54086399215159" lon="10.754764715937974"><ele>156.83333333333331</ele><time>2026-04-04T14:26:25Z</time></trkpt><trkpt lat="44.540881190887426" lon="10.75487073311757"><ele>158.0</ele><time>2026-04-04T14:26:27Z</time></trkpt><trkpt lat="44.540908521681104" lon="10.754983405256965"><ele>158.0</ele><time>2026-04-04T14:26:29Z</time></trkpt><trkpt lat="44.54094576966391" lon="10.755090675639874"><ele>158.0</ele><time>2026-04-04T14:26:31Z</time></trkpt><trkpt lat="44.54099064166945" lon="10.755191901048956"><ele>158.0</ele><time>2026-04-04T14:26:33Z</time></trkpt><trkpt lat="44.54103856819783" lon="10.755287871980414"><ele>158.0</ele><time>2026-04-04T14:26:35Z</time></trkpt><trkpt lat="44.54109337098229" lon="10.75538008791308"><ele>158.0</ele><time>2026-04-04T14:26:37Z</time></trkpt><trkpt lat="44.5411487698819" lon="10.755476281744041"><ele>158.0</ele><time>2026-04-04T14:26:39Z</time></trkpt><trkpt lat="44.54120611197195" lon="10.755577285441221"><ele>159.16666666666666</ele><time>2026-04-04T14:26:41Z</time></trkpt><trkpt lat="44.541266142980284" lon="10.755664923723534"><ele>160.33333333333331</ele><time>2026-04-04T14:26:43Z</time></trkpt><trkpt lat="44.54132300829174" lon="10.755744586535519"><ele>161.5</ele><time>2026-04-04T14:26:45Z</time></trkpt><trkpt lat="44.54136923514972" lon="10.755839492869738"><ele>162.66666666666666</ele><time>2026-04-04T14:26:47Z</time></trkpt><trkpt lat="44.541425096082385" lon="10.755931689146982"><ele>163.83333333333334</ele><time>2026-04-04T14:26:49Z</time></trkpt><trkpt lat="44.54148013575972" lon="10.756016533302402"><ele>165.0</ele><time>2026-04-04T14:26:51Z</time></trkpt><trkpt lat="44.54153157055559" lon="10.756097612299731"><ele>165.00000000000003</ele><time>2026-04-04T14:26:53Z</time></trkpt><trkpt lat="44.54158355158499" lon="10.756183259537872"><ele>165.0</ele><time>2026-04-04T14:26:55Z</time></trkpt><trkpt lat="44.541633807590294" lon="10.756261328027653"><ele>165.0</ele><time>2026-04-04T14:26:57Z</time></trkpt><trkpt lat="44.541679072051394" lon="10.75632540901663"><ele>165.0</ele><time>2026-04-04T14:26:59Z</time></trkpt><trkpt lat="44.54174665951426" lon="10.756392475887575"><ele>165.0</ele><time>2026-04-04T14:27:02Z</time></trkpt><trkpt lat="44.54178606897468" lon="10.75647119627882"><ele>165.00000000000003</ele><time>2026-04-04T14:27:04Z</time></trkpt><trkpt lat="44.54183894046795" lon="10.756534152778535"><ele>165.0</ele><time>2026-04-04T14:27:06Z</time></trkpt><trkpt lat="44.541894044664886" lon="10.756590260298667"><ele>165.0</ele><time>2026-04-04T14:27:08Z</time></trkpt><trkpt lat="44.54195556101683" lon="10.756667696256624"><ele>165.0</ele><time>2026-04-04T14:27:10Z</time></trkpt><trkpt lat="44.54202314157377" lon="10.756752497093341"><ele>165.0</ele><time>2026-04-04T14:27:12Z</time></trkpt><trkpt lat="44.54209260420528" lon="10.756844353556994"><ele>165.0</ele><time>2026-04-04T14:27:14Z</time></trkpt><trkpt lat="44.54215761039164" lon="10.756938552226368"><ele>165.0</ele><time>2026-04-04T14:27:16Z</time></trkpt><trkpt lat="44.54221897012605" lon="10.757034572574524"><ele>167.0</ele><time>2026-04-04T14:27:18Z</time></trkpt><trkpt lat="44.54226906497592" lon="10.757135072172558"><ele>169.0</ele><time>2026-04-04T14:27:20Z</time></trkpt><trkpt lat="44.542317296597794" lon="10.757238352816076"><ele>171.0</ele><time>2026-04-04T14:27:22Z</time></trkpt><trkpt lat="44.542368047736005" lon="10.757341623427223"><ele>173.0</ele><time>2026-04-04T14:27:24Z</time></trkpt><trkpt lat="44.542431060875515" lon="10.757428808958409"><ele>175.0</ele><time>2026-04-04T14:27:26Z</time></trkpt><trkpt lat="44.54250998571979" lon="10.757467907833497"><ele>177.0</ele><time>2026-04-04T14:27:28Z</time></trkpt><trkpt lat="44.542577218914104" lon="10.757403472861315"><ele>177.0</ele><time>2026-04-04T14:27:30Z</time></trkpt><trkpt lat="44.54256382597346" lon="10.757268551863026"><ele>177.0</ele><time>2026-04-04T14:27:32Z</time></trkpt><trkpt lat="44.54250208697054" lon="10.757152420544555"><ele>177.0</ele><time>2026-04-04T14:27:34Z</time></trkpt><trkpt lat="44.54246971964242" lon="10.75702196324302"><ele>177.0</ele><time>2026-04-04T14:27:36Z</time></trkpt><trkpt lat="44.54244500589267" lon="10.756903097247099"><ele>177.0</ele><time>2026-04-04T14:27:38Z</time></trkpt><trkpt lat="44.54242855410069" lon="10.756779664471113"><ele>178.33333333333334</ele><time>2026-04-04T14:27:40Z</time></trkpt><trkpt lat="44.54241185231144" lon="10.756666331845285"><ele>179.66666666666666</ele><time>2026-04-04T14:27:42Z</time></trkpt><trkpt lat="44.54239680264319" lon="10.756543529124345"><ele>181.0</ele><time>2026-04-04T14:27:44Z</time></trkpt><trkpt lat="44.5423815663173" lon="10.75642187885809"><ele>182.33333333333331</ele><time>2026-04-04T14:27:46Z</time></trkpt><trkpt lat="44.54235962831895" lon="10.756302897631915"><ele>183.66666666666666</ele><time>2026-04-04T14:27:48Z</time></trkpt><trkpt lat="44.54233686912225" lon="10.75618726564503"><ele>185.0</ele><time>2026-04-04T14:27:50Z</time></trkpt><trkpt lat="44.54231657863998" lon="10.756082012488884"><ele>186.0</ele><time>2026-04-04T14:27:52Z</time></trkpt><trkpt lat="44.54227881911383" lon="10.755980318902168"><ele>187.0</ele><time>2026-04-04T14:27:54Z</time></trkpt><trkpt lat="44.54223190890277" lon="10.755875850772751"><ele>188.0</ele><time>2026-04-04T14:27:56Z</time></trkpt><trkpt lat="44.54218907647989" lon="10.755772767561465"><ele>189.0</ele><time>2026-04-04T14:27:58Z</time></trkpt><trkpt lat="44.542157581150455" lon="10.755659251154523"><ele>190.0</ele><time>2026-04-04T14:28:00Z</time></trkpt><trkpt lat="44.54215357259816" lon="10.755531567947084"><ele>191.0</ele><time>2026-04-04T14:28:02Z</time></trkpt><trkpt lat="44.54217941271341" lon="10.755405360944968"><ele>191.0</ele><time>2026-04-04T14:28:04Z</time></trkpt><trkpt lat="44.54222846255108" lon="10.755291183697137"><ele>191.0</ele><time>2026-04-04T14:28:06Z</time></trkpt><trkpt lat="44.54227455282942" lon="10.755173991759474"><ele>191.0</ele><time>2026-04-04T14:28:08Z</time></trkpt><trkpt lat="44.54232421214038" lon="10.75505748053123"><ele>191.0</ele><time>2026-04-04T14:28:10Z</time></trkpt><trkpt lat="44.54237317176984" lon="10.754937851352707"><ele>191.0</ele><time>2026-04-04T14:28:12Z</time></trkpt><trkpt lat="44.54241720886157" lon="10.754828256500726"><ele>191.0</ele><time>2026-04-04T14:28:14Z</time></trkpt><trkpt lat="44.54246449581645" lon="10.75472537657301"><ele>191.0</ele><time>2026-04-04T14:28:16Z</time></trkpt><trkpt lat="44.542507810450346" lon="10.754623465545674"><ele>191.0</ele><time>2026-04-04T14:28:18Z</time></trkpt><trkpt lat="44.54252123512421" lon="10.754535286510812"><ele>191.0</ele><time>2026-04-04T14:28:20Z</time></trkpt><trkpt lat="44.542481350893695" lon="10.754434031597627"><ele>191.0</ele><time>2026-04-04T14:28:22Z</time></trkpt><trkpt lat="44.542455039183054" lon="10.75431121517621"><ele>191.0</ele><time>2026-04-04T14:28:24Z</time></trkpt><trkpt lat="44.542421640331035" lon="10.754179557975162"><ele>191.0</ele><time>2026-04-04T14:28:26Z</time></trkpt><trkpt lat="44.54237825850015" lon="10.754053600405681"><ele>191.0</ele><time>2026-04-04T14:28:28Z</time></trkpt><trkpt lat="44.54234556314026" lon="10.75393466765821"><ele>191.0</ele><time>2026-04-04T14:28:30Z</time></trkpt><trkpt lat="44.54231596848082" lon="10.753829673473264"><ele>191.0</ele><time>2026-04-04T14:28:32Z</time></trkpt><trkpt lat="44.54229360073795" lon="10.753739461556199"><ele>191.0</ele><time>2026-04-04T14:28:34Z</time></trkpt><trkpt lat="44.54227369270674" lon="10.75362720165424"><ele>191.0</ele><time>2026-04-04T14:28:37Z</time></trkpt><trkpt lat="44.54222705363899" lon="10.753543322689573"><ele>191.5</ele><time>2026-04-04T14:28:39Z</time></trkpt><trkpt lat="44.54222629282041" lon="10.75343210680262"><ele>192.0</ele><time>2026-04-04T14:28:41Z</time></trkpt><trkpt lat="44.54222497410815" lon="10.75331607203602"><ele>192.5</ele><time>2026-04-04T14:28:44Z</time></trkpt><trkpt lat="44.54220424568767" lon="10.753197548864511"><ele>193.0</ele><time>2026-04-04T14:28:48Z</time></trkpt><trkpt lat="44.54219256423133" lon="10.753078277134888"><ele>193.50000000000003</ele><time>2026-04-04T14:28:51Z</time></trkpt><trkpt lat="44.54217863889326" lon="10.752953316409434"><ele>194.0</ele><time>2026-04-04T14:28:54Z</time></trkpt><trkpt lat="44.54217050120098" lon="10.752820443741369"><ele>193.6</ele><time>2026-04-04T14:28:57Z</time></trkpt><trkpt lat="44.54217909555125" lon="10.752703841057183"><ele>193.2</ele><time>2026-04-04T14:28:59Z</time></trkpt><trkpt lat="44.54217683066905" lon="10.752566218390545"><ele>192.79999999999998</ele><time>2026-04-04T14:29:01Z</time></trkpt><trkpt lat="44.54216021084856" lon="10.752427792150675"><ele>192.39999999999998</ele><time>2026-04-04T14:29:03Z</time></trkpt><trkpt lat="44.54214293671139" lon="10.75229532738776"><ele>192.0</ele><time>2026-04-04T14:29:05Z</time></trkpt><trkpt lat="44.54212542060404" lon="10.752162878829969"><ele>192.0</ele><time>2026-04-04T14:29:07Z</time></trkpt><trkpt lat="44.5421190309437" lon="10.752019644533016"><ele>192.0</ele><time>2026-04-04T14:29:09Z</time></trkpt><trkpt lat="44.542099515977625" lon="10.751879457085447"><ele>192.0</ele><time>2026-04-04T14:29:11Z</time></trkpt><trkpt lat="44.54208455148517" lon="10.7517363867447"><ele>192.0</ele><time>2026-04-04T14:29:13Z</time></trkpt><trkpt lat="44.542070315700265" lon="10.751596188534336"><ele>192.0</ele><time>2026-04-04T14:29:15Z</time></trkpt><trkpt lat="44.542057001797716" lon="10.751452853694271"><ele>192.2</ele><time>2026-04-04T14:29:17Z</time></trkpt><trkpt lat="44.54204193975532" lon="10.751311475522824"><ele>192.39999999999998</ele><time>2026-04-04T14:29:19Z</time></trkpt><trkpt lat="44.542023642574925" lon="10.751172159084067"><ele>192.60000000000002</ele><time>2026-04-04T14:29:21Z</time></trkpt><trkpt lat="44.542006237369506" lon="10.751036294047122"><ele>192.8</ele><time>2026-04-04T14:29:23Z</time></trkpt><trkpt lat="44.541984550147546" lon="10.750902945828875"><ele>193.0</ele><time>2026-04-04T14:29:25Z</time></trkpt><trkpt lat="44.54196149010175" lon="10.750766303090115"><ele>193.60000000000002</ele><time>2026-04-04T14:29:27Z</time></trkpt><trkpt lat="44.54193813301754" lon="10.750624588090181"><ele>194.20000000000002</ele><time>2026-04-04T14:29:29Z</time></trkpt><trkpt lat="44.54190966269586" lon="10.750478610795858"><ele>194.8</ele><time>2026-04-04T14:29:31Z</time></trkpt><trkpt lat="44.541882938041574" lon="10.750336945194235"><ele>195.4</ele><time>2026-04-04T14:29:33Z</time></trkpt><trkpt lat="44.54185184889227" lon="10.75019765134048"><ele>196.0</ele><time>2026-04-04T14:29:35Z</time></trkpt><trkpt lat="44.54182336391135" lon="10.750048613853538"><ele>196.8</ele><time>2026-04-04T14:29:37Z</time></trkpt><trkpt lat="44.541793953013496" lon="10.749908265035272"><ele>197.60000000000002</ele><time>2026-04-04T14:29:39Z</time></trkpt><trkpt lat="44.541769852507386" lon="10.749772008534215"><ele>198.4</ele><time>2026-04-04T14:29:41Z</time></trkpt><trkpt lat="44.54173991461477" lon="10.749633974837652"><ele>199.2</ele><time>2026-04-04T14:29:43Z</time></trkpt><trkpt lat="44.54171442802251" lon="10.749496747976348"><ele>200.0</ele><time>2026-04-04T14:29:45Z</time></trkpt><trkpt lat="44.541684605491916" lon="10.749357567162471"><ele>200.6</ele><time>2026-04-04T14:29:47Z</time></trkpt><trkpt lat="44.54165835188067" lon="10.749223705812472"><ele>201.2</ele><time>2026-04-04T14:29:49Z</time></trkpt><trkpt lat="44.54163461111078" lon="10.749090024690643"><ele>201.8</ele><time>2026-04-04T14:29:51Z</time></trkpt><trkpt lat="44.54160687253163" lon="10.74894838039744"><ele>202.4</ele><time>2026-04-04T14:29:53Z</time></trkpt><trkpt lat="44.54156969043458" lon="10.74881069905772"><ele>203.0</ele><time>2026-04-04T14:29:55Z</time></trkpt><trkpt lat="44.5415117698186" lon="10.748683129645736"><ele>203.0</ele><time>2026-04-04T14:29:57Z</time></trkpt><trkpt lat="44.54143921595298" lon="10.748570731095468"><ele>203.0</ele><time>2026-04-04T14:29:59Z</time></trkpt><trkpt lat="44.5413524438217" lon="10.74847336217948"><ele>203.0</ele><time>2026-04-04T14:30:01Z</time></trkpt><trkpt lat="44.54125843431492" lon="10.748394566189715"><ele>203.0</ele><time>2026-04-04T14:30:03Z</time></trkpt><trkpt lat="44.54116308528293" lon="10.748319322544493"><ele>203.0</ele><time>2026-04-04T14:30:05Z</time></trkpt><trkpt lat="44.541072590775265" lon="10.748239717087507"><ele>202.60000000000002</ele><time>2026-04-04T14:30:07Z</time></trkpt><trkpt lat="44.54098624673715" lon="10.74815494289494"><ele>202.20000000000002</ele><time>2026-04-04T14:30:09Z</time></trkpt><trkpt lat="44.540911042842005" lon="10.74804987963208"><ele>201.8</ele><time>2026-04-04T14:30:11Z</time></trkpt><trkpt lat="44.54084704381199" lon="10.747936233813757"><ele>201.4</ele><time>2026-04-04T14:30:13Z</time></trkpt><trkpt lat="44.5407825901508" lon="10.747816170040004"><ele>201.0</ele><time>2026-04-04T14:30:15Z</time></trkpt><trkpt lat="44.54072802607648" lon="10.74768793987072"><ele>205.0</ele><time>2026-04-04T14:30:17Z</time></trkpt><trkpt lat="44.5406741379701" lon="10.747559549311926"><ele>205.0</ele><time>2026-04-04T14:30:19Z</time></trkpt><trkpt lat="44.54061460935221" lon="10.747437081451102"><ele>205.0</ele><time>2026-04-04T14:30:21Z</time></trkpt><trkpt lat="44.54056137442981" lon="10.74731558682597"><ele>205.0</ele><time>2026-04-04T14:30:23Z</time></trkpt><trkpt lat="44.540505083728235" lon="10.747195932687632"><ele>205.0</ele><time>2026-04-04T14:30:25Z</time></trkpt></trkseg></trk></gpx>